[[{"header":{"parameterUnit":"m.s-1","parameterCategory":1,"la1":31.0,"la2":29.5877,"lo1":-88.7671,"lo2":-86.6584,"dy":0.0162,"dx":0.0185,"nx":115,"ny":88,"refTime":"2023-03-31T06:00:00:Z","depth":0,"parameterNumber":2,"parameterNumberName":"U-component_of_WINDS"},"data":[0.0,0.0,0.0,0.0,0.0,0.0,0.0,0.0,0.0,0.0,0.0,0.0,0.0,0.0,0.0,0.0,0.0,0.0,0.0,0.0,0.0,0.0,0.0,0.0,0.0,0.0,0.0,0.0,0.0,0.0,0.0,0.0,0.0,0.0,0.0,0.0,0.0,0.0,0.0,0.0,0.0,0.0,0.0,0.0,0.0,0.0,0.0,0.0,0.0,0.0,0.0,0.0,0.0,0.0,0.0,0.0,0.0,0.0,0.0,0.0,0.0,0.0,0.0,0.0,0.0,0.0,0.0,0.0,0.0,0.0,0.0,0.0,0.0,0.0,0.0,0.0,0.0,0.0,0.0,0.0,0.0,0.0,0.0,0.0,0.0,0.0,0.0,0.0,0.0,0.0,0.0,0.0,0.0,0.0,0.0,0.0,0.0,0.0,0.0,0.0,0.0,0.0,0.0,0.0,0.0,0.0,0.0,0.0,0.0,0.0,0.0,0.0,0.0,0.0,0.0,0.0,0.0,0.0,0.0,0.0,0.0,0.0,0.0,0.0,0.0,0.0,0.0,0.0,0.0,0.0,0.0,0.0,0.0,0.0,0.0,0.0,0.0,0.0,0.0,0.0,0.0,0.0,0.0,0.0,0.0,0.0,0.0,0.0,0.0,0.0,0.0,0.0,0.0,0.0,0.0,0.0,0.0,0.0,0.0,0.0,0.0,0.0,0.0,0.0,0.0,0.0,0.0,0.0,0.0,0.0,0.0,0.0,0.0,0.0,0.0,0.0,0.0,0.0,0.0,0.0,0.0,0.0,0.0,0.0,0.0,0.0,0.0,0.0,0.0,0.0,0.0,0.0,0.0,0.0,0.0,0.0,0.0,0.0,0.0,0.0,0.0,0.0,0.0,0.0,0.0,0.0,0.0,0.0,0.0,0.0,0.0,0.0,0.0,0.0,0.0,0.0,0.0,0.0,0.0,0.0,0.0,0.0,0.0,0.0,0.0,0.0,0.0,0.0,0.0,0.0,0.0,0.0,0.0,0.0,0.0,0.0,0.0,0.0,0.0,0.0,0.0,0.0,0.0,0.0,0.0,0.0,0.0,0.0,0.0,0.0,0.0,0.0,0.0,0.0,0.0,0.0,0.0,0.0,0.0,0.0,0.0,0.0,0.0,0.0,0.0,0.0,0.0,0.0,0.0,0.0,0.0,0.0,0.0,0.0,0.0,0.0,0.0,0.0,0.0,0.0,0.0,0.0,0.0,0.0,0.0,0.0,0.0,0.0,0.0,0.0,0.0,0.0,0.0,0.0,0.0,0.0,0.0,0.0,0.0,0.0,0.0,0.0,0.0,0.0,0.0,0.0,0.0,0.0,0.0,0.0,0.0,0.0,0.0,0.0,0.0,0.0,0.0,0.0,0.0,0.0,0.0,0.0,0.0,0.0,0.0,0.0,0.0,0.0,0.0,0.0,0.0,0.0,0.0,0.0,0.0,0.0,0.0,0.0,0.0,0.0,0.0,0.0,0.0,0.0,0.0,0.0,0.0,0.0,0.0,0.0,0.0,0.0,0.0,0.0,0.0,0.0,0.0,0.0,0.0,0.0,0.0,0.0,0.0,0.0,0.0,0.0,0.0,0.0,0.0,0.0,0.0,0.0,0.0,0.0,0.0,0.0,0.0,0.0,0.0,0.0,0.0,0.0,0.0,0.0,0.0,0.0,0.0,0.0,0.0,0.0,0.0,0.0,0.0,0.0,0.0,0.0,0.0,0.0,0.0,0.0,0.0,0.0,0.0,0.0,0.0,0.0,0.0,0.0,0.0,0.0,0.0,0.0,0.0,0.0,0.0,0.0,0.0,0.0,0.0,0.0,0.0,0.0,0.0,0.0,0.0,0.0,0.0,0.0,0.0,0.0,0.0,0.0,0.0,0.0,0.0,0.0,0.0,0.0,0.0,0.0,0.0,0.0,0.0,0.0,0.0,0.0,0.0,0.0,0.0,0.0,0.0,0.0,0.0,0.0,0.0,0.0,0.0,0.0,0.0,0.0,0.0,0.0,0.0,0.0,0.0,0.0,0.0,0.0,0.0,0.0,0.0,0.0,0.0,0.0,0.0,0.0,0.0,0.0,0.0,0.0,0.0,0.0,0.0,0.0,0.0,0.0,0.0,0.0,0.0,0.0,0.0,0.0,0.0,0.0,0.0,0.0,0.0,0.0,0.0,0.0,0.0,0.0,0.0,0.0,0.0,0.0,0.0,0.0,0.0,0.0,0.0,0.0,0.0,0.0,0.0,0.0,0.0,0.0,0.0,0.0,0.0,0.0,0.0,0.0,0.0,0.0,0.0,0.0,0.0,0.0,0.0,0.0,0.0,0.0,0.0,0.0,0.0,0.0,0.0,0.0,0.0,0.0,0.0,0.0,0.0,0.0,0.0,0.0,0.0,0.0,0.0,0.0,0.0,0.0,0.0,0.0,0.0,0.0,0.0,0.0,0.0,0.0,0.0,0.0,0.0,0.0,0.0,0.0,0.0,0.0,0.0,0.0,0.0,0.0,0.0,0.0,0.0,0.0,0.0,0.0,0.0,0.0,0.0,0.0,0.0,0.0,0.0,0.0,0.0,0.0,0.0,0.0,0.0,0.0,0.0,0.0,0.0,0.0,0.0,0.0,0.0,0.0,0.0,0.0,0.0,0.0,0.0,0.0,0.0,0.0,0.0,0.0,0.0,0.0,0.0,0.0,0.0,0.0,0.0,0.0,0.0,0.0,0.0,0.0,0.0,0.0,0.0,0.0,0.0,0.0,0.0,0.0,0.0,0.0,0.0,0.0,0.0,0.0,0.0,0.0,0.0,0.0,0.0,0.0,0.0,0.0,0.0,0.0,0.0,0.0,0.0,0.0,0.0,0.0,0.0,0.0,0.0,0.0,0.0,0.0,0.0,0.0,0.0,0.0,0.0,0.0,0.0,0.0,0.0,0.0,0.0,0.0,0.0,0.0,0.0,0.0,0.0,0.0,0.0,0.0,0.0,0.0,0.0,0.0,0.0,0.0,0.0,0.0,0.0,0.0,0.0,0.0,0.0,0.0,0.0,0.0,0.0,0.0,0.0,0.0,0.0,0.0,0.0,0.0,0.0,0.0,0.0,0.0,0.0,0.0,0.0,0.0,0.0,0.0,0.0,0.0,0.0,0.0,0.0,0.0,0.0,0.0,0.0,0.0,0.0,0.0,0.0,0.0,0.0,0.0,0.0,0.0,0.0,0.0,0.0,0.0,0.0,0.0,0.0,0.0,0.0,0.0,0.0,0.0,0.0,0.0,0.0,0.0,0.0,0.0,0.0,0.0,0.0,0.0,0.0,0.0,0.0,0.0,0.0,0.0,0.0,0.0,0.0,0.0,0.0,0.0,0.0,0.0,0.0,0.0,0.0,0.0,0.0,0.0,0.0,0.0,0.0,0.0,0.0,0.0,0.0,0.0,0.0,0.0,0.0,0.0,0.0,0.0,0.0,0.0,0.0,0.0,0.0,0.0,0.0,0.0,0.0,0.0,0.0,0.0,0.0,0.0,0.0,0.0,0.0,0.0,0.0,0.0,0.0,0.0,0.0,0.0,0.0,0.0,0.0,0.0,0.0,0.0,0.0,0.0,0.0,0.0,0.0,0.0,0.0,0.0,0.0,0.0,0.0,0.0,0.0,0.0,0.0,0.0,0.0,0.0,0.0,0.0,0.0,0.0,0.0,0.0,0.0,0.0,0.0,0.0,0.0,0.0,0.0,0.0,0.0,0.0,0.0,0.0,0.0,0.0,0.0,0.0,0.0,0.0,0.0,0.0,0.0,0.0,0.0,0.0,0.0,0.0,0.0,0.0,0.0,0.0,0.0,0.0,0.0,0.0,0.0,0.0,0.0,0.0,0.0,0.0,0.0,0.0,0.0,0.0,0.0,0.0,0.0,0.0,0.0,0.0,0.0,0.0,0.0,0.0,0.0,0.0,0.0,0.0,0.0,0.0,0.0,0.0,0.0,0.0,0.0,0.0,0.0,0.0,0.0,0.0,0.0,0.0,0.0,0.0,0.0,0.0,0.0,0.0,0.0,0.0,0.0,0.0,0.0,0.0,0.0,0.0,0.0,0.0,0.0,0.0,0.0,0.0,0.0,0.0,0.0,0.0,0.0,0.0,0.0,0.0,0.0,0.0,0.0,0.0,0.0,0.0,0.0,0.0,0.0,0.0,0.0,0.0,0.0,0.0,0.0,0.0,0.0,0.0,0.0,0.0,0.0,0.0,0.0,0.0,1.1826,0.0,0.0,0.0,0.0,0.0,0.0,0.0,0.0,0.0,0.0,0.0,0.0,0.0,0.0,0.0,0.0,0.0,0.0,0.0,0.0,0.0,0.0,0.0,0.0,0.0,0.0,0.0,0.0,0.0,0.0,0.0,0.0,0.0,0.0,0.0,0.0,0.0,0.0,0.0,0.0,0.0,0.0,0.0,0.0,0.0,0.0,0.0,0.0,0.0,0.0,0.0,0.0,0.0,0.0,0.0,0.0,0.0,0.0,0.0,0.0,0.0,0.0,0.0,0.0,0.0,0.0,0.0,0.0,0.0,0.0,0.0,0.0,0.0,0.0,0.0,0.0,0.0,0.0,0.0,0.0,0.0,0.0,0.0,0.0,0.0,0.0,0.0,0.0,0.0,0.0,0.0,0.0,0.0,0.0,0.0,0.0,0.0,0.0,0.0,0.0,0.0,0.0,0.0,0.0,0.0,0.0,0.0,0.0,0.0,0.0,1.2102,1.2054,1.1991,1.1933,1.1891,0.0,0.0,0.0,0.0,0.0,0.0,0.0,0.0,0.0,0.0,0.0,0.0,0.0,0.0,0.0,0.0,0.0,0.0,0.0,0.0,0.0,0.0,0.0,0.0,0.0,0.0,0.0,0.0,0.0,0.0,0.0,0.0,0.0,0.0,0.0,0.0,0.0,0.0,0.0,0.0,0.0,0.0,0.0,0.0,0.0,0.0,0.0,0.0,0.0,0.0,0.0,0.0,0.0,0.0,0.0,0.0,0.0,0.0,0.0,0.0,0.0,0.0,0.0,0.0,0.0,0.0,0.0,0.0,0.0,0.0,0.0,0.0,0.0,0.0,0.0,0.0,0.0,0.0,0.0,0.0,0.0,0.0,0.0,0.0,0.0,0.0,0.0,0.0,0.0,0.0,0.0,0.0,0.0,0.0,0.0,0.0,0.0,0.0,0.0,0.0,0.0,0.0,0.0,0.0,0.0,0.0,0.0,0.0,0.0,0.0,0.0,0.0,1.2182,1.2139,1.2182,0.0,0.0,0.0,0.0,0.0,0.0,0.0,0.0,0.0,0.0,0.0,0.0,0.0,0.0,0.0,0.0,0.0,0.0,0.0,0.0,0.0,0.0,0.0,0.0,0.0,0.0,0.0,0.0,0.0,0.0,0.0,0.0,0.0,0.0,0.0,0.0,0.0,0.0,0.0,0.0,0.0,0.0,0.0,0.0,0.0,0.0,0.0,0.0,0.0,0.0,0.0,0.0,0.0,0.0,0.0,0.0,0.0,0.0,0.0,0.0,0.0,0.0,0.0,0.0,0.0,0.0,0.0,0.0,0.0,0.0,0.0,0.0,0.0,0.0,0.0,0.0,0.0,0.0,0.0,0.0,0.0,0.0,0.0,0.0,0.0,0.0,0.0,0.0,0.0,0.0,0.0,0.0,0.0,0.0,0.0,0.0,0.0,0.0,0.0,0.0,0.0,0.0,0.0,0.0,0.0,0.0,0.0,0.0,0.0,0.0,1.2244,1.2894,1.2841,0.0,1.2719,0.0,0.0,0.0,0.0,0.0,0.0,0.0,0.0,0.0,0.0,0.0,0.0,0.0,0.0,0.0,0.0,0.0,0.0,0.0,0.0,0.0,0.0,0.0,0.0,0.0,0.0,0.0,0.0,0.0,0.0,0.0,0.0,0.0,0.0,0.0,0.0,0.0,0.0,0.0,0.0,0.0,0.0,0.0,0.0,0.0,0.0,0.0,0.0,0.0,0.0,0.0,0.0,0.0,0.0,0.0,0.0,0.0,0.0,0.0,0.0,0.0,0.0,0.0,0.0,0.0,0.0,0.0,0.0,0.0,0.0,0.0,0.0,0.0,0.0,0.0,0.0,0.0,0.0,0.0,0.0,0.0,0.0,0.0,0.0,0.0,0.0,0.0,0.0,0.0,0.0,0.0,0.0,0.0,0.0,0.0,0.0,0.0,0.0,0.0,0.0,0.0,0.0,0.0,0.0,0.0,0.0,0.0,0.0,0.0,0.0,1.2636,1.2932,1.331,1.3473,0.0,0.0,0.0,0.0,0.0,0.0,0.0,0.0,0.0,0.0,0.0,0.0,0.0,0.0,0.0,0.0,0.0,0.0,0.0,0.0,0.0,0.0,0.0,0.0,0.0,0.0,0.0,0.0,0.0,0.0,0.0,0.0,0.0,0.0,0.0,0.0,0.0,0.0,0.0,0.0,0.0,0.0,0.0,0.0,0.0,0.0,0.0,0.0,0.0,0.0,0.0,0.0,0.0,0.0,0.0,0.0,0.0,0.0,0.0,0.0,0.0,0.0,0.0,0.0,0.0,0.0,0.0,0.0,0.0,0.0,0.0,0.0,0.0,0.0,0.0,0.0,0.0,0.0,0.0,0.0,0.0,0.0,0.0,0.0,0.0,0.0,0.0,0.0,0.0,0.0,0.0,0.0,0.0,0.0,0.0,0.0,0.0,0.0,0.0,0.0,0.0,0.0,0.0,0.0,0.0,0.0,0.0,0.0,0.0,0.0,1.2871,1.2664,1.2901,1.3377,1.3709,1.389,0.0,0.0,0.0,0.0,0.0,0.0,0.0,0.0,0.0,0.0,0.0,0.0,0.0,0.0,0.0,0.0,0.0,0.0,0.0,0.0,0.0,0.0,0.0,0.0,0.0,0.0,0.0,0.0,0.0,0.0,0.0,0.0,0.0,0.0,0.0,0.0,0.0,0.0,0.0,0.0,0.0,0.0,0.0,0.0,0.0,0.0,0.0,0.0,0.0,0.0,0.0,0.0,0.0,0.0,0.0,0.0,0.0,0.0,0.0,0.0,0.0,0.0,0.0,0.0,0.0,0.0,0.0,0.0,0.0,0.0,0.0,0.0,0.0,0.0,0.0,0.0,0.0,0.0,0.0,0.0,0.0,0.0,0.0,0.0,0.0,0.0,0.0,0.0,0.0,0.0,0.0,0.0,0.0,0.0,0.0,0.0,0.0,0.0,0.0,0.0,0.0,0.0,0.0,0.0,0.0,0.0,0.0,0.0,1.4762,1.2867,1.2142,1.2924,1.2954,1.3256,0.0,0.0,0.0,0.0,0.0,0.0,0.0,0.0,0.0,0.0,0.0,0.0,0.0,0.0,0.0,0.0,0.0,0.0,0.0,0.0,0.0,0.0,0.0,0.0,0.0,0.0,0.0,0.0,0.0,0.0,0.0,0.0,0.0,0.0,0.0,0.0,0.0,0.0,0.0,0.0,0.0,0.0,0.0,0.0,0.0,0.0,0.0,0.0,0.0,0.0,0.0,0.0,0.0,0.0,0.0,0.0,0.0,0.0,0.0,0.0,0.0,0.0,0.0,0.0,0.0,0.0,0.0,0.0,0.0,0.0,0.0,0.0,0.0,0.0,0.0,0.0,0.0,0.0,0.0,0.0,0.0,0.0,0.0,0.0,0.0,0.0,0.0,0.0,0.0,0.0,0.0,0.0,0.0,0.0,0.0,0.0,0.0,0.0,0.0,0.0,0.0,0.0,0.0,0.0,0.0,0.0,0.0,0.0,0.0,1.4722,1.4094,1.3835,1.4232,1.4207,1.4091,0.0,0.0,0.0,0.0,0.0,0.0,0.0,0.0,0.0,0.0,0.0,0.0,0.0,0.0,0.0,0.0,0.0,0.0,0.0,0.0,0.0,0.0,0.0,0.0,0.0,0.0,0.0,0.0,0.0,0.0,0.0,0.0,0.0,0.0,0.0,0.0,0.0,0.0,0.0,0.0,0.0,0.0,0.0,0.0,0.0,0.0,0.0,0.0,0.0,0.0,0.0,0.0,0.0,0.0,0.0,0.0,0.0,0.0,0.0,0.0,0.0,0.0,0.0,0.0,0.0,0.0,0.0,0.0,0.0,0.0,0.0,0.0,0.0,0.0,0.0,0.0,0.0,0.0,0.0,0.0,0.0,0.0,0.0,0.0,0.0,0.0,0.0,0.0,0.0,0.0,0.0,0.0,0.0,0.0,0.0,0.0,0.0,0.0,0.0,0.0,0.0,0.0,0.0,0.0,0.0,0.0,0.0,0.0,0.0,1.4466,0.0,1.4747,1.4364,1.4732,1.4615,0.0,0.0,0.0,0.0,0.0,0.0,0.0,0.0,0.0,0.0,0.0,0.0,0.0,0.0,0.0,0.0,0.0,0.0,0.0,0.0,0.0,0.0,0.0,0.0,0.0,0.0,0.0,0.0,0.0,0.0,0.0,0.0,0.0,0.0,0.0,0.0,0.0,0.0,0.0,0.0,0.0,0.0,0.0,0.0,0.0,0.0,0.0,0.0,0.0,0.0,0.0,0.0,0.0,0.0,0.0,0.0,0.0,0.0,0.0,0.0,0.0,0.0,0.0,0.0,0.0,0.0,0.0,0.0,0.0,0.0,0.0,0.0,0.0,0.0,0.0,0.0,0.0,0.0,0.0,0.0,0.0,0.0,0.0,0.0,0.0,0.0,0.0,0.0,0.0,0.0,0.0,0.0,0.0,0.0,0.0,0.0,0.0,0.0,0.0,0.0,0.0,0.0,0.0,0.0,0.0,0.0,0.0,0.0,1.4489,1.4,1.4735,1.4486,1.3129,1.4329,1.4626,0.0,0.0,0.0,0.0,0.0,0.0,0.0,0.0,0.0,0.0,0.0,0.0,0.0,0.0,0.0,0.0,0.0,0.0,0.0,0.0,0.0,0.0,0.0,0.0,0.0,0.0,0.0,0.0,0.0,0.0,0.0,0.0,0.0,0.0,0.0,0.0,0.0,0.0,0.0,0.0,0.0,0.0,0.0,0.0,0.0,0.0,0.0,0.0,0.0,0.0,0.0,0.0,0.0,0.0,0.0,0.0,0.0,0.0,0.0,0.0,0.0,0.0,0.0,0.0,0.0,0.0,0.0,0.0,0.0,0.0,0.0,0.0,0.0,0.0,0.0,0.0,0.0,0.0,0.0,0.0,0.0,0.0,0.0,0.0,0.0,0.0,0.0,0.0,0.0,0.0,0.0,0.0,0.0,0.0,0.0,0.0,0.0,0.0,0.0,0.0,0.0,0.0,0.0,0.0,0.0,0.0,0.0,0.0,0.0,1.5289,1.5523,1.5243,1.4424,1.4652,1.4521,0.0,0.0,0.0,0.0,0.0,0.0,0.0,0.0,0.0,0.0,0.0,0.0,0.0,0.0,0.0,0.0,0.0,0.0,0.0,0.0,0.0,0.0,0.0,0.0,0.0,0.0,0.0,0.0,0.0,0.0,0.0,0.0,0.0,0.0,0.0,0.0,0.0,0.0,0.0,0.0,0.0,0.0,0.0,0.0,0.0,0.0,0.0,0.0,0.0,0.0,0.0,0.0,0.0,0.0,0.0,0.0,0.0,0.0,0.0,0.0,0.0,0.0,0.0,0.0,0.0,0.0,0.0,0.0,0.0,0.0,0.0,0.0,0.0,0.0,0.0,0.0,0.0,0.0,0.0,0.0,0.0,0.0,0.0,0.0,0.0,0.0,0.0,0.0,0.0,0.0,0.0,0.0,0.0,0.0,0.0,0.0,0.0,0.0,0.0,0.0,0.0,0.0,0.0,0.0,0.0,0.0,0.0,0.0,0.0,1.6276,1.6275,1.593,1.5282,1.5367,1.5054,1.4251,0.0,0.0,0.0,0.0,0.0,0.0,0.0,0.0,0.0,0.0,0.0,0.0,0.0,0.0,0.0,0.0,0.0,0.0,0.0,0.0,0.0,0.0,0.0,0.0,0.0,0.0,0.0,0.0,0.0,0.0,0.0,0.0,0.0,0.0,0.0,0.0,0.0,0.0,0.0,0.0,0.0,0.0,0.0,0.0,0.0,0.0,0.0,0.0,0.0,0.0,0.0,0.0,0.0,0.0,0.0,0.0,0.0,0.0,0.0,0.0,0.0,0.0,0.0,0.0,0.0,0.0,0.0,0.0,0.0,0.0,0.0,0.0,0.0,0.0,0.0,0.0,0.0,0.0,0.0,0.0,0.0,0.0,0.0,0.0,0.0,0.0,0.0,0.0,0.0,0.0,0.0,0.0,0.0,0.0,0.0,0.0,0.0,0.0,0.0,0.0,0.0,0.0,0.0,0.0,0.0,0.0,0.0,0.0,1.6924,1.697,1.6623,1.5846,1.6353,1.6099,0.0,0.0,0.0,0.0,0.0,0.0,0.0,0.0,0.0,0.0,0.0,0.0,0.0,0.0,0.0,0.0,0.0,0.0,0.0,0.0,0.0,0.0,0.0,0.0,0.0,0.0,0.0,0.0,0.0,0.0,0.0,0.0,0.0,0.0,0.0,0.0,0.0,0.0,0.0,0.0,0.0,0.0,0.0,0.0,0.0,0.0,0.0,0.0,0.0,0.0,0.0,0.0,0.0,0.0,0.0,0.0,0.0,0.0,0.0,0.0,0.0,0.0,0.0,0.0,0.0,0.0,0.0,0.0,0.0,0.0,0.0,0.0,0.0,0.0,0.0,0.0,0.0,0.0,0.0,0.0,0.0,0.0,0.0,0.0,0.0,0.0,0.0,0.0,0.0,0.0,0.0,0.0,0.0,0.0,0.0,0.0,0.0,0.0,0.0,0.0,0.0,0.0,0.0,0.0,0.0,0.0,0.0,0.0,0.0,1.7443,1.7858,1.7799,1.7204,1.6642,1.6256,0.0,0.0,0.0,0.0,0.0,0.0,0.0,0.0,0.0,0.0,0.0,0.0,0.0,0.0,0.0,0.0,0.0,0.0,0.0,0.0,0.0,0.0,0.0,0.0,0.0,0.0,0.0,0.0,0.0,0.0,0.0,0.0,0.0,0.0,0.0,0.0,0.0,0.0,0.0,0.0,0.0,0.0,0.0,0.0,0.0,0.0,0.0,0.0,0.0,0.0,0.0,0.0,0.0,0.0,0.0,0.0,0.0,0.0,0.0,0.0,0.0,0.0,0.0,0.0,0.0,0.0,0.0,0.0,0.0,0.0,0.0,0.0,0.0,0.0,0.0,0.0,0.0,0.0,0.0,0.0,0.0,0.0,0.0,0.0,0.0,0.0,0.0,0.0,0.0,0.0,0.0,0.0,0.0,0.0,0.0,0.0,0.0,0.0,0.0,0.0,0.0,0.0,0.0,0.0,0.0,0.0,0.0,0.0,1.847,1.8484,1.9301,1.9561,1.9277,1.789,1.6895,0.0,0.0,0.0,0.0,0.0,0.0,0.0,0.0,0.0,0.0,0.0,0.0,0.0,0.0,0.0,0.0,0.0,0.0,0.0,0.0,0.0,0.0,0.0,0.0,0.0,0.0,0.0,0.0,0.0,0.0,0.0,0.0,0.0,0.0,0.0,0.0,0.0,0.0,0.0,0.0,0.0,0.0,0.0,0.0,0.0,0.0,0.0,0.0,0.0,0.0,0.0,0.0,0.0,0.0,0.0,0.0,0.0,0.0,0.0,0.0,0.0,0.0,0.0,0.0,0.0,0.0,0.0,0.0,0.0,0.0,0.0,0.0,0.0,0.0,0.0,0.0,0.0,0.0,0.0,0.0,0.0,0.0,0.0,0.0,0.0,0.0,0.0,0.0,0.0,0.0,0.0,0.0,0.0,0.0,0.0,0.0,0.0,0.0,0.0,0.0,0.0,0.0,0.0,0.0,0.0,0.0,0.0,0.0,1.9575,1.9773,2.0818,2.1362,2.1304,1.9479,1.7881,0.0,0.0,0.0,0.0,0.0,0.0,0.0,0.0,0.0,0.0,0.0,0.0,0.0,0.0,0.0,0.0,0.0,0.0,0.0,0.0,0.0,0.0,0.0,0.0,0.0,0.0,0.0,0.0,0.0,0.0,0.0,0.0,0.0,0.0,0.0,0.0,0.0,0.0,0.0,0.0,0.0,0.0,0.0,0.0,0.0,0.0,0.0,0.0,0.0,0.0,0.0,0.0,0.0,0.0,0.0,0.0,0.0,0.0,0.0,0.0,0.0,0.0,0.0,0.0,0.0,0.0,0.0,0.0,0.0,0.0,0.0,0.0,0.0,0.0,0.0,0.0,0.0,0.0,0.0,0.0,0.0,0.0,0.0,0.0,0.0,0.0,0.0,0.0,0.0,0.0,0.0,0.0,0.0,0.0,0.0,0.0,0.0,0.0,0.0,0.0,0.0,0.0,0.0,0.0,0.0,0.0,0.0,0.0,2.018,2.018,2.0881,2.1114,2.092,1.9715,1.8841,0.0,0.0,0.0,0.0,0.0,0.0,0.0,0.0,0.0,0.0,0.0,0.0,0.0,0.0,0.0,0.0,0.0,0.0,0.0,0.0,0.0,0.0,0.0,0.0,0.0,0.0,0.0,0.0,0.0,0.0,0.0,0.0,0.0,0.0,0.0,0.0,0.0,0.0,0.0,0.0,0.0,0.0,0.0,0.0,0.0,0.0,0.0,0.0,1.3362,0.0,0.0,0.0,0.0,0.0,0.0,0.0,0.0,0.0,0.0,0.0,0.0,0.0,0.0,0.0,0.0,0.0,0.0,0.0,0.0,0.0,0.0,0.0,0.0,0.0,0.0,0.0,0.0,0.0,0.0,0.0,0.0,0.0,0.0,0.0,0.0,0.0,0.0,0.0,0.0,0.0,0.0,0.0,0.0,0.0,0.0,0.0,0.0,0.0,0.0,0.0,0.0,0.0,0.0,0.0,0.0,0.0,0.0,0.0,2.095,2.134,2.1808,2.2017,2.1873,2.1056,2.0084,0.0,0.0,0.0,0.0,0.0,0.0,0.0,0.0,0.0,0.0,0.0,0.0,0.0,0.0,0.0,0.0,0.0,0.0,0.0,0.0,0.0,0.0,0.0,0.0,0.0,0.0,0.0,0.0,0.0,0.0,0.0,0.0,0.0,0.0,0.0,0.0,0.0,0.0,0.0,0.0,0.0,0.0,0.0,0.0,0.0,0.0,0.0,0.0,0.0,0.0,0.0,0.0,0.0,0.0,0.0,0.0,0.0,0.0,0.0,0.0,0.0,0.0,0.0,0.0,0.0,0.0,0.0,0.0,0.0,0.0,0.0,0.0,0.0,0.0,0.0,0.0,0.0,0.0,0.0,0.0,0.0,0.0,0.0,0.0,0.0,0.0,0.0,0.0,0.0,0.0,0.0,0.0,0.0,0.0,0.0,0.0,0.0,0.0,0.0,0.0,0.0,0.0,0.0,0.0,0.0,0.0,0.0,2.0973,2.1659,2.2549,2.2893,2.3052,2.3023,2.2469,2.1191,1.9198,0.0,0.0,0.0,0.0,0.0,0.0,0.0,0.0,0.0,0.0,0.0,0.0,0.0,0.0,0.0,0.0,0.0,0.0,0.0,0.0,0.0,0.0,0.0,0.0,0.0,0.0,0.0,0.0,0.0,0.0,0.0,0.0,0.0,0.0,0.0,0.0,0.0,0.0,1.307,1.3089,0.0,0.0,0.0,0.0,0.0,0.0,0.0,0.0,1.3939,0.0,0.0,0.0,0.0,0.0,0.0,0.0,0.0,0.0,0.0,0.0,0.0,0.0,0.0,0.0,0.0,0.0,0.0,0.0,0.0,0.0,0.0,0.0,0.0,0.0,0.0,0.0,0.0,0.0,0.0,0.0,0.0,0.0,0.0,0.0,0.0,0.0,0.0,0.0,0.0,0.0,0.0,0.0,0.0,0.0,0.0,0.0,0.0,0.0,0.0,0.0,0.0,0.0,0.0,0.0,0.0,2.1127,2.1208,2.1739,2.2789,2.2875,2.2843,2.2692,2.2279,2.1513,2.0412,0.0,0.0,0.0,0.0,0.0,0.0,0.0,0.0,0.0,0.0,0.0,0.0,0.0,0.0,0.0,0.0,0.0,0.0,0.0,0.0,0.0,0.0,0.0,0.0,0.0,0.0,0.0,0.0,0.0,0.0,0.0,0.0,0.0,0.0,0.0,0.0,0.0,0.0,0.0,1.3689,1.3398,0.0,0.0,0.0,0.0,0.0,0.0,0.0,0.0,1.4673,0.0,0.0,0.0,0.0,0.0,0.0,0.0,0.0,0.0,0.0,0.0,0.0,0.0,0.0,0.0,0.0,0.0,0.0,0.0,0.0,0.0,0.0,0.0,0.0,0.0,0.0,0.0,0.0,0.0,0.0,0.0,0.0,0.0,0.0,0.0,0.0,0.0,0.0,0.0,0.0,0.0,0.0,0.0,0.0,0.0,0.0,0.0,0.0,0.0,0.0,0.0,0.0,0.0,0.0,0.0,2.1289,2.1827,2.2367,2.2904,2.3432,2.332,2.2644,2.2766,2.219,0.0,0.0,0.0,0.0,0.0,0.0,0.0,0.0,0.0,0.0,0.0,0.0,0.0,0.0,0.0,0.0,0.0,0.0,0.0,0.0,0.0,0.0,0.0,0.0,0.0,0.0,0.0,0.0,0.0,0.0,0.0,0.0,0.0,0.0,0.0,0.0,0.0,0.0,0.0,0.0,1.4337,1.4387,1.5189,0.0,0.0,0.0,0.0,0.0,0.0,1.5399,1.5452,0.0,0.0,0.0,0.0,0.0,0.0,0.0,0.0,0.0,0.0,0.0,0.0,0.0,0.0,0.0,0.0,0.0,0.0,0.0,0.0,0.0,0.0,0.0,0.0,0.0,0.0,0.0,0.0,0.0,0.0,0.0,0.0,0.0,0.0,0.0,0.0,0.0,0.0,0.0,0.0,0.0,0.0,0.0,0.0,0.0,0.0,0.0,0.0,0.0,0.0,0.0,0.0,0.0,0.0,0.0,2.1322,2.2207,2.2815,2.3016,2.3679,2.3698,2.2955,2.308,2.2431,0.0,0.0,0.0,0.0,0.0,0.0,0.0,0.0,0.0,0.0,0.0,0.0,0.0,0.0,0.0,0.0,0.0,0.0,0.0,0.0,0.0,0.0,0.0,0.0,0.0,0.0,0.0,0.0,0.0,0.0,0.0,0.0,0.0,0.0,0.0,0.0,0.0,0.0,0.0,0.0,0.0,1.5392,1.6298,1.6003,0.0,0.0,0.0,0.0,1.6318,1.6206,0.0,0.0,0.0,0.0,0.0,0.0,0.0,0.0,0.0,0.0,0.0,0.0,0.0,0.0,0.0,0.0,0.0,0.0,0.0,0.0,0.0,0.0,0.0,0.0,0.0,0.0,0.0,0.0,0.0,0.0,0.0,0.0,0.0,0.0,0.0,0.0,0.0,0.0,0.0,0.0,0.0,0.0,0.0,0.0,0.0,0.0,0.0,0.0,0.0,0.0,0.0,0.0,0.0,0.0,0.0,0.0,2.1046,2.1657,2.2405,2.3345,2.3044,2.3179,2.3929,2.2157,2.1499,0.0,0.0,0.0,0.0,0.0,0.0,0.0,0.0,0.0,0.0,0.0,0.0,0.0,0.0,0.0,0.0,0.0,0.0,0.0,0.0,0.0,0.0,0.0,0.0,0.0,0.0,0.0,0.0,0.0,0.0,0.0,0.0,0.0,0.0,0.0,0.0,0.0,0.0,0.0,0.0,0.0,1.5819,1.6391,1.6153,1.5853,0.0,0.0,1.6318,1.6032,1.6754,0.0,0.0,0.0,0.0,0.0,0.0,0.0,0.0,0.0,0.0,0.0,0.0,0.0,0.0,0.0,0.0,0.0,0.0,0.0,0.0,0.0,0.0,0.0,0.0,0.0,0.0,0.0,0.0,0.0,0.0,0.0,0.0,0.0,0.0,0.0,0.0,0.0,0.0,0.0,0.0,0.0,0.0,0.0,0.0,0.0,0.0,0.0,0.0,0.0,0.0,0.0,0.0,0.0,0.0,0.0,2.0715,2.0992,2.2069,2.2918,2.3402,2.3666,2.3849,2.3821,2.3033,2.24,0.0,0.0,0.0,0.0,0.0,0.0,0.0,0.0,0.0,0.0,0.0,0.0,0.0,0.0,0.0,0.0,0.0,0.0,0.0,0.0,0.0,0.0,0.0,0.0,0.0,0.0,0.0,0.0,0.0,0.0,0.0,0.0,0.0,0.0,0.0,0.0,0.0,0.0,0.0,0.0,0.0,0.0,1.7173,1.7095,0.0,0.0,0.0,1.7078,1.6716,0.0,0.0,0.0,0.0,0.0,0.0,0.0,0.0,0.0,0.0,0.0,0.0,0.0,0.0,0.0,0.0,0.0,0.0,0.0,0.0,0.0,0.0,0.0,0.0,0.0,0.0,0.0,0.0,0.0,0.0,0.0,0.0,0.0,0.0,0.0,0.0,0.0,0.0,0.0,0.0,0.0,0.0,0.0,0.0,0.0,0.0,0.0,0.0,0.0,0.0,0.0,0.0,0.0,0.0,0.0,0.0,0.0,2.1355,2.2536,2.3322,2.3589,2.4155,2.4299,2.4008,2.3761,0.0,0.0,0.0,0.0,0.0,0.0,0.0,0.0,0.0,0.0,0.0,0.0,0.0,0.0,0.0,0.0,0.0,0.0,0.0,0.0,0.0,0.0,0.0,0.0,0.0,0.0,0.0,1.3383,0.0,0.0,0.0,0.0,0.0,0.0,0.0,0.0,0.0,0.0,0.0,0.0,0.0,0.0,1.739,1.7797,1.7858,1.7943,0.0,0.0,1.7724,1.7466,1.8105,1.825,0.0,0.0,0.0,0.0,0.0,0.0,0.0,0.0,0.0,0.0,0.0,0.0,0.0,0.0,0.0,0.0,0.0,0.0,0.0,0.0,0.0,0.0,0.0,0.0,0.0,0.0,0.0,0.0,0.0,0.0,0.0,0.0,0.0,0.0,0.0,0.0,0.0,0.0,0.0,0.0,0.0,0.0,0.0,0.0,0.0,0.0,0.0,0.0,0.0,0.0,0.0,0.0,0.0,0.0,0.0,2.2183,2.2554,2.3322,2.4362,2.3818,2.3986,2.5038,2.3412,2.2857,0.0,0.0,0.0,0.0,0.0,0.0,0.0,0.0,0.0,0.0,0.0,0.0,0.0,0.0,0.0,0.0,0.0,0.0,0.0,0.0,0.0,0.0,0.0,0.0,0.0,0.0,0.0,0.0,0.0,0.0,0.0,0.0,0.0,0.0,0.0,0.0,0.0,0.0,0.0,0.0,0.0,1.7952,1.7977,1.8024,1.8211,0.0,0.0,1.7958,1.8137,1.8486,1.8394,1.7187,0.0,0.0,0.0,0.0,0.0,0.0,0.0,0.0,0.0,0.0,0.0,0.0,0.0,0.0,0.0,0.0,0.0,0.0,0.0,0.0,0.0,0.0,0.0,0.0,0.0,0.0,0.0,0.0,0.0,0.0,0.0,0.0,0.0,0.0,0.0,0.0,0.0,0.0,0.0,0.0,0.0,0.0,0.0,0.0,0.0,0.0,0.0,0.0,0.0,0.0,0.0,0.0,0.0,2.1364,2.2173,2.2867,2.3685,2.4445,2.415,2.4284,2.4935,2.3987,2.331,0.0,0.0,0.0,0.0,0.0,0.0,0.0,0.0,0.0,0.0,0.0,0.0,0.0,0.0,0.0,0.0,0.0,0.0,0.0,0.0,0.0,0.0,0.0,0.0,0.0,0.0,0.0,0.0,1.3494,1.3701,1.3965,0.0,0.0,0.0,0.0,0.0,0.0,0.0,0.0,0.0,0.0,1.8263,1.858,1.8922,0.0,0.0,1.9223,1.8988,1.8827,1.9102,1.897,1.7921,1.7704,0.0,0.0,0.0,0.0,0.0,0.0,0.0,0.0,0.0,0.0,0.0,0.0,0.0,0.0,0.0,0.0,0.0,0.0,0.0,0.0,0.0,0.0,0.0,0.0,0.0,0.0,0.0,0.0,0.0,0.0,0.0,0.0,0.0,0.0,0.0,0.0,0.0,0.0,0.0,0.0,0.0,0.0,0.0,0.0,0.0,0.0,0.0,0.0,0.0,0.0,0.0,0.0,2.1763,2.2583,2.3252,2.3917,2.4518,2.4375,2.4389,2.4593,2.4276,2.367,0.0,0.0,0.0,0.0,0.0,0.0,0.0,0.0,0.0,0.0,0.0,0.0,0.0,0.0,0.0,0.0,0.0,0.0,0.0,0.0,0.0,0.0,0.0,0.0,0.0,0.0,0.0,0.0,1.3749,1.409,1.463,0.0,0.0,0.0,0.0,0.0,0.0,0.0,0.0,0.0,0.0,1.8694,1.8898,1.9246,1.9485,1.9552,1.942,1.9186,1.9035,1.9203,1.9095,1.8398,0.0,0.0,0.0,0.0,0.0,0.0,0.0,0.0,0.0,0.0,0.0,0.0,0.0,0.0,0.0,0.0,0.0,0.0,0.0,0.0,0.0,0.0,0.0,0.0,0.0,0.0,0.0,0.0,0.0,0.0,1.7983,0.0,0.0,0.0,0.0,0.0,0.0,0.0,0.0,0.0,0.0,0.0,0.0,0.0,0.0,0.0,0.0,0.0,0.0,0.0,0.0,0.0,0.0,2.2359,2.3622,2.3703,2.4019,2.4567,2.4408,2.4247,2.4112,2.4099,2.3799,2.3115,0.0,0.0,0.0,0.0,0.0,0.0,0.0,0.0,0.0,0.0,0.0,0.0,0.0,0.0,0.0,0.0,0.0,0.0,0.0,0.0,0.0,0.0,0.0,0.0,0.0,0.0,1.3528,1.4058,1.4641,0.0,0.0,0.0,0.0,0.0,0.0,0.0,0.0,0.0,0.0,1.8641,1.9455,1.8792,1.8732,1.8815,1.8708,1.8389,1.8211,1.8643,1.8792,1.8756,0.0,0.0,0.0,0.0,0.0,0.0,0.0,0.0,0.0,0.0,0.0,0.0,0.0,0.0,0.0,0.0,0.0,0.0,0.0,0.0,0.0,0.0,0.0,0.0,0.0,0.0,0.0,1.8755,1.8697,0.0,0.0,0.0,0.0,0.0,0.0,0.0,0.0,0.0,0.0,0.0,2.0113,2.004,0.0,0.0,0.0,0.0,0.0,0.0,0.0,0.0,0.0,0.0,0.0,0.0,2.2536,2.3339,2.3966,2.4315,2.4385,2.4326,2.421,2.3936,2.3936,2.3619,2.2954,0.0,0.0,0.0,0.0,0.0,0.0,0.0,0.0,0.0,0.0,0.0,0.0,0.0,0.0,0.0,0.0,0.0,0.0,0.0,0.0,0.0,0.0,0.0,0.0,0.0,1.4392,0.0,0.0,0.0,0.0,0.0,0.0,0.0,0.0,0.0,0.0,0.0,1.7718,1.8048,1.8608,1.9053,1.9132,1.945,1.991,0.0,0.0,0.0,0.0,0.0,0.0,0.0,0.0,0.0,0.0,0.0,0.0,0.0,0.0,1.9797,1.8316,1.8454,1.8655,1.813,0.0,0.0,0.0,0.0,0.0,0.0,0.0,0.0,0.0,0.0,0.0,0.0,0.0,0.0,1.9659,0.0,1.9324,0.0,0.0,0.0,0.0,0.0,0.0,0.0,0.0,2.0477,2.079,2.0874,2.09,2.0819,0.0,2.0464,1.988,0.0,0.0,0.0,0.0,0.0,0.0,0.0,0.0,2.2616,2.3057,2.3769,2.4197,2.4287,2.4227,2.4124,2.4096,2.3857,2.3606,2.3368,2.2786,2.2274,0.0,0.0,0.0,0.0,0.0,0.0,0.0,0.0,0.0,0.0,0.0,0.0,0.0,0.0,0.0,0.0,0.0,0.0,0.0,0.0,0.0,0.0,0.0,1.5057,0.0,0.0,0.0,0.0,0.0,0.0,0.0,0.0,0.0,1.7264,1.785,1.8359,1.8686,1.9036,1.9385,1.9561,0.0,0.0,0.0,0.0,0.0,0.0,0.0,2.0051,1.9818,2.0331,2.0906,2.1307,2.1557,2.1675,2.1537,0.0,0.0,1.9645,1.979,1.9924,1.9227,1.9285,1.9425,1.9401,1.9492,1.9709,0.0,0.0,0.0,0.0,0.0,0.0,0.0,0.0,2.0294,2.0204,0.0,1.9797,0.0,0.0,0.0,0.0,0.0,2.0663,0.0,0.0,2.2494,2.2805,2.1888,2.1699,2.1389,2.0891,2.0762,2.0696,2.065,2.0247,0.0,0.0,0.0,0.0,0.0,0.0,2.2711,2.283,2.3257,2.372,2.424,2.4066,2.4129,2.4486,2.386,2.3887,2.4372,2.296,2.2328,2.2737,2.0974,0.0,0.0,0.0,0.0,0.0,0.0,0.0,0.0,0.0,0.0,0.0,0.0,0.0,0.0,0.0,0.0,0.0,0.0,0.0,0.0,1.5885,0.0,0.0,0.0,0.0,0.0,0.0,0.0,0.0,0.0,0.0,1.781,1.8651,1.9259,1.9101,0.0,0.0,0.0,0.0,2.024,1.9803,1.9522,1.9414,1.9291,1.9794,2.0245,2.0568,0.0,0.0,2.1807,2.1636,2.1446,2.1389,2.1578,2.1549,2.1493,2.1394,2.1169,2.0584,2.0825,2.1009,2.0579,2.0671,2.085,2.4677,0.0,0.0,0.0,0.0,2.1929,2.1501,2.1379,2.174,2.1526,2.0964,2.1227,0.0,0.0,0.0,0.0,0.0,0.0,2.1218,2.1783,2.2217,2.251,2.2734,2.2592,2.2428,2.2237,2.2097,2.1983,2.1838,2.1644,2.1287,2.0903,0.0,0.0,0.0,0.0,2.3153,2.4014,2.4356,2.4619,2.4773,2.4732,2.4638,2.4536,2.4587,2.4521,2.4275,2.4255,2.3737,2.2848,2.207,0.0,0.0,0.0,0.0,0.0,0.0,0.0,0.0,0.0,0.0,0.0,0.0,0.0,0.0,0.0,0.0,0.0,0.0,0.0,1.6264,1.6219,1.601,0.0,0.0,0.0,0.0,0.0,0.0,0.0,0.0,0.0,1.9188,1.9247,1.926,0.0,0.0,1.9696,1.9547,1.9897,2.037,2.0809,2.0508,0.0,0.0,2.1237,2.1136,2.1085,2.1936,2.2718,2.2937,2.3039,2.3176,2.3176,2.3078,2.2981,2.2965,2.2377,2.1823,2.1531,2.1677,2.1722,2.1476,2.1475,2.1496,2.6014,2.5562,2.4516,2.3942,2.3748,2.304,2.2659,2.2488,2.2802,2.2573,2.202,2.225,2.1853,2.0967,2.0659,0.0,0.0,0.0,2.201,2.255,2.2704,2.2842,2.2977,2.2903,2.2719,2.2441,2.2596,2.2665,2.2552,2.2305,2.1977,2.1511,0.0,0.0,2.2313,2.2819,2.3276,2.3991,2.4368,2.4628,2.4703,2.4817,2.4815,2.4602,2.4631,2.4562,2.4306,2.4345,2.4002,2.3304,2.2761,2.2127,0.0,0.0,0.0,0.0,0.0,0.0,0.0,0.0,0.0,0.0,0.0,1.7075,1.6951,0.0,0.0,0.0,1.7435,1.734,1.6834,1.6763,0.0,0.0,0.0,0.0,0.0,0.0,0.0,1.7313,1.8222,1.9044,1.953,1.9695,1.9865,2.0104,2.0166,2.0166,2.0291,0.0,2.107,2.161,2.1441,2.1419,2.2004,2.2221,2.2358,2.2535,2.3116,2.3653,2.3761,2.3932,2.396,2.3971,2.3808,2.3656,2.3645,2.3238,2.2717,2.228,2.2755,2.3084,2.2655,2.2712,2.2915,2.6724,2.6399,2.5308,2.4717,2.4476,2.4249,2.4047,2.3779,2.3619,2.3378,2.3104,2.2912,2.2319,2.1482,2.119,0.0,2.2395,2.2922,2.3152,2.314,2.3699,2.3568,2.2831,2.2844,2.2533,2.2035,2.2598,2.2934,2.3005,2.2618,2.2439,2.2383,2.2616,2.2662,2.246,2.3108,2.335,2.3128,2.3748,2.4121,2.4269,2.4614,2.479,2.4766,2.4331,2.4237,2.4504,2.378,2.352,2.3977,2.3215,2.2611,2.2209,0.0,0.0,0.0,0.0,0.0,0.0,0.0,0.0,0.0,0.0,0.0,0.0,0.0,0.0,0.0,1.8356,0.0,1.7767,1.7472,0.0,0.0,0.0,1.6874,1.7207,1.7868,1.8222,1.8034,0.0,0.0,1.9265,2.0038,2.0801,2.1284,2.1285,2.1375,2.1509,2.1834,2.2112,2.211,2.2194,2.2213,2.231,2.2903,2.3556,2.4115,2.4396,2.4298,2.4287,2.423,2.4126,2.4083,2.3977,2.3796,2.3817,2.3913,2.3848,2.3032,2.3935,2.4647,2.3888,2.4104,2.447,2.7502,2.7346,2.6971,2.6499,2.6059,2.6317,2.5695,2.4594,2.4798,2.4278,2.3282,2.3619,2.3637,2.3334,2.3052,2.3152,2.3589,2.3745,2.3574,2.3255,2.3289,2.3285,2.3279,2.3126,2.3093,2.3081,2.3568,2.3653,2.3142,2.3435,2.3499,2.3254,2.3301,2.3023,2.2469,2.2921,2.3587,2.4347,2.4515,2.4743,2.5016,2.5004,2.4969,2.4957,2.4732,2.4672,2.4706,2.4554,2.4272,2.399,2.3676,2.3218,2.2515,2.1812,0.0,0.0,0.0,0.0,0.0,0.0,0.0,0.0,0.0,1.8125,1.7763,0.0,1.8324,0.0,1.8581,1.86,1.8283,1.8171,0.0,0.0,1.8032,1.8251,1.8606,1.9329,1.9619,1.919,1.9539,1.9959,2.027,2.0512,2.0913,2.1565,2.1428,2.1257,2.1326,2.1659,2.2031,2.2271,2.2695,2.3023,2.3302,2.3581,2.3752,2.3956,2.4078,2.4136,2.4136,2.4306,2.4317,2.4147,2.4057,2.3988,2.3839,2.4104,2.4185,2.3724,2.4168,2.4579,2.4326,2.4412,2.4476,2.7721,2.7646,2.7753,2.7471,2.6994,2.7047,2.6393,2.5284,2.5629,2.5121,2.3933,2.4178,2.4322,2.425,2.3989,2.3915,2.4016,2.4142,2.4031,2.3674,2.3703,2.3745,2.3865,2.3702,2.3701,2.3754,2.4066,2.402,2.3652,2.3791,2.3713,2.3478,2.3561,2.329,2.265,2.3083,2.3754,2.4821,2.4648,2.4609,2.4825,2.4622,2.4422,2.4272,2.4284,2.419,2.3956,2.4015,2.3943,2.3649,2.363,2.335,2.2769,2.2079,2.1472,0.0,0.0,0.0,0.0,0.0,0.0,0.0,0.0,0.0,0.0,0.0,1.9018,1.8704,1.9228,1.9336,1.8764,1.8879,1.9037,1.8994,1.9115,1.9328,1.9519,2.0102,2.0233,1.9696,2.0209,2.0594,2.0731,2.1114,2.1463,2.1891,2.1838,2.1722,2.168,2.2104,2.251,2.2679,2.3238,2.3763,2.4257,2.427,2.4352,2.4527,2.4527,2.4516,2.4691,2.4701,2.4701,2.4598,2.4516,2.4434,2.4363,2.4471,2.4555,2.4458,2.4609,2.4697,2.4524,2.4643,2.4691,2.7747,2.7668,2.8084,2.798,2.7582,2.7264,2.6694,2.594,2.6195,2.5713,2.4701,2.4621,2.4568,2.459,2.4317,2.417,2.4114,2.4364,2.4341,2.4107,2.4376,2.4439,2.4277,2.4241,2.4191,2.412,2.4193,2.4207,2.4186,2.401,2.3739,2.3501,2.3665,2.3502,2.3049,2.3317,2.381,2.4578,2.4348,2.4261,2.4273,2.3986,2.3735,2.3454,2.3525,2.3409,2.2956,2.3068,2.3203,2.3147,2.3372,2.33,2.3066,2.2235,2.1807,0.0,2.0435,0.0,0.0,0.0,0.0,0.0,0.0,0.0,0.0,2.0193,2.0024,1.9514,2.0037,2.0074,1.9415,1.9694,1.9967,2.0086,2.0121,2.017,2.0175,2.0565,2.0596,2.0028,2.079,2.129,2.0968,2.1582,2.2078,2.2039,2.2271,2.2341,2.219,2.2537,2.2966,2.3108,2.3714,2.4148,2.4502,2.4648,2.4808,2.5189,2.4978,2.4977,2.5359,2.5137,2.4935,2.5083,2.5009,2.484,2.4934,2.4807,2.4796,2.4817,2.4935,2.4935,2.4732,2.487,2.5179,2.842,2.8389,2.8372,2.8244,2.8084,2.7994,2.7454,2.6608,2.6459,2.5808,2.4757,2.4404,2.4408,2.4626,2.4269,2.4327,2.461,2.4549,2.4319,2.3981,2.4292,2.4223,2.3879,2.4252,2.4242,2.3815,2.4225,2.4285,2.406,2.4588,2.4588,2.4083,2.4141,2.4013,2.3676,0.0,0.0,0.0,2.4202,2.4418,2.4406,2.3989,2.3723,2.3618,2.3293,0.0,2.2933,2.3068,2.3136,2.3001,2.3138,0.0,0.0,0.0,0.0,0.0,0.0,0.0,0.0,0.0,0.0,0.0,2.1125,2.1005,2.1047,2.0808,2.064,2.0535,2.0597,2.0725,2.0663,2.07,2.0726,2.061,2.0925,2.1032,2.0706,2.1087,2.1161,2.0781,2.1171,2.143,2.1214,2.1749,2.2148,2.2004,2.2319,2.2289,2.1987,2.2342,2.2778,2.3134,2.3591,2.3872,2.4034,2.4024,2.4196,2.4368,2.4454,2.4598,2.5149,2.5091,2.4943,2.5149,2.5037,2.4922,2.4831,2.4538,2.4522,2.4743,2.4615,2.4519,2.4914,2.5136,2.5115,2.87,0.0,2.8636,2.8525,0.0,2.8222,2.7823,2.7225,2.6929,2.6236,2.5317,2.5043,2.5015,2.5093,2.5009,2.5054,2.5177,2.515,2.4996,2.4658,2.4506,2.4455,2.4459,2.4484,2.4499,2.4393,2.4761,2.4683,2.4319,2.4637,2.4565,2.4024,2.4083,2.4024,2.3727,2.3644,2.3605,2.3567,2.4342,2.4671,2.4625,2.4334,2.4101,2.3936,0.0,0.0,0.0,0.0,0.0,0.0,0.0,0.0,0.0,0.0,0.0,2.2695,2.2159,2.1911,2.2043,2.1717,2.1667,2.1946,2.2026,2.1812,2.1436,2.1406,2.1349,2.106,2.1208,2.1176,2.0907,2.1126,2.1135,2.0997,2.1182,2.1165,2.0959,2.1141,2.1286,2.1105,2.1322,2.153,2.1676,2.2079,2.2261,2.2207,2.2532,2.265,2.2395,2.2567,2.3016,2.3438,2.367,2.3841,2.3764,2.3764,2.3941,2.4354,2.4262,2.44,2.5063,2.484,2.4685,2.5099,2.5016,2.4928,2.5242,2.5102,2.487,2.4849,2.4696,2.4543,2.485,2.4771,2.4615,2.8838,2.8765,2.8915,2.8816,2.8606,2.8355,2.8086,2.7741,0.0,0.0,0.0,2.5827,2.5688,2.5613,2.5815,2.584,2.5615,2.5664,2.5623,2.5408,2.4831,2.4855,2.5222,2.4896,2.4819,2.504,2.5111,2.5027,2.4545,2.4545,2.4411,2.4107,2.4186,2.4084,2.397,2.4355,2.4412,2.4172,2.4771,2.4959,2.4796,2.4703,2.4581,2.4256,2.4555,2.4283,2.345,2.3465,2.3364,2.3016,2.2993,2.2925,2.2913,2.2613,2.249,2.2697,2.1934,2.181,2.2614,2.2125,2.204,2.2633,2.2754,2.2494,2.1691,2.1937,2.1931,2.147,2.1754,2.1681,2.1015,2.1277,2.1425,2.1128,2.1128,2.1071,2.0927,2.1093,2.1194,2.126,2.1426,2.1745,2.2026,2.2279,2.2456,2.2485,2.2698,2.292,2.293,2.2967,2.3288,2.3697,2.3827,2.3827,2.3887,2.3847,2.4035,2.4482,2.4183,2.4142,2.4798,2.4686,2.4655,2.5204,2.5053,2.5176,2.5634,2.5371,2.5158,2.4964,2.4842,2.4672,2.4472,2.426,2.4176,2.9003,2.9372,2.9139,2.906,2.902,2.8965,2.8633,2.8011,2.7029,2.6489,2.6226,2.6098,2.5991,2.5946,2.5964,2.5893,2.5769,2.5445,2.5231,0.0,2.5021,2.4958,2.4896,2.5265,2.524,2.4849,2.4885,2.4868,2.486,2.4832,2.4843,2.4803,2.5192,2.5333,2.5224,2.5442,2.5451,2.5284,2.5228,2.5249,2.5192,2.4777,2.4562,2.4559,2.4197,2.3892,2.3734,2.353,2.3315,2.3328,2.3246,2.3176,2.3117,2.3364,2.3519,2.3453,2.3318,2.3509,2.3962,2.3738,2.3534,2.3286,2.3131,2.2841,2.2349,2.2328,2.2222,2.1975,2.2071,2.1855,2.1497,2.1482,2.1389,2.0994,2.0984,2.0947,2.0944,2.1053,2.1199,2.1215,2.1774,2.1986,2.1921,2.2168,2.2397,2.2435,2.2463,2.2536,2.2834,2.3046,2.335,2.3673,2.3791,2.3947,2.4124,2.3996,2.3969,2.4118,2.4038,2.4117,2.4917,2.4796,2.4866,2.5531,2.5289,2.5177,2.5435,2.4814,2.4625,2.4786,2.4616,2.4316,2.4105,2.391,2.389,2.941,2.9495,2.9592,2.9444,2.9174,2.8857,2.8381,2.7778,2.713,2.6745,2.6553,2.6508,2.6371,2.6197,2.6264,2.6218,2.6116,2.5945,2.5807,2.5645,2.5338,2.5172,2.5081,2.5373,2.5333,2.5066,2.5424,2.5506,2.5348,2.536,2.5295,2.5207,2.5204,2.5374,2.5565,2.555,2.5632,2.5864,2.5828,2.5717,2.5625,2.5414,2.5314,2.5303,2.5171,2.4926,2.4592,2.4513,2.4408,2.4138,2.403,2.403,2.3966,2.3944,2.3835,2.3685,2.3442,2.3397,2.3555,2.3656,2.3688,2.3624,2.3419,2.3177,2.2888,2.2791,2.2709,2.2489,2.2489,2.2335,2.1957,2.188,2.1645,2.1095,2.1282,2.1357,2.1135,2.1173,2.1253,2.1466,2.1788,2.1997,2.2129,2.2328,2.2264,2.2087,2.1998,2.2171,2.2438,2.2672,2.2945,2.3631,2.3784,2.3852,2.4025,2.3929,2.3881,2.4156,2.3919,2.4079,2.4584,2.4452,2.4565,2.5075,2.4996,2.5159,2.5609,2.5496,2.5169,2.4752,2.4891,2.4653,2.4104,2.3997,2.3919,2.9873,2.9807,2.9956,2.9827,2.9414,2.8919,2.8349,2.7839,2.7556,2.7237,2.7018,2.6958,2.676,2.6419,2.6674,2.6687,2.6488,2.6375,2.6233,2.605,2.5477,2.517,2.523,2.5404,2.5405,2.5303,2.5947,2.6158,2.581,2.5799,2.5699,2.5543,2.5228,2.5327,2.5979,2.5665,2.5771,2.6135,2.6157,2.6074,2.5895,2.5895,2.5895,2.5895,2.6052,2.5887,2.536,2.5403,2.5242,2.4935,2.4823,2.4768,2.4725,2.4426,2.4161,2.3798,2.346,2.3232,2.3286,2.3484,2.37,2.3784,2.3583,2.3369,2.3174,2.3106,2.3056,2.2824,2.2714,2.2567,2.2259,2.21,2.186,2.1406,2.1506,2.1543,2.1333,2.1268,2.1419,2.1787,2.1881,2.1926,2.2171,2.2176,2.1998,2.1741,2.1715,2.1869,2.1968,2.2283,2.2775,2.3354,2.3617,2.3672,2.3776,2.3748,2.3871,2.425,2.407,2.4023,2.4288,2.4089,2.4212,2.4718,2.4775,2.4958,2.5625,2.5663,2.5339,2.4756,2.4814,2.4818,2.4152,2.4108,2.4022,3.0263,3.0616,3.0271,3.0086,2.9936,2.9628,2.9199,2.8815,2.8383,2.7879,2.742,2.7384,2.7051,2.6726,2.7072,2.695,2.6612,2.6151,2.598,2.5853,2.5218,2.4861,2.4908,2.529,2.5419,2.5389,2.6012,2.6265,2.612,2.6041,2.6037,2.608,2.5828,2.599,2.6427,2.6483,2.6351,2.6146,2.6157,2.6074,2.5895,2.5895,2.5895,2.5895,2.5906,2.5884,2.5797,2.5404,2.5315,2.5352,2.5271,2.5062,2.4768,2.4963,2.4766,2.4104,2.4029,2.4031,2.4132,2.4263,2.422,2.394,2.3638,2.3298,2.2951,2.3031,2.3134,2.291,2.2646,2.2462,2.2237,2.2053,2.1807,2.1569,2.1303,2.1081,2.1598,2.1588,2.1652,2.224,2.1906,2.1704,2.1722,2.1651,2.1482,2.1392,2.169,2.1889,2.1787,2.2179,2.2804,2.3076,2.3205,2.3466,2.3919,2.3928,2.3909,2.4183,2.4316,2.423,2.4305,2.4513,2.4827,2.4704,2.4827,2.4954,2.4906,2.4773,2.4507,2.445,2.445,2.4307,2.3972,2.3932,2.3886,3.044,3.0642,3.0294,2.9865,2.9477,2.9008,2.8753,2.8624,2.8327,2.7987,2.7682,2.7432,2.7181,2.6863,2.6782,2.6701,2.6508,2.5955,2.5758,2.5712,2.5577,2.5431,2.5283,2.6091,2.6318,2.6031,2.6586,2.6772,2.6725,2.6655,2.6442,2.6196,2.6113,2.6124,2.6218,2.6146,2.6146,2.5979,2.599,2.5979,2.5895,2.5895,2.5812,2.5738,2.5812,2.5822,2.5717,2.5616,2.5672,2.5766,2.5683,2.5502,2.5387,2.5126,2.4832,2.4546,2.4127,2.403,2.4333,2.4472,2.443,2.425,2.4186,2.3924,2.3422,2.3383,2.3328,2.3233,2.2992,2.2925,2.2758,2.2665,2.2498,2.2201,2.2035,2.1996,2.1983,2.1748,2.1743,2.1891,2.1642,2.1472,2.1472,2.1203,2.1024,2.1024,2.1274,2.1369,2.1388,2.1844,2.2272,2.2673,2.2793,2.3183,2.3975,2.4087,2.4031,2.4133,2.4198,2.4198,2.4315,2.43,2.4529,2.4627,2.4627,2.4637,2.4618,2.472,2.4541,2.4294,2.3864,2.3795,2.3733,2.3797,2.3904,3.0582,3.0476,3.0283,2.9855,2.9361,2.9111,2.8917,2.8665,2.8478,2.8242,2.7953,2.7582,2.7232,2.6955,2.6502,2.6289,2.6176,2.5893,2.5683,2.56,2.5862,2.5816,2.5686,2.638,2.6744,2.6622,2.6955,2.7126,2.6974,2.6727,2.6479,2.6157,2.6157,2.6074,2.5906,2.5895,2.5895,2.5895,2.5895,2.5895,2.5895,2.5895,2.5812,2.5728,2.5728,2.5728,2.5654,2.5738,2.5812,2.5812,2.5906,2.5895,2.5884,2.5297,2.4938,2.4823,2.4228,2.4103,2.4451,2.4388,2.4357,2.4488,2.4368,2.4196,2.3841,2.359,2.3503,2.3367,2.3292,2.3198,2.3198,2.3113,2.2952,2.2629,2.264,2.2451,2.2176,2.1919,2.1731,2.1741,2.1689,2.1427,2.1416,2.1094,2.0937,2.0928,2.0911,2.0845,2.1112,2.1421,2.1825,2.2274,2.2449,2.2952,2.377,2.3895,2.4005,2.4152,2.4223,2.4214,2.4161,2.4152,2.4242,2.444,2.4341,2.4332,2.4242,2.4402,2.4375,2.3929,2.3624,2.3492,2.3628,2.3628,2.3637,3.0507,3.0352,3.0411,3.0238,2.9983,3.0455,3.031,2.9555,2.9245,2.8815,2.8375,2.7949,2.7516,2.7018,2.6487,2.605,2.5761,2.5997,2.5935,2.5616,2.5733,2.5758,2.5704,2.6037,2.6313,2.6554,2.6978,2.6951,2.6528,2.6135,2.5895,2.5895,2.5895,2.5895,2.5895,2.5895,2.5895,2.5895,2.5895,2.5895,2.5895,2.5895,2.5906,2.5895,2.5728,2.5644,2.557,2.5559,2.5654,2.5644,2.5822,2.5906,2.5895,2.5611,2.5326,2.4893,2.4457,2.4286,2.4382,2.4125,2.4059,2.4368,2.41,2.3841,2.3754,2.358,2.3406,2.3135,2.3086,2.3066,2.3066,2.295,2.2892,2.2736,2.2432,2.2293,2.2381,2.2011,2.1839,2.194,2.1889,2.168,2.1432,2.1362,2.1268,2.1242,2.119,2.1232,2.1066,2.1379,2.1743,2.2037,2.2451,2.2859,2.339,2.366,2.3779,2.4015,2.4161,2.4161,2.4161,2.4161,2.4251,2.4152,2.4053,2.3954,2.3854,2.3746,2.3637,2.3448,2.343,2.3411,2.312,2.3338,2.3347,3.0021,2.9707,2.9928,2.9786,2.9523,2.9875,2.9728,2.9248,2.8951,2.8797,2.861,2.8199,2.7817,2.7405,2.6858,2.636,2.5985,2.6234,2.6249,2.6083,2.6256,2.6332,2.6378,2.6702,2.6783,2.6805,2.7035,2.6962,2.6622,2.6385,2.6146,2.5906,2.5738,2.5728,2.5728,2.5728,2.5738,2.5738,2.5822,2.5895,2.5917,2.5895,2.5895,2.5895,2.5738,2.5559,2.5369,2.5295,2.538,2.5295,2.5559,2.5644,2.5464,2.5295,2.5041,2.4711,2.4454,2.4454,2.4454,2.4378,2.4186,2.4013,2.3927,2.3667,2.3396,2.3319,2.3144,2.2969,2.2882,2.2882,2.2706,2.2872,2.2969,2.2744,2.2579,2.2351,2.2344,2.2052,2.1946,2.2075,2.1834,2.1397,2.107,2.0878,2.0833,2.0649,2.0687,2.0937,2.1145,2.1293,2.1517,2.2028,2.2329,2.2728,2.3026,2.3341,2.3502,2.3773,2.3954,2.4053,2.4053,2.4152,2.4152,2.3845,2.3755,2.3546,2.3347,2.3247,2.3046,2.2837,2.2937,2.2837,2.2434,2.2636,2.2837,2.996,2.9628,2.998,2.9902,2.9558,2.9834,2.9725,2.9361,2.9142,2.9062,2.9,2.865,2.8248,2.7835,2.75,2.6988,2.6506,2.6652,2.6641,2.6368,2.6688,2.6851,2.6909,2.7036,2.6951,2.6798,2.6738,2.6561,2.6313,2.6313,2.6229,2.5906,2.5728,2.557,2.557,2.5559,2.5518,2.5647,2.5814,2.5877,2.5997,2.5983,2.5895,2.5895,2.5644,2.5464,2.5295,2.5285,2.52,2.52,2.538,2.5295,2.5031,2.4817,2.456,2.4378,2.4282,2.4282,2.4368,2.4282,2.4024,2.3841,2.3667,2.3396,2.3144,2.3047,2.2882,2.2706,2.2618,2.2441,2.2353,2.253,2.2618,2.2568,2.2429,2.2226,2.2053,2.1913,2.1719,2.1517,2.1277,2.0906,2.0679,2.0685,2.0662,2.0523,2.0663,2.0818,2.1121,2.1295,2.1336,2.1769,2.1996,2.2291,2.2374,2.2558,2.3067,2.3429,2.3555,2.3755,2.3746,2.3845,2.3845,2.3546,2.3338,2.3138,2.2946,2.2745,2.2544,2.2333,2.2333,2.2232,2.2131,2.203,2.2232,3.0229,3.0055,3.08,3.0784,3.0336,3.0655,3.0683,3.024,3.0037,2.9693,2.9307,2.911,2.866,2.813,2.8071,2.7755,2.7117,2.7093,2.6869,2.6599,2.6921,2.7139,2.7092,2.6951,2.6798,2.6539,2.6135,2.5906,2.5738,2.5895,2.5979,2.5895,2.5728,2.557,2.557,2.5391,2.5424,2.5733,2.5797,2.5829,2.6141,2.6095,2.5972,2.5866,2.5486,2.538,2.5559,2.5285,2.5115,2.5115,2.52,2.4956,2.455,2.4385,2.4222,2.4278,2.3988,2.3988,2.4181,2.3961,2.3817,2.3817,2.3475,2.3379,2.3232,2.2988,2.2773,2.2428,2.2204,2.2097,2.1998,2.1909,2.1909,2.2017,2.1922,2.1707,2.15,2.1491,2.1245,2.0857,2.0659,2.0583,2.0753,2.0759,2.0832,2.0901,2.0937,2.0883,2.1135,2.1245,2.1293,2.131,2.1623,2.1818,2.1827,2.1827,2.2434,2.2937,2.3147,2.3247,2.3238,2.3238,2.3238,2.3029,2.2728,2.2426,2.2333,2.2131,2.203,2.1928,2.1827,2.1827,2.1725,2.1623,2.1725,3.0099,3.0405,3.071,3.0533,3.0103,3.0602,3.0368,2.9741,2.9664,2.9431,2.9197,2.9143,2.8797,2.8476,2.8359,2.7924,2.7209,2.729,2.7221,2.7013,2.6976,2.6962,2.6891,2.6561,2.6479,2.6467,2.6229,2.6074,2.599,2.6074,2.6074,2.5895,2.5728,2.557,2.557,2.538,2.5519,2.6097,2.6119,2.639,2.6813,2.6551,2.6398,2.6365,2.5827,2.5464,2.5285,2.4956,2.4711,2.4711,2.4711,2.4625,2.4354,2.4348,2.4422,2.4442,2.4595,2.4746,2.4746,2.4646,2.4536,2.4466,2.4285,2.4114,2.3702,2.3281,2.2768,2.236,2.1915,2.1562,2.1365,2.1266,2.1374,2.1571,2.1436,2.1287,2.102,2.0967,2.083,2.0774,2.0702,2.0671,2.054,2.0659,2.0764,2.0724,2.0782,2.0917,2.1019,2.1019,2.1019,2.1019,2.1216,2.142,2.142,2.142,2.1725,2.2232,2.2333,2.2544,2.2434,2.2535,2.2526,2.2426,2.2123,2.192,2.1717,2.1725,2.1623,2.1623,2.1632,2.1428,2.1224,2.1224,2.1428,3.0011,3.0225,3.0677,3.0498,3.0093,3.0329,2.9985,2.9419,2.9353,2.9197,2.9052,2.8961,2.8736,2.8431,2.8179,2.7765,2.7255,2.7278,2.7208,2.6985,2.6974,2.6891,2.6738,2.6313,2.6146,2.6229,2.6074,2.5979,2.5979,2.6074,2.5979,2.5906,2.5738,2.557,2.557,2.5391,2.5498,2.6033,2.6098,2.6271,2.6574,2.6444,2.6195,2.6194,2.5797,2.5658,2.5562,2.5194,2.4954,2.4753,2.4763,2.4671,2.4432,2.4456,2.4486,2.4606,2.4705,2.4864,2.4975,2.4834,2.469,2.4506,2.4424,2.4132,2.3629,2.3079,2.2611,2.2282,2.1944,2.1509,2.1318,2.1037,2.0984,2.0843,2.0846,2.0735,2.0509,2.0201,2.0202,2.0205,2.0249,2.0313,2.0408,2.0369,2.0617,2.0623,2.068,2.0822,2.0822,2.0925,2.0925,2.0925,2.1027,2.1121,2.1113,2.1113,2.1113,2.1318,2.1522,2.1623,2.1623,2.1733,2.1725,2.1827,2.1623,2.1615,2.142,2.1522,2.153,2.1428,2.1326,2.1224,2.1027,2.1019,2.1121,3.0073,2.9755,3.059,3.0709,3.0317,2.9998,2.9689,2.9353,2.9197,2.8961,2.8803,2.8712,2.8566,2.8167,2.7857,2.7522,2.7196,2.7115,2.688,2.6727,2.6809,2.6809,2.6479,2.6157,2.5979,2.5895,2.5728,2.5644,2.5738,2.5906,2.5895,2.5895,2.5738,2.5654,2.5581,2.5401,2.5552,2.5883,2.5851,2.6002,2.616,2.5964,2.5805,2.5883,2.5796,2.5858,2.6009,2.5894,2.5658,2.5228,2.519,2.4976,2.4764,2.4522,2.4643,2.4822,2.4565,2.4756,2.4809,2.4643,2.4419,2.4233,2.4047,2.3466,2.3083,2.2871,2.2557,2.2446,2.2059,2.1821,2.1534,2.1154,2.072,2.0129,2.0103,1.9995,1.9596,1.9369,1.9528,1.9652,1.9495,1.9668,2.0205,2.0139,2.0327,2.0594,2.0593,2.0712,2.0719,2.0822,2.0822,2.0925,2.0822,2.0814,2.0806,2.0704,2.0704,2.0609,2.0806,2.0806,2.0917,2.1019,2.1019,2.1011,2.1113,2.1113,2.1113,2.1113,2.1121,2.1019,2.0917,2.0925,2.0917,2.0917,2.1019,3.0703,3.1057,3.0869,3.0533,3.0152,2.9946,2.9468,2.904,2.8882,2.8724,2.8566,2.8419,2.8327,2.8167,2.7869,2.7615,2.7278,2.7278,2.7044,2.6727,2.6809,2.6561,2.6229,2.6157,2.6063,2.5895,2.5895,2.5812,2.5822,2.5895,2.5906,2.5895,2.5866,2.5844,2.5844,2.5904,2.6087,2.6248,2.667,2.6772,2.6854,2.6806,2.6838,2.6785,2.6262,2.6078,2.602,2.6042,2.5809,2.53,2.5206,2.4997,2.4638,2.4805,2.4962,2.4996,2.5185,2.5361,2.5293,2.4964,2.461,2.4506,2.4222,2.4013,2.3634,2.3416,2.3035,2.2703,2.2221,2.1648,2.1268,2.106,2.0598,1.9915,1.9685,1.9428,1.9176,1.9167,1.9272,1.9178,1.9536,1.9782,1.9899,2.0116,2.0279,2.0364,2.0403,2.0514,2.0617,2.0617,2.0617,2.0624,2.0617,2.0506,2.0395,2.0292,2.0189,1.999,2.0094,2.0197,2.0189,2.0395,2.0395,2.0395,2.0601,2.0601,2.0498,2.0395,2.0403,2.0609,2.0617,2.0617,2.0814,2.0917,2.0925,3.0526,3.0607,3.0581,3.0292,2.9831,2.9611,2.9209,2.8803,2.8645,2.8486,2.8339,2.8191,2.8018,2.7846,2.7696,2.7371,2.7115,2.7126,2.6962,2.6761,2.7024,2.6835,2.6368,2.6313,2.6324,2.6146,2.6074,2.5979,2.599,2.599,2.6005,2.619,2.6212,2.6212,2.616,2.6281,2.6281,2.6299,2.6605,2.6695,2.6708,2.6668,2.6708,2.6626,2.6266,2.6043,2.628,2.662,2.6361,2.5756,2.5573,2.5571,2.5233,2.5232,2.5293,2.5256,2.5412,2.546,2.5112,2.4861,2.4593,2.4298,2.4202,2.396,2.3478,2.3286,2.3175,2.2806,2.2408,2.1943,2.1434,2.1042,2.0465,1.987,1.9573,1.9389,1.909,1.9241,1.9407,1.9482,1.9727,1.9969,1.9773,2.0192,2.0158,2.0189,2.0189,2.03,2.03,2.03,2.0308,2.0308,2.0308,2.0189,2.0086,1.9983,1.9879,1.968,1.9583,1.9576,1.9783,1.9879,1.9983,1.9983,2.0086,2.0086,2.0086,2.0086,2.0189,2.03,2.0308,2.0411,2.0609,2.0712,2.0712,2.9969,2.9339,3.0075,2.9973,2.9509,2.9209,2.8973,2.8724,2.8419,2.8259,2.8111,2.7962,2.7859,2.7603,2.7544,2.7264,2.7178,2.7096,2.6922,2.7081,2.7402,2.7431,2.7076,2.6981,2.6886,2.678,2.6501,2.6462,2.6561,2.6326,2.6395,2.6573,2.6649,2.653,2.6379,2.6357,2.6216,2.601,2.604,2.5951,2.5889,2.5972,2.6044,2.6054,2.6155,2.6222,2.6686,2.7115,2.694,2.5913,2.6275,2.624,2.6021,2.5771,2.5489,2.5179,2.516,2.488,2.4468,2.4619,2.435,2.3699,2.3994,2.3892,2.303,2.297,2.3071,2.2796,2.2682,2.2299,2.1807,2.0876,2.0329,1.9948,1.99,1.9765,1.9566,1.9479,1.9628,1.9891,1.9907,2.0007,1.9972,2.0086,2.0086,1.9879,1.999,2.0094,1.999,1.999,1.999,2.0086,1.9983,1.9879,1.9879,1.9776,1.968,1.9576,1.9376,1.9272,1.948,1.9576,1.9576,1.968,1.9783,1.9776,1.9879,1.9879,1.9983,2.0086,2.0094,2.0197,2.0403,2.0403,2.0403,3.005,2.9897,2.9871,2.9856,2.9702,2.93,2.8895,2.859,2.851,2.8271,2.8042,2.7893,2.7953,2.8126,2.7983,2.8107,2.8411,2.7989,2.7733,2.7801,2.8225,2.8397,2.8208,2.8037,2.7865,2.7723,2.7682,2.7584,2.7551,2.7159,2.7315,2.725,2.6585,2.6368,2.6368,2.613,2.5689,2.5402,2.568,2.5632,2.5421,2.5675,2.5825,2.5815,2.6303,2.6557,2.6562,2.689,2.6839,2.6481,2.6431,2.629,2.5818,2.5264,2.4946,2.4881,2.4708,2.4449,2.4277,2.4131,2.3901,2.3428,2.3363,2.3214,2.2832,2.3037,2.3134,2.2915,2.2707,2.2163,2.1552,2.1038,2.0535,2.0145,1.9983,1.986,1.9706,1.9766,1.9828,1.9706,1.9725,1.9701,1.9569,1.9783,1.968,1.9576,1.9576,1.9783,1.968,1.9576,1.9569,1.9569,1.9457,1.9354,1.9361,1.9368,1.9376,1.9272,1.9168,1.8959,1.9168,1.9272,1.9264,1.9376,1.9376,1.9472,1.9576,1.9576,1.9583,1.968,1.9776,1.9879,1.999,2.0094,2.0094,3.0139,2.9946,2.9869,2.9714,2.9456,2.9131,2.8803,2.8657,2.8419,2.8191,2.7951,2.8046,2.8139,2.8324,2.8483,2.8761,2.9048,2.8727,2.828,2.8207,2.8677,2.9056,2.916,2.9118,2.8896,2.8184,2.7657,2.7527,2.7346,2.7081,2.6779,2.6998,2.64,2.6108,2.6162,2.6038,2.5897,2.5616,2.5795,2.5828,2.5621,2.5759,2.5714,2.5763,2.6184,2.641,2.6014,2.6304,2.6304,2.6071,2.6078,2.5962,2.5664,2.5102,2.4785,2.4562,2.4503,2.4091,2.3823,2.3791,2.3472,2.2724,2.2797,2.2672,2.2403,2.2503,2.2593,2.2426,2.2123,2.1827,2.1326,2.0917,2.0491,2.0311,2.0132,2.003,1.9905,1.9806,1.979,1.9702,1.9671,1.9539,1.948,1.948,1.948,1.9376,1.9576,1.968,1.9279,1.9175,1.9063,1.8952,1.884,1.8736,1.8848,1.8855,1.8966,1.8966,1.8966,1.875,1.8743,1.8848,1.8952,1.9063,1.9272,1.9279,1.9279,1.9175,1.9175,1.9175,1.9272,1.9368,1.9472,1.9591,1.948,3.0062,2.9702,2.9702,2.9468,2.9131,2.8882,2.8724,2.8645,2.8339,2.803,2.7906,2.8186,2.8396,2.8521,2.906,2.9308,2.9347,2.9269,2.89,2.8344,2.8847,2.9158,2.934,2.933,2.9046,2.806,2.7793,2.742,2.7133,2.6455,2.6715,2.6574,2.616,2.6104,2.6059,2.6015,2.593,2.5747,2.5696,2.5762,2.5704,2.5823,2.5633,2.5479,2.5771,2.581,2.5518,2.5616,2.5713,2.5226,2.5324,2.5412,2.5382,2.503,2.4698,2.4436,2.4245,2.3901,2.3472,2.3341,2.3135,2.1908,2.2313,2.2347,2.1928,2.1912,2.1954,2.1818,2.1632,2.1538,2.1224,2.0814,2.0514,2.0277,2.0078,1.9983,1.9826,1.9528,1.9353,1.9686,1.9546,1.9264,1.9272,1.9264,1.9264,1.9272,1.9368,1.9368,1.8966,1.8764,1.8548,1.8325,1.8213,1.8101,1.8318,1.8674,1.8681,1.8597,1.8583,1.8562,1.8443,1.8422,1.8534,1.8959,1.9071,1.9071,1.8966,1.8959,1.8862,1.8869,1.8862,1.8952,1.8966,1.9092,1.9009,2.9496,2.9443,2.9287,2.9287,2.9263,2.8803,2.8498,2.8259,2.8111,2.7719,2.7545,2.8268,2.8712,2.9013,2.9722,2.9785,2.9476,2.9467,2.9207,2.8539,2.8688,2.8802,2.9148,2.8832,2.8499,2.8522,2.8386,2.8384,2.8031,2.7624,2.7173,2.7366,2.6726,2.6188,2.6099,2.5885,2.5766,2.5644,2.5492,2.5302,2.5327,2.5281,2.5343,2.5197,2.5509,2.5411,2.503,2.503,2.4932,2.4627,2.451,2.4402,2.4313,2.4214,2.4085,2.4008,2.366,2.3331,2.309,2.3008,2.2841,2.249,2.2257,2.2114,2.1752,2.1667,2.1591,2.1514,2.1326,2.113,2.0719,2.0411,2.0101,1.9687,1.9368,1.916,1.8826,1.8575,1.874,1.9242,1.9168,1.8966,1.8855,1.8743,1.8632,1.8632,1.8632,1.8632,1.8331,1.8128,1.8016,1.7799,1.7483,1.7582,1.7687,1.8156,1.8408,1.8358,1.8245,1.8204,1.8071,1.7911,1.8003,1.8331,1.8646,1.8646,1.8646,1.8639,1.8541,1.8548,1.8541,1.8429,1.845,1.8492,1.8681,2.9611,2.9611,2.9221,2.9131,2.9118,2.8736,2.8431,2.8339,2.8271,2.8042,2.8022,2.8492,2.8857,2.9101,2.9793,2.9804,2.9323,2.9491,2.9171,2.8483,2.8433,2.8652,2.8991,2.8565,2.8244,2.8181,2.8387,2.8455,2.8233,2.7613,2.7401,2.7076,2.661,2.6256,2.6139,2.5961,2.586,2.5818,2.5598,2.5436,2.5352,2.5322,2.515,2.4954,2.503,2.4824,2.4637,2.4538,2.4341,2.4134,2.4007,2.3809,2.352,2.3429,2.3565,2.3681,2.3439,2.3054,2.2857,2.265,2.2509,2.192,2.1725,2.1522,2.1318,2.1097,2.0987,2.0688,2.0593,2.0189,1.9672,1.9569,1.916,1.8743,1.8534,1.8318,1.8003,1.7898,1.8213,1.8632,1.8318,1.822,1.8331,1.822,1.8003,1.8003,1.7996,1.7793,1.7595,1.7595,1.749,1.7298,1.7112,1.7216,1.731,1.7643,1.7955,1.7882,1.7882,1.7736,1.7742,1.7496,1.753,1.7701,1.8016,1.8275,1.8325,1.8429,1.8325,1.8128,1.8037,1.7945,1.7847,1.7914,1.8158,2.9792,2.9689,2.9221,2.9052,2.8973,2.859,2.8431,2.8431,2.8351,2.8271,2.8262,2.8632,2.8811,2.9022,2.9585,2.9788,2.8994,2.9408,2.8942,2.8354,2.821,2.847,2.8729,2.8702,2.8354,2.8034,2.8163,2.7938,2.7721,2.7314,2.7025,2.6918,2.6615,2.6302,2.6134,2.6321,2.6382,2.6263,2.6149,2.6061,2.58,2.5528,2.5039,2.4529,2.444,2.4332,2.4143,2.3945,2.3836,2.3637,2.352,2.3203,2.2937,2.278,2.299,2.3356,2.3247,2.2837,2.2526,2.2106,2.1827,2.1224,2.1113,2.0909,2.0806,2.0483,2.0261,1.9761,1.9665,1.9465,1.8945,1.8632,1.8318,1.7891,1.7575,1.7371,1.7364,1.7265,1.7265,1.7371,1.7265,1.7483,1.7701,1.7582,1.7364,1.7364,1.7364,1.7265,1.7067,1.7166,1.7067,1.69,1.6763,1.6825,1.6978,1.7175,1.7244,1.7193,1.7173,1.7242,1.7173,1.7092,1.7135,1.7297,1.7529,1.7769,1.8,1.8044,1.7761,1.7576,1.7569,1.7549,1.76,1.7751,1.7948,2.9689,2.9419,2.9028,2.8803,2.8724,2.8283,2.8122,2.8259,2.8122,2.7973,2.8137,2.8492,2.8751,2.8998,2.9738,2.9916,2.9653,2.9212,2.8868,2.8422,2.8094,2.8115,2.8434,2.8186,2.8247,2.8107,2.8244,2.8131,2.7731,2.7162,2.6971,2.7136,2.7038,2.6773,2.663,2.6785,2.6989,2.6819,2.636,2.5897,2.5528,2.5333,2.5039,2.4637,2.4233,2.4044,2.3854,2.3546,2.3247,2.3046,2.2797,2.2586,2.2451,2.2291,2.2181,2.2249,2.2224,2.2123,2.1818,2.1522,2.1121,2.0712,2.0498,2.0292,2.0189,1.999,1.9791,1.9732,1.9398,1.8952,1.8422,1.8318,1.801,1.7483,1.6955,1.6842,1.673,1.663,1.653,1.663,1.663,1.6849,1.7067,1.6955,1.6836,1.6836,1.673,1.6636,1.6537,1.653,1.6606,1.6347,1.6396,1.6441,1.6484,1.6698,1.6654,1.6562,1.6584,1.6655,1.6596,1.6537,1.6786,1.6965,1.7086,1.7169,1.7313,1.7268,1.7034,1.7186,1.7257,1.7348,1.7467,1.7601,1.7652,2.9509,2.9341,2.8791,2.8657,2.8578,2.8179,2.8111,2.8179,2.8283,2.8369,2.8712,2.8939,2.9201,2.9503,2.9794,2.9558,2.9215,2.8947,2.8578,2.833,2.8011,2.7953,2.8204,2.8008,2.7914,2.8196,2.8186,2.8204,2.7914,2.7899,2.7899,2.7615,2.7586,2.7327,2.7004,2.7063,2.6965,2.6784,2.64,2.581,2.543,2.5137,2.4932,2.4538,2.4143,2.3845,2.3655,2.3247,2.2946,2.2745,2.2376,2.208,2.1852,2.1673,2.1587,2.1428,2.1224,2.1224,2.1232,2.1027,2.0712,2.0403,2.0086,1.9983,1.968,1.948,1.9078,1.8485,1.845,1.8003,1.7477,1.7272,1.6849,1.643,1.6217,1.6217,1.6105,1.5897,1.5797,1.5998,1.6099,1.6324,1.6436,1.6318,1.6205,1.6105,1.6099,1.5992,1.5891,1.5791,1.5791,1.5825,1.5867,1.6041,1.6091,1.6069,1.6174,1.6085,1.5811,1.5896,1.6029,1.6065,1.6326,1.6282,1.6208,1.638,1.663,1.6804,1.6997,1.7085,1.7076,1.7271,1.7335,1.7067,1.7147,2.9263,2.9184,2.8657,2.8431,2.8443,2.8322,2.8381,2.8474,2.8802,2.9148,2.9412,2.9474,2.9713,3.002,2.9758,2.9395,2.9173,2.8756,2.8484,2.8222,2.8071,2.8164,2.8204,2.8008,2.7914,2.8092,2.8196,2.8161,2.8211,2.8358,2.8287,2.8102,2.7934,2.7778,2.7431,2.7262,2.7071,2.6602,2.6197,2.5616,2.5128,2.4833,2.4538,2.4251,2.3954,2.3655,2.3555,2.3046,2.2636,2.2434,2.2038,2.175,2.1436,2.1248,2.1059,2.0822,2.0617,2.0403,2.0506,2.0403,2.0292,1.9983,1.9665,1.9361,1.9056,1.8959,1.866,1.7649,1.7503,1.706,1.6424,1.6324,1.6004,1.5684,1.5369,1.5374,1.5482,1.5476,1.5583,1.5785,1.5891,1.569,1.5797,1.5684,1.5577,1.547,1.5363,1.5357,1.5357,1.5256,1.5319,1.5332,1.5453,1.5625,1.558,1.5606,1.5546,1.5535,1.537,1.5424,1.5534,1.5713,1.5899,1.5747,1.562,1.5821,1.6216,1.6587,1.6869,1.7049,1.7092,1.7159,1.712,1.6857,1.6804,2.887,2.8791,2.8407,2.8179,2.8295,2.8562,2.8728,2.8809,2.957,2.9821,2.9786,2.9785,2.9853,2.9945,2.9669,2.9543,2.9692,2.9257,2.8925,2.874,2.8702,2.8495,2.8384,2.829,2.8164,2.8226,2.8046,2.7925,2.7931,2.8043,2.8287,2.8301,2.7977,2.7799,2.7536,2.7167,2.6774,2.6294,2.58,2.5304,2.4824,2.443,2.4134,2.3845,2.3447,2.3046,2.3055,2.2544,2.2232,2.2123,2.1632,2.1326,2.113,2.0822,2.0624,2.0411,2.0101,1.9783,1.968,1.968,1.948,1.9071,1.875,1.852,1.8206,1.7891,1.7496,1.7212,1.6861,1.653,1.6105,1.5891,1.5577,1.5256,1.5041,1.5154,1.5154,1.5148,1.5363,1.5678,1.5684,1.5476,1.5369,1.5256,1.525,1.5143,1.4826,1.4821,1.4928,1.4934,1.4934,1.4979,1.4973,1.5058,1.5009,1.4988,1.5027,1.5038,1.495,1.5175,1.5331,1.5421,1.544,1.5614,1.5602,1.5801,1.5909,1.6243,1.6619,1.6978,1.708,1.6996,1.7056,1.6854,1.6907,2.8247,2.7995,2.7846,2.7926,2.8191,2.8174,2.8256,2.8373,2.8644,2.8917,2.9332,2.9437,2.9515,2.9502,2.9378,2.9205,2.9184,2.9028,2.8899,2.8757,2.8664,2.8477,2.829,2.7996,2.7723,2.7708,2.7466,2.7243,2.7168,2.7466,2.7448,2.744,2.7589,2.7526,2.7262,2.6774,2.6187,2.581,2.5411,2.502,2.4833,2.4332,2.4035,2.3935,2.3338,2.2946,2.2644,2.2333,2.1928,2.1623,2.1224,2.1019,2.0806,2.0395,2.0197,1.999,1.9569,1.9264,1.9049,1.9042,1.8848,1.8436,1.822,1.7898,1.747,1.7265,1.6849,1.6537,1.6217,1.5779,1.5464,1.5357,1.5143,1.4928,1.4821,1.4826,1.4934,1.4821,1.5035,1.5357,1.525,1.5148,1.4928,1.4821,1.4815,1.4708,1.4498,1.4288,1.4396,1.4498,1.4498,1.4498,1.4504,1.4581,1.4642,1.4543,1.4532,1.4576,1.4597,1.4773,1.4988,1.5082,1.5106,1.5412,1.5599,1.5754,1.5892,1.6031,1.6385,1.6709,1.6785,1.6768,1.6727,1.6779,1.6785,2.7938,2.7603,2.751,2.7684,2.795,2.8022,2.8023,2.8046,2.8328,2.8516,2.8904,2.9256,2.9429,2.9369,2.9286,2.9262,2.9093,2.8973,2.8817,2.8609,2.8337,2.8118,2.7868,2.7461,2.7167,2.707,2.6802,2.6655,2.6694,2.6846,2.6775,2.6796,2.6993,2.703,2.688,2.6091,2.5509,2.5226,2.4932,2.4745,2.4646,2.4143,2.3737,2.3637,2.3038,2.2535,2.2232,2.1827,2.1522,2.1224,2.0814,2.0498,2.0285,1.9975,1.9776,1.9361,1.9049,1.8736,1.852,1.8415,1.8318,1.801,1.749,1.7279,1.6855,1.6524,1.6099,1.5785,1.5464,1.525,1.4928,1.4928,1.4713,1.4396,1.4504,1.4617,1.4606,1.46,1.4713,1.4928,1.4713,1.4498,1.439,1.418,1.4175,1.4175,1.3959,1.3856,1.3856,1.3959,1.3959,1.3959,1.4067,1.4065,1.4176,1.4125,1.4219,1.4451,1.4456,1.4398,1.4579,1.4669,1.4879,1.5039,1.5338,1.5537,1.5795,1.5836,1.6132,1.6553,1.6529,1.6509,1.6408,1.6436,1.6554,2.7893,2.7881,2.7615,2.7522,2.7569,2.8033,2.8208,2.8232,2.8808,2.9115,2.9042,2.9195,2.9562,2.9741,2.942,2.9385,2.933,2.9039,2.8664,2.8505,2.8207,2.7672,2.7268,2.701,2.6896,2.6949,2.6691,2.6444,2.6526,2.6588,2.6337,2.6138,2.634,2.6592,2.6764,2.6071,2.5392,2.4922,2.4637,2.444,2.4143,2.3646,2.3347,2.3029,2.2426,2.203,2.1725,2.1326,2.1019,2.0806,2.0292,1.9968,1.9716,1.9457,1.9042,1.8708,1.8094,1.7793,1.7582,1.7582,1.7477,1.7371,1.6849,1.6424,1.5992,1.5672,1.5458,1.5137,1.4928,1.4821,1.4713,1.4493,1.418,1.4072,1.4186,1.4186,1.4175,1.4283,1.439,1.4175,1.3959,1.3748,1.364,1.3537,1.3537,1.3537,1.3423,1.3423,1.3418,1.3418,1.3527,1.3563,1.3676,1.3754,1.3868,1.3765,1.3908,1.4162,1.4395,1.4328,1.4432,1.451,1.4719,1.4808,1.4933,1.5219,1.5359,1.5585,1.5762,1.5836,1.6351,1.6419,1.62,1.6087,1.62,2.7149,2.6809,2.7126,2.7219,2.7149,2.7474,2.7625,2.7801,2.8034,2.8045,2.8055,2.8286,2.853,2.8694,2.9018,2.9038,2.9048,2.9073,2.8664,2.8609,2.8196,2.7993,2.7533,2.7041,2.6844,2.662,2.6403,2.6085,2.5818,2.6017,2.5899,2.566,2.5612,2.5693,2.5518,2.5034,2.4319,2.4187,2.4044,2.3945,2.3637,2.3138,2.2736,2.2619,2.192,2.142,2.1121,2.0719,2.0506,2.0292,1.9776,1.945,1.9117,1.8743,1.822,1.7891,1.7384,1.7272,1.6948,1.6736,1.6424,1.6318,1.6211,1.5785,1.5357,1.5035,1.4821,1.4713,1.439,1.418,1.3964,1.3851,1.3532,1.364,1.3645,1.3645,1.3748,1.3856,1.3856,1.3532,1.3207,1.3098,1.3098,1.2989,1.2989,1.2989,1.2881,1.2989,1.2985,1.3098,1.3103,1.3272,1.3312,1.3472,1.3553,1.3573,1.3615,1.3944,1.4245,1.4443,1.4453,1.4351,1.4524,1.4601,1.4687,1.4764,1.4883,1.5002,1.5002,1.5235,1.5596,1.5828,1.5601,1.5601,1.5726,2.6727,2.6407,2.6891,2.6985,2.6809,2.6985,2.7126,2.729,2.729,2.7208,2.7311,2.7515,2.7893,2.8111,2.8327,2.8746,2.88,2.8767,2.8364,2.8332,2.7931,2.7423,2.7041,2.6857,2.6341,2.6126,2.5916,2.5678,2.5623,2.5496,2.5494,2.5352,2.491,2.4735,2.456,2.424,2.3855,2.3781,2.3628,2.3304,2.3085,2.2745,2.2333,2.192,2.1412,2.0806,2.0506,2.0197,1.9879,1.9561,1.9153,1.8743,1.8318,1.801,1.7496,1.708,1.6643,1.6424,1.6099,1.5891,1.5571,1.5351,1.5351,1.525,1.4821,1.4498,1.4396,1.418,1.3748,1.3532,1.3423,1.3207,1.3207,1.3207,1.3207,1.3207,1.3098,1.3207,1.3207,1.2772,1.2555,1.255,1.2441,1.2441,1.2332,1.2332,1.2332,1.2441,1.2659,1.2772,1.2772,1.2821,1.2993,1.3142,1.3246,1.3287,1.3448,1.3734,1.4018,1.4187,1.4272,1.4158,1.4331,1.4366,1.4391,1.4411,1.4411,1.4411,1.4406,1.4406,1.4764,1.4883,1.4883,1.5121,1.5245,2.6644,2.6644,2.6809,2.6809,2.6644,2.6809,2.6891,2.6891,2.6891,2.7056,2.7149,2.7053,2.7447,2.8098,2.8105,2.8299,2.8605,2.8631,2.8055,2.7468,2.711,2.6567,2.6183,2.5859,2.5952,2.5714,2.5501,2.548,2.5476,2.5156,2.5093,2.4957,2.4049,2.3966,2.3938,2.3724,2.3501,2.3332,2.3044,2.2789,2.2526,2.2249,2.1733,2.1318,2.0704,2.0189,1.9776,1.925,1.893,1.8617,1.8318,1.7905,1.7589,1.7279,1.6868,1.6336,1.5785,1.5464,1.525,1.5035,1.4713,1.4385,1.4385,1.4498,1.439,1.4067,1.3856,1.364,1.3423,1.3098,1.2881,1.2881,1.2772,1.2772,1.2772,1.2659,1.255,1.2441,1.2441,1.2114,1.1896,1.1787,1.1787,1.1678,1.1809,1.1787,1.1896,1.2001,1.2114,1.2659,1.2555,1.2455,1.2621,1.2798,1.2812,1.2979,1.3013,1.3169,1.3591,1.3868,1.3846,1.3913,1.3909,1.3909,1.4047,1.4052,1.3808,1.3684,1.3564,1.3803,1.4043,1.4286,1.4286,1.453,1.4774,2.6727,2.6644,2.6974,2.6891,2.6644,2.6479,2.6655,2.7056,2.7115,2.7115,2.6996,2.711,2.733,2.7611,2.7698,2.7856,2.7765,2.763,2.7306,2.6854,2.6647,2.6446,2.626,2.5941,2.6044,2.5868,2.5635,2.5241,2.499,2.465,2.4307,2.4047,2.3551,2.3517,2.3323,2.2965,2.2883,2.2746,2.2429,2.2131,2.1827,2.1444,2.1027,2.0609,1.999,1.9472,1.9042,1.8624,1.8311,1.7891,1.7793,1.7477,1.7028,1.6518,1.6004,1.547,1.5143,1.5035,1.4713,1.4277,1.3975,1.3568,1.3335,1.331,1.3418,1.3444,1.3237,1.3143,1.2959,1.2655,1.2407,1.2279,1.2251,1.2119,1.2223,1.2223,1.2005,1.1896,1.1787,1.1568,1.124,1.1266,1.1266,1.1388,1.1511,1.1476,1.1463,1.1468,1.1673,1.2114,1.2332,1.2232,1.222,1.2303,1.2409,1.2452,1.2465,1.2605,1.3016,1.3409,1.3388,1.332,1.332,1.3324,1.3449,1.3324,1.308,1.2964,1.2969,1.2964,1.3084,1.3449,1.3808,1.3933,1.4172,2.6396,2.6396,2.6573,2.6644,2.6561,2.6313,2.649,2.6891,2.688,2.6798,2.6926,2.6864,2.7064,2.7487,2.7579,2.7546,2.7586,2.745,2.7087,2.6282,2.6182,2.5873,2.5841,2.5624,2.527,2.5267,2.5089,2.4604,2.4236,2.3787,2.337,2.3776,2.3286,2.3108,2.2962,2.2555,2.2046,2.1879,2.1694,2.1355,2.1011,2.0648,2.0308,1.9894,1.9175,1.8743,1.8311,1.8003,1.7582,1.716,1.7054,1.673,1.618,1.5666,1.4922,1.439,1.4175,1.4023,1.3749,1.3551,1.3262,1.2961,1.2597,1.2468,1.2578,1.2707,1.2707,1.2717,1.2427,1.2228,1.1952,1.1678,1.1515,1.1358,1.1459,1.1673,1.1459,1.135,1.1131,1.0911,1.0822,1.0855,1.0876,1.1113,1.1249,1.1159,1.1138,1.1101,1.1283,1.1678,1.1896,1.19,1.1815,1.1827,1.1933,1.2034,1.2051,1.2289,1.2529,1.279,1.2906,1.296,1.296,1.284,1.2719,1.2599,1.2603,1.2367,1.2371,1.2367,1.2483,1.2724,1.3084,1.3204,1.3449,2.5738,2.5895,2.5906,2.6146,2.6467,2.6229,2.6229,2.6479,2.6229,2.6407,2.6644,2.6324,2.6631,2.7083,2.6977,2.703,2.6961,2.6936,2.6349,2.5522,2.5336,2.5104,2.4941,2.4376,2.4465,2.4173,2.3818,2.376,2.3164,2.2723,2.2745,2.3485,2.2939,2.2571,2.2349,2.1971,2.1464,2.0845,2.0656,2.0421,2.0315,1.9932,1.9472,1.9063,1.8541,1.7911,1.7477,1.7054,1.6524,1.6211,1.5998,1.5779,1.5131,1.4606,1.3856,1.3418,1.3202,1.2935,1.2793,1.2606,1.2418,1.2257,1.219,1.1772,1.163,1.1966,1.2041,1.1935,1.1629,1.1411,1.1036,1.1081,1.1073,1.0917,1.09,1.1048,1.1094,1.0974,1.0735,1.0516,1.042,1.044,1.0548,1.0683,1.0755,1.0872,1.0856,1.0799,1.0863,1.1134,1.1321,1.1423,1.1343,1.126,1.1406,1.1511,1.164,1.1875,1.2216,1.2434,1.2564,1.2599,1.2599,1.2483,1.2367,1.2242,1.2126,1.201,1.2014,1.2014,1.213,1.2122,1.2363,1.2603,1.2844,2.5633,2.5895,2.5717,2.5706,2.5706,2.5538,2.5549,2.5706,2.5538,2.5801,2.6229,2.6012,2.5953,2.6365,2.6077,2.6022,2.5936,2.6006,2.5291,2.4885,2.4563,2.4496,2.4611,2.3989,2.3887,2.401,2.3698,2.2866,2.2281,2.1922,2.1793,2.1987,2.1833,2.1837,2.1599,2.1428,2.0806,2.0078,1.9716,1.956,1.9502,1.9413,1.9063,1.8541,1.7799,1.7371,1.7054,1.673,1.6099,1.5571,1.5565,1.4922,1.3851,1.3444,1.3009,1.2663,1.2337,1.2165,1.1881,1.1607,1.1372,1.123,1.1033,1.074,1.0689,1.1197,1.1232,1.1032,1.0727,1.0516,1.0412,1.0599,1.063,1.0486,1.0455,1.0642,1.0713,1.0462,1.0213,1.0228,1.0126,1.0122,1.0228,1.0273,1.0337,1.0475,1.0475,1.0448,1.0311,1.0489,1.0545,1.061,1.0667,1.0643,1.0834,1.1137,1.1286,1.1622,1.1963,1.2162,1.235,1.2359,1.2363,1.213,1.1893,1.1889,1.1885,1.1893,1.1776,1.1772,1.1772,1.1885,1.1885,1.201,1.2367,2.4881,2.5174,2.5284,2.5464,2.5464,2.5285,2.5285,2.5359,2.5274,2.5369,2.5717,2.557,2.5572,2.5818,2.5605,2.5284,2.5209,2.511,2.4788,2.4288,2.3947,2.3894,2.3703,2.3456,2.3198,2.31,2.2662,2.2016,2.1481,2.1503,2.1432,2.1459,2.1445,2.1309,2.1113,2.0601,2.0078,1.9546,1.9042,1.8653,1.8576,1.8443,1.8429,1.7793,1.716,1.6736,1.6199,1.5986,1.5244,1.4606,1.439,1.384,1.2985,1.2455,1.2128,1.1682,1.1358,1.1278,1.0994,1.0826,1.0471,1.0387,1.0414,1.0375,1.024,1.0574,1.065,1.0452,1.0488,1.0401,1.0069,1.0088,0.9799,0.9634,0.9838,1.0089,0.9971,0.971,0.9495,0.9411,0.9422,0.9425,0.9561,0.9658,0.9824,0.9941,0.9941,0.9771,0.9764,0.9905,0.9852,0.9921,1.0023,1.014,1.0349,1.0612,1.0959,1.128,1.1571,1.1848,1.2005,1.2005,1.201,1.1772,1.1651,1.1647,1.1647,1.1651,1.1647,1.1522,1.1522,1.1522,1.1526,1.153,1.1764,2.395,2.422,2.4756,2.5158,2.5391,2.52,2.5126,2.5115,2.5115,2.5031,2.5115,2.5115,2.538,2.5689,2.5643,2.5371,2.5134,2.4794,2.44,2.3921,2.3503,2.3574,2.3222,2.2713,2.2504,2.2048,2.1563,2.1425,2.1168,2.1165,2.1252,2.1387,2.1268,2.0987,2.0562,1.996,1.9332,1.8747,1.8234,1.7674,1.7477,1.7477,1.7364,1.7047,1.6418,1.5678,1.5351,1.4815,1.4283,1.3527,1.3098,1.2441,1.1891,1.1463,1.1135,1.0692,1.0359,1.0224,1.0096,0.9909,0.9996,1.0157,1.0124,1.0044,0.9901,0.9926,1.0005,1.0048,1.007,0.9922,0.9588,0.9439,0.9134,0.8991,0.9202,0.9528,0.9258,0.9003,0.8926,0.8845,0.8845,0.8851,0.9007,0.91,0.9261,0.938,0.9235,0.9065,0.9039,0.9202,0.9446,0.9568,0.9648,0.9811,0.9993,1.0231,1.0658,1.085,1.1125,1.1394,1.1651,1.1522,1.1518,1.1643,1.1526,1.1402,1.1402,1.1402,1.1277,1.1273,1.1277,1.1277,1.1156,1.1156,1.1152,2.3279,2.3606,2.3782,2.4188,2.468,2.4444,2.4454,2.4625,2.4454,2.4444,2.4615,2.4625,2.4869,2.5253,2.475,2.4522,2.4594,2.439,2.4165,2.3764,2.3329,2.3448,2.3241,2.2428,2.2026,2.1472,2.0969,2.0706,2.0577,2.0699,2.0712,2.0619,2.0889,2.035,1.9351,1.8803,1.8504,1.7936,1.7279,1.6842,1.653,1.6424,1.6518,1.6099,1.5565,1.5143,1.4708,1.4493,1.3851,1.2985,1.2005,1.135,1.0911,1.0586,1.0264,0.9964,0.9625,0.9493,0.9469,0.9181,0.9245,0.9429,0.9419,0.9238,0.9194,0.9258,0.9226,0.92,0.9118,0.8988,0.8803,0.8756,0.8622,0.8417,0.8537,0.8641,0.8616,0.865,0.8692,0.8573,0.8564,0.854,0.8506,0.8588,0.8784,0.8784,0.8899,0.8615,0.86,0.8868,0.8998,0.9134,0.9271,0.9539,0.9778,1.0025,1.0292,1.0488,1.0668,1.0914,1.1039,1.1031,1.1031,1.1156,1.1156,1.1035,1.1035,1.1035,1.1035,1.091,1.091,1.0914,1.091,1.0789,1.0789]},{"header":{"parameterUnit":"m.s-1","parameterCategory":1,"la1":31.0,"la2":29.5877,"lo1":-88.7671,"lo2":-86.6584,"dy":0.0162,"dx":0.0185,"nx":115,"ny":88,"refTime":"2023-03-31T06:00:00:Z","depth":0,"parameterNumber":3,"parameterNumberName":"V-component_of_WINDS"},"data":[0.0,0.0,0.0,0.0,0.0,0.0,0.0,0.0,0.0,0.0,0.0,0.0,0.0,0.0,0.0,0.0,0.0,0.0,0.0,0.0,0.0,0.0,0.0,0.0,0.0,0.0,0.0,0.0,0.0,0.0,0.0,0.0,0.0,0.0,0.0,0.0,0.0,0.0,0.0,0.0,0.0,0.0,0.0,0.0,0.0,0.0,0.0,0.0,0.0,0.0,0.0,0.0,0.0,0.0,0.0,0.0,0.0,0.0,0.0,0.0,0.0,0.0,0.0,0.0,0.0,0.0,0.0,0.0,0.0,0.0,0.0,0.0,0.0,0.0,0.0,0.0,0.0,0.0,0.0,0.0,0.0,0.0,0.0,0.0,0.0,0.0,0.0,0.0,0.0,0.0,0.0,0.0,0.0,0.0,0.0,0.0,0.0,0.0,0.0,0.0,0.0,0.0,0.0,0.0,0.0,0.0,0.0,0.0,0.0,0.0,0.0,0.0,0.0,0.0,0.0,0.0,0.0,0.0,0.0,0.0,0.0,0.0,0.0,0.0,0.0,0.0,0.0,0.0,0.0,0.0,0.0,0.0,0.0,0.0,0.0,0.0,0.0,0.0,0.0,0.0,0.0,0.0,0.0,0.0,0.0,0.0,0.0,0.0,0.0,0.0,0.0,0.0,0.0,0.0,0.0,0.0,0.0,0.0,0.0,0.0,0.0,0.0,0.0,0.0,0.0,0.0,0.0,0.0,0.0,0.0,0.0,0.0,0.0,0.0,0.0,0.0,0.0,0.0,0.0,0.0,0.0,0.0,0.0,0.0,0.0,0.0,0.0,0.0,0.0,0.0,0.0,0.0,0.0,0.0,0.0,0.0,0.0,0.0,0.0,0.0,0.0,0.0,0.0,0.0,0.0,0.0,0.0,0.0,0.0,0.0,0.0,0.0,0.0,0.0,0.0,0.0,0.0,0.0,0.0,0.0,0.0,0.0,0.0,0.0,0.0,0.0,0.0,0.0,0.0,0.0,0.0,0.0,0.0,0.0,0.0,0.0,0.0,0.0,0.0,0.0,0.0,0.0,0.0,0.0,0.0,0.0,0.0,0.0,0.0,0.0,0.0,0.0,0.0,0.0,0.0,0.0,0.0,0.0,0.0,0.0,0.0,0.0,0.0,0.0,0.0,0.0,0.0,0.0,0.0,0.0,0.0,0.0,0.0,0.0,0.0,0.0,0.0,0.0,0.0,0.0,0.0,0.0,0.0,0.0,0.0,0.0,0.0,0.0,0.0,0.0,0.0,0.0,0.0,0.0,0.0,0.0,0.0,0.0,0.0,0.0,0.0,0.0,0.0,0.0,0.0,0.0,0.0,0.0,0.0,0.0,0.0,0.0,0.0,0.0,0.0,0.0,0.0,0.0,0.0,0.0,0.0,0.0,0.0,0.0,0.0,0.0,0.0,0.0,0.0,0.0,0.0,0.0,0.0,0.0,0.0,0.0,0.0,0.0,0.0,0.0,0.0,0.0,0.0,0.0,0.0,0.0,0.0,0.0,0.0,0.0,0.0,0.0,0.0,0.0,0.0,0.0,0.0,0.0,0.0,0.0,0.0,0.0,0.0,0.0,0.0,0.0,0.0,0.0,0.0,0.0,0.0,0.0,0.0,0.0,0.0,0.0,0.0,0.0,0.0,0.0,0.0,0.0,0.0,0.0,0.0,0.0,0.0,0.0,0.0,0.0,0.0,0.0,0.0,0.0,0.0,0.0,0.0,0.0,0.0,0.0,0.0,0.0,0.0,0.0,0.0,0.0,0.0,0.0,0.0,0.0,0.0,0.0,0.0,0.0,0.0,0.0,0.0,0.0,0.0,0.0,0.0,0.0,0.0,0.0,0.0,0.0,0.0,0.0,0.0,0.0,0.0,0.0,0.0,0.0,0.0,0.0,0.0,0.0,0.0,0.0,0.0,0.0,0.0,0.0,0.0,0.0,0.0,0.0,0.0,0.0,0.0,0.0,0.0,0.0,0.0,0.0,0.0,0.0,0.0,0.0,0.0,0.0,0.0,0.0,0.0,0.0,0.0,0.0,0.0,0.0,0.0,0.0,0.0,0.0,0.0,0.0,0.0,0.0,0.0,0.0,0.0,0.0,0.0,0.0,0.0,0.0,0.0,0.0,0.0,0.0,0.0,0.0,0.0,0.0,0.0,0.0,0.0,0.0,0.0,0.0,0.0,0.0,0.0,0.0,0.0,0.0,0.0,0.0,0.0,0.0,0.0,0.0,0.0,0.0,0.0,0.0,0.0,0.0,0.0,0.0,0.0,0.0,0.0,0.0,0.0,0.0,0.0,0.0,0.0,0.0,0.0,0.0,0.0,0.0,0.0,0.0,0.0,0.0,0.0,0.0,0.0,0.0,0.0,0.0,0.0,0.0,0.0,0.0,0.0,0.0,0.0,0.0,0.0,0.0,0.0,0.0,0.0,0.0,0.0,0.0,0.0,0.0,0.0,0.0,0.0,0.0,0.0,0.0,0.0,0.0,0.0,0.0,0.0,0.0,0.0,0.0,0.0,0.0,0.0,0.0,0.0,0.0,0.0,0.0,0.0,0.0,0.0,0.0,0.0,0.0,0.0,0.0,0.0,0.0,0.0,0.0,0.0,0.0,0.0,0.0,0.0,0.0,0.0,0.0,0.0,0.0,0.0,0.0,0.0,0.0,0.0,0.0,0.0,0.0,0.0,0.0,0.0,0.0,0.0,0.0,0.0,0.0,0.0,0.0,0.0,0.0,0.0,0.0,0.0,0.0,0.0,0.0,0.0,0.0,0.0,0.0,0.0,0.0,0.0,0.0,0.0,0.0,0.0,0.0,0.0,0.0,0.0,0.0,0.0,0.0,0.0,0.0,0.0,0.0,0.0,0.0,0.0,0.0,0.0,0.0,0.0,0.0,0.0,0.0,0.0,0.0,0.0,0.0,0.0,0.0,0.0,0.0,0.0,0.0,0.0,0.0,0.0,0.0,0.0,0.0,0.0,0.0,0.0,0.0,0.0,0.0,0.0,0.0,0.0,0.0,0.0,0.0,0.0,0.0,0.0,0.0,0.0,0.0,0.0,0.0,0.0,0.0,0.0,0.0,0.0,0.0,0.0,0.0,0.0,0.0,0.0,0.0,0.0,0.0,0.0,0.0,0.0,0.0,0.0,0.0,0.0,0.0,0.0,0.0,0.0,0.0,0.0,0.0,0.0,0.0,0.0,0.0,0.0,0.0,0.0,0.0,0.0,0.0,0.0,0.0,0.0,0.0,0.0,0.0,0.0,0.0,0.0,0.0,0.0,0.0,0.0,0.0,0.0,0.0,0.0,0.0,0.0,0.0,0.0,0.0,0.0,0.0,0.0,0.0,0.0,0.0,0.0,0.0,0.0,0.0,0.0,0.0,0.0,0.0,0.0,0.0,0.0,0.0,0.0,0.0,0.0,0.0,0.0,0.0,0.0,0.0,0.0,0.0,0.0,0.0,0.0,0.0,0.0,0.0,0.0,0.0,0.0,0.0,0.0,0.0,0.0,0.0,0.0,0.0,0.0,0.0,0.0,0.0,0.0,0.0,0.0,0.0,0.0,0.0,0.0,0.0,0.0,0.0,0.0,0.0,0.0,0.0,0.0,0.0,0.0,0.0,0.0,0.0,0.0,0.0,0.0,0.0,0.0,0.0,0.0,0.0,0.0,0.0,0.0,0.0,0.0,0.0,0.0,0.0,0.0,0.0,0.0,0.0,0.0,0.0,0.0,0.0,0.0,0.0,0.0,0.0,0.0,0.0,0.0,0.0,0.0,0.0,0.0,0.0,0.0,0.0,0.0,0.0,0.0,0.0,0.0,0.0,0.0,0.0,0.0,0.0,0.0,0.0,0.0,0.0,0.0,0.0,0.0,0.0,0.0,0.0,0.0,0.0,0.0,0.0,0.0,0.0,0.0,0.0,0.0,0.0,0.0,0.0,0.0,0.0,0.0,0.0,0.0,0.0,0.0,0.0,0.0,0.0,0.0,0.0,0.0,0.0,0.0,0.0,0.0,0.0,0.0,0.0,0.0,0.0,0.0,0.0,0.0,0.0,0.0,0.0,0.0,0.0,0.0,0.0,0.0,0.0,0.0,0.0,0.0,0.0,0.0,0.0,0.0,0.0,0.0,0.0,0.0,0.0,0.0,0.0,0.0,0.0,0.0,0.0,0.0,0.0,0.0,0.0,0.0,0.0,0.0,0.0,0.0,0.0,0.0,0.0,0.0,0.0,0.0,0.0,-0.988,0.0,0.0,0.0,0.0,0.0,0.0,0.0,0.0,0.0,0.0,0.0,0.0,0.0,0.0,0.0,0.0,0.0,0.0,0.0,0.0,0.0,0.0,0.0,0.0,0.0,0.0,0.0,0.0,0.0,0.0,0.0,0.0,0.0,0.0,0.0,0.0,0.0,0.0,0.0,0.0,0.0,0.0,0.0,0.0,0.0,0.0,0.0,0.0,0.0,0.0,0.0,0.0,0.0,0.0,0.0,0.0,0.0,0.0,0.0,0.0,0.0,0.0,0.0,0.0,0.0,0.0,0.0,0.0,0.0,0.0,0.0,0.0,0.0,0.0,0.0,0.0,0.0,0.0,0.0,0.0,0.0,0.0,0.0,0.0,0.0,0.0,0.0,0.0,0.0,0.0,0.0,0.0,0.0,0.0,0.0,0.0,0.0,0.0,0.0,0.0,0.0,0.0,0.0,0.0,0.0,0.0,0.0,0.0,0.0,0.0,-0.954,-0.9632,-0.971,-0.975,-0.9802,0.0,0.0,0.0,0.0,0.0,0.0,0.0,0.0,0.0,0.0,0.0,0.0,0.0,0.0,0.0,0.0,0.0,0.0,0.0,0.0,0.0,0.0,0.0,0.0,0.0,0.0,0.0,0.0,0.0,0.0,0.0,0.0,0.0,0.0,0.0,0.0,0.0,0.0,0.0,0.0,0.0,0.0,0.0,0.0,0.0,0.0,0.0,0.0,0.0,0.0,0.0,0.0,0.0,0.0,0.0,0.0,0.0,0.0,0.0,0.0,0.0,0.0,0.0,0.0,0.0,0.0,0.0,0.0,0.0,0.0,0.0,0.0,0.0,0.0,0.0,0.0,0.0,0.0,0.0,0.0,0.0,0.0,0.0,0.0,0.0,0.0,0.0,0.0,0.0,0.0,0.0,0.0,0.0,0.0,0.0,0.0,0.0,0.0,0.0,0.0,0.0,0.0,0.0,0.0,0.0,0.0,0.0,0.0,0.0,0.0,0.0,0.0,-0.9909,-0.9962,-0.9909,0.0,0.0,0.0,0.0,0.0,0.0,0.0,0.0,0.0,0.0,0.0,0.0,0.0,0.0,0.0,0.0,0.0,0.0,0.0,0.0,0.0,0.0,0.0,0.0,0.0,0.0,0.0,0.0,0.0,0.0,0.0,0.0,0.0,0.0,0.0,0.0,0.0,0.0,0.0,0.0,0.0,0.0,0.0,0.0,0.0,0.0,0.0,0.0,0.0,0.0,0.0,0.0,0.0,0.0,0.0,0.0,0.0,0.0,0.0,0.0,0.0,0.0,0.0,0.0,0.0,0.0,0.0,0.0,0.0,0.0,0.0,0.0,0.0,0.0,0.0,0.0,0.0,0.0,0.0,0.0,0.0,0.0,0.0,0.0,0.0,0.0,0.0,0.0,0.0,0.0,0.0,0.0,0.0,0.0,0.0,0.0,0.0,0.0,0.0,0.0,0.0,0.0,0.0,0.0,0.0,0.0,0.0,0.0,0.0,0.0,-1.0049,-1.0395,-1.0492,0.0,-1.0578,0.0,0.0,0.0,0.0,0.0,0.0,0.0,0.0,0.0,0.0,0.0,0.0,0.0,0.0,0.0,0.0,0.0,0.0,0.0,0.0,0.0,0.0,0.0,0.0,0.0,0.0,0.0,0.0,0.0,0.0,0.0,0.0,0.0,0.0,0.0,0.0,0.0,0.0,0.0,0.0,0.0,0.0,0.0,0.0,0.0,0.0,0.0,0.0,0.0,0.0,0.0,0.0,0.0,0.0,0.0,0.0,0.0,0.0,0.0,0.0,0.0,0.0,0.0,0.0,0.0,0.0,0.0,0.0,0.0,0.0,0.0,0.0,0.0,0.0,0.0,0.0,0.0,0.0,0.0,0.0,0.0,0.0,0.0,0.0,0.0,0.0,0.0,0.0,0.0,0.0,0.0,0.0,0.0,0.0,0.0,0.0,0.0,0.0,0.0,0.0,0.0,0.0,0.0,0.0,0.0,0.0,0.0,0.0,0.0,0.0,-1.0556,-1.0566,-1.0875,-1.1106,0.0,0.0,0.0,0.0,0.0,0.0,0.0,0.0,0.0,0.0,0.0,0.0,0.0,0.0,0.0,0.0,0.0,0.0,0.0,0.0,0.0,0.0,0.0,0.0,0.0,0.0,0.0,0.0,0.0,0.0,0.0,0.0,0.0,0.0,0.0,0.0,0.0,0.0,0.0,0.0,0.0,0.0,0.0,0.0,0.0,0.0,0.0,0.0,0.0,0.0,0.0,0.0,0.0,0.0,0.0,0.0,0.0,0.0,0.0,0.0,0.0,0.0,0.0,0.0,0.0,0.0,0.0,0.0,0.0,0.0,0.0,0.0,0.0,0.0,0.0,0.0,0.0,0.0,0.0,0.0,0.0,0.0,0.0,0.0,0.0,0.0,0.0,0.0,0.0,0.0,0.0,0.0,0.0,0.0,0.0,0.0,0.0,0.0,0.0,0.0,0.0,0.0,0.0,0.0,0.0,0.0,0.0,0.0,0.0,0.0,-1.0944,-1.0674,-1.0634,-1.0978,-1.1251,-1.1399,0.0,0.0,0.0,0.0,0.0,0.0,0.0,0.0,0.0,0.0,0.0,0.0,0.0,0.0,0.0,0.0,0.0,0.0,0.0,0.0,0.0,0.0,0.0,0.0,0.0,0.0,0.0,0.0,0.0,0.0,0.0,0.0,0.0,0.0,0.0,0.0,0.0,0.0,0.0,0.0,0.0,0.0,0.0,0.0,0.0,0.0,0.0,0.0,0.0,0.0,0.0,0.0,0.0,0.0,0.0,0.0,0.0,0.0,0.0,0.0,0.0,0.0,0.0,0.0,0.0,0.0,0.0,0.0,0.0,0.0,0.0,0.0,0.0,0.0,0.0,0.0,0.0,0.0,0.0,0.0,0.0,0.0,0.0,0.0,0.0,0.0,0.0,0.0,0.0,0.0,0.0,0.0,0.0,0.0,0.0,0.0,0.0,0.0,0.0,0.0,0.0,0.0,0.0,0.0,0.0,0.0,0.0,0.0,-1.2061,-1.0797,-1.0233,-1.0606,-1.0631,-1.0879,0.0,0.0,0.0,0.0,0.0,0.0,0.0,0.0,0.0,0.0,0.0,0.0,0.0,0.0,0.0,0.0,0.0,0.0,0.0,0.0,0.0,0.0,0.0,0.0,0.0,0.0,0.0,0.0,0.0,0.0,0.0,0.0,0.0,0.0,0.0,0.0,0.0,0.0,0.0,0.0,0.0,0.0,0.0,0.0,0.0,0.0,0.0,0.0,0.0,0.0,0.0,0.0,0.0,0.0,0.0,0.0,0.0,0.0,0.0,0.0,0.0,0.0,0.0,0.0,0.0,0.0,0.0,0.0,0.0,0.0,0.0,0.0,0.0,0.0,0.0,0.0,0.0,0.0,0.0,0.0,0.0,0.0,0.0,0.0,0.0,0.0,0.0,0.0,0.0,0.0,0.0,0.0,0.0,0.0,0.0,0.0,0.0,0.0,0.0,0.0,0.0,0.0,0.0,0.0,0.0,0.0,0.0,0.0,0.0,-1.2354,-1.1826,-1.1558,-1.1628,-1.1659,-1.1616,0.0,0.0,0.0,0.0,0.0,0.0,0.0,0.0,0.0,0.0,0.0,0.0,0.0,0.0,0.0,0.0,0.0,0.0,0.0,0.0,0.0,0.0,0.0,0.0,0.0,0.0,0.0,0.0,0.0,0.0,0.0,0.0,0.0,0.0,0.0,0.0,0.0,0.0,0.0,0.0,0.0,0.0,0.0,0.0,0.0,0.0,0.0,0.0,0.0,0.0,0.0,0.0,0.0,0.0,0.0,0.0,0.0,0.0,0.0,0.0,0.0,0.0,0.0,0.0,0.0,0.0,0.0,0.0,0.0,0.0,0.0,0.0,0.0,0.0,0.0,0.0,0.0,0.0,0.0,0.0,0.0,0.0,0.0,0.0,0.0,0.0,0.0,0.0,0.0,0.0,0.0,0.0,0.0,0.0,0.0,0.0,0.0,0.0,0.0,0.0,0.0,0.0,0.0,0.0,0.0,0.0,0.0,0.0,0.0,-1.2355,0.0,-1.2049,-1.1684,-1.2036,-1.1994,0.0,0.0,0.0,0.0,0.0,0.0,0.0,0.0,0.0,0.0,0.0,0.0,0.0,0.0,0.0,0.0,0.0,0.0,0.0,0.0,0.0,0.0,0.0,0.0,0.0,0.0,0.0,0.0,0.0,0.0,0.0,0.0,0.0,0.0,0.0,0.0,0.0,0.0,0.0,0.0,0.0,0.0,0.0,0.0,0.0,0.0,0.0,0.0,0.0,0.0,0.0,0.0,0.0,0.0,0.0,0.0,0.0,0.0,0.0,0.0,0.0,0.0,0.0,0.0,0.0,0.0,0.0,0.0,0.0,0.0,0.0,0.0,0.0,0.0,0.0,0.0,0.0,0.0,0.0,0.0,0.0,0.0,0.0,0.0,0.0,0.0,0.0,0.0,0.0,0.0,0.0,0.0,0.0,0.0,0.0,0.0,0.0,0.0,0.0,0.0,0.0,0.0,0.0,0.0,0.0,0.0,0.0,0.0,-1.2266,-1.2117,-1.2093,-1.1626,-1.0632,-1.1603,-1.195,0.0,0.0,0.0,0.0,0.0,0.0,0.0,0.0,0.0,0.0,0.0,0.0,0.0,0.0,0.0,0.0,0.0,0.0,0.0,0.0,0.0,0.0,0.0,0.0,0.0,0.0,0.0,0.0,0.0,0.0,0.0,0.0,0.0,0.0,0.0,0.0,0.0,0.0,0.0,0.0,0.0,0.0,0.0,0.0,0.0,0.0,0.0,0.0,0.0,0.0,0.0,0.0,0.0,0.0,0.0,0.0,0.0,0.0,0.0,0.0,0.0,0.0,0.0,0.0,0.0,0.0,0.0,0.0,0.0,0.0,0.0,0.0,0.0,0.0,0.0,0.0,0.0,0.0,0.0,0.0,0.0,0.0,0.0,0.0,0.0,0.0,0.0,0.0,0.0,0.0,0.0,0.0,0.0,0.0,0.0,0.0,0.0,0.0,0.0,0.0,0.0,0.0,0.0,0.0,0.0,0.0,0.0,0.0,0.0,-1.2772,-1.2796,-1.2398,-1.1733,-1.2132,-1.2077,0.0,0.0,0.0,0.0,0.0,0.0,0.0,0.0,0.0,0.0,0.0,0.0,0.0,0.0,0.0,0.0,0.0,0.0,0.0,0.0,0.0,0.0,0.0,0.0,0.0,0.0,0.0,0.0,0.0,0.0,0.0,0.0,0.0,0.0,0.0,0.0,0.0,0.0,0.0,0.0,0.0,0.0,0.0,0.0,0.0,0.0,0.0,0.0,0.0,0.0,0.0,0.0,0.0,0.0,0.0,0.0,0.0,0.0,0.0,0.0,0.0,0.0,0.0,0.0,0.0,0.0,0.0,0.0,0.0,0.0,0.0,0.0,0.0,0.0,0.0,0.0,0.0,0.0,0.0,0.0,0.0,0.0,0.0,0.0,0.0,0.0,0.0,0.0,0.0,0.0,0.0,0.0,0.0,0.0,0.0,0.0,0.0,0.0,0.0,0.0,0.0,0.0,0.0,0.0,0.0,0.0,0.0,0.0,0.0,-1.3417,-1.3357,-1.3132,-1.2597,-1.2952,-1.2688,-1.1852,0.0,0.0,0.0,0.0,0.0,0.0,0.0,0.0,0.0,0.0,0.0,0.0,0.0,0.0,0.0,0.0,0.0,0.0,0.0,0.0,0.0,0.0,0.0,0.0,0.0,0.0,0.0,0.0,0.0,0.0,0.0,0.0,0.0,0.0,0.0,0.0,0.0,0.0,0.0,0.0,0.0,0.0,0.0,0.0,0.0,0.0,0.0,0.0,0.0,0.0,0.0,0.0,0.0,0.0,0.0,0.0,0.0,0.0,0.0,0.0,0.0,0.0,0.0,0.0,0.0,0.0,0.0,0.0,0.0,0.0,0.0,0.0,0.0,0.0,0.0,0.0,0.0,0.0,0.0,0.0,0.0,0.0,0.0,0.0,0.0,0.0,0.0,0.0,0.0,0.0,0.0,0.0,0.0,0.0,0.0,0.0,0.0,0.0,0.0,0.0,0.0,0.0,0.0,0.0,0.0,0.0,0.0,0.0,-1.3951,-1.3927,-1.3764,-1.3415,-1.3844,-1.3629,0.0,0.0,0.0,0.0,0.0,0.0,0.0,0.0,0.0,0.0,0.0,0.0,0.0,0.0,0.0,0.0,0.0,0.0,0.0,0.0,0.0,0.0,0.0,0.0,0.0,0.0,0.0,0.0,0.0,0.0,0.0,0.0,0.0,0.0,0.0,0.0,0.0,0.0,0.0,0.0,0.0,0.0,0.0,0.0,0.0,0.0,0.0,0.0,0.0,0.0,0.0,0.0,0.0,0.0,0.0,0.0,0.0,0.0,0.0,0.0,0.0,0.0,0.0,0.0,0.0,0.0,0.0,0.0,0.0,0.0,0.0,0.0,0.0,0.0,0.0,0.0,0.0,0.0,0.0,0.0,0.0,0.0,0.0,0.0,0.0,0.0,0.0,0.0,0.0,0.0,0.0,0.0,0.0,0.0,0.0,0.0,0.0,0.0,0.0,0.0,0.0,0.0,0.0,0.0,0.0,0.0,0.0,0.0,0.0,-1.4702,-1.5118,-1.5068,-1.45,-1.4467,-1.4256,0.0,0.0,0.0,0.0,0.0,0.0,0.0,0.0,0.0,0.0,0.0,0.0,0.0,0.0,0.0,0.0,0.0,0.0,0.0,0.0,0.0,0.0,0.0,0.0,0.0,0.0,0.0,0.0,0.0,0.0,0.0,0.0,0.0,0.0,0.0,0.0,0.0,0.0,0.0,0.0,0.0,0.0,0.0,0.0,0.0,0.0,0.0,0.0,0.0,0.0,0.0,0.0,0.0,0.0,0.0,0.0,0.0,0.0,0.0,0.0,0.0,0.0,0.0,0.0,0.0,0.0,0.0,0.0,0.0,0.0,0.0,0.0,0.0,0.0,0.0,0.0,0.0,0.0,0.0,0.0,0.0,0.0,0.0,0.0,0.0,0.0,0.0,0.0,0.0,0.0,0.0,0.0,0.0,0.0,0.0,0.0,0.0,0.0,0.0,0.0,0.0,0.0,0.0,0.0,0.0,0.0,0.0,0.0,-1.5636,-1.5648,-1.6557,-1.6854,-1.6464,-1.562,-1.4948,0.0,0.0,0.0,0.0,0.0,0.0,0.0,0.0,0.0,0.0,0.0,0.0,0.0,0.0,0.0,0.0,0.0,0.0,0.0,0.0,0.0,0.0,0.0,0.0,0.0,0.0,0.0,0.0,0.0,0.0,0.0,0.0,0.0,0.0,0.0,0.0,0.0,0.0,0.0,0.0,0.0,0.0,0.0,0.0,0.0,0.0,0.0,0.0,0.0,0.0,0.0,0.0,0.0,0.0,0.0,0.0,0.0,0.0,0.0,0.0,0.0,0.0,0.0,0.0,0.0,0.0,0.0,0.0,0.0,0.0,0.0,0.0,0.0,0.0,0.0,0.0,0.0,0.0,0.0,0.0,0.0,0.0,0.0,0.0,0.0,0.0,0.0,0.0,0.0,0.0,0.0,0.0,0.0,0.0,0.0,0.0,0.0,0.0,0.0,0.0,0.0,0.0,0.0,0.0,0.0,0.0,0.0,0.0,-1.6867,-1.6665,-1.7938,-1.8652,-1.8601,-1.7008,-1.575,0.0,0.0,0.0,0.0,0.0,0.0,0.0,0.0,0.0,0.0,0.0,0.0,0.0,0.0,0.0,0.0,0.0,0.0,0.0,0.0,0.0,0.0,0.0,0.0,0.0,0.0,0.0,0.0,0.0,0.0,0.0,0.0,0.0,0.0,0.0,0.0,0.0,0.0,0.0,0.0,0.0,0.0,0.0,0.0,0.0,0.0,0.0,0.0,0.0,0.0,0.0,0.0,0.0,0.0,0.0,0.0,0.0,0.0,0.0,0.0,0.0,0.0,0.0,0.0,0.0,0.0,0.0,0.0,0.0,0.0,0.0,0.0,0.0,0.0,0.0,0.0,0.0,0.0,0.0,0.0,0.0,0.0,0.0,0.0,0.0,0.0,0.0,0.0,0.0,0.0,0.0,0.0,0.0,0.0,0.0,0.0,0.0,0.0,0.0,0.0,0.0,0.0,0.0,0.0,0.0,0.0,0.0,0.0,-1.7542,-1.7542,-1.8312,-1.8845,-1.9002,-1.7596,-1.6816,0.0,0.0,0.0,0.0,0.0,0.0,0.0,0.0,0.0,0.0,0.0,0.0,0.0,0.0,0.0,0.0,0.0,0.0,0.0,0.0,0.0,0.0,0.0,0.0,0.0,0.0,0.0,0.0,0.0,0.0,0.0,0.0,0.0,0.0,0.0,0.0,0.0,0.0,0.0,0.0,0.0,0.0,0.0,0.0,0.0,0.0,0.0,0.0,-1.6799,0.0,0.0,0.0,0.0,0.0,0.0,0.0,0.0,0.0,0.0,0.0,0.0,0.0,0.0,0.0,0.0,0.0,0.0,0.0,0.0,0.0,0.0,0.0,0.0,0.0,0.0,0.0,0.0,0.0,0.0,0.0,0.0,0.0,0.0,0.0,0.0,0.0,0.0,0.0,0.0,0.0,0.0,0.0,0.0,0.0,0.0,0.0,0.0,0.0,0.0,0.0,0.0,0.0,0.0,0.0,0.0,0.0,0.0,0.0,-1.8292,-1.8469,-1.921,-1.9651,-1.9695,-1.8793,-1.8004,0.0,0.0,0.0,0.0,0.0,0.0,0.0,0.0,0.0,0.0,0.0,0.0,0.0,0.0,0.0,0.0,0.0,0.0,0.0,0.0,0.0,0.0,0.0,0.0,0.0,0.0,0.0,0.0,0.0,0.0,0.0,0.0,0.0,0.0,0.0,0.0,0.0,0.0,0.0,0.0,0.0,0.0,0.0,0.0,0.0,0.0,0.0,0.0,0.0,0.0,0.0,0.0,0.0,0.0,0.0,0.0,0.0,0.0,0.0,0.0,0.0,0.0,0.0,0.0,0.0,0.0,0.0,0.0,0.0,0.0,0.0,0.0,0.0,0.0,0.0,0.0,0.0,0.0,0.0,0.0,0.0,0.0,0.0,0.0,0.0,0.0,0.0,0.0,0.0,0.0,0.0,0.0,0.0,0.0,0.0,0.0,0.0,0.0,0.0,0.0,0.0,0.0,0.0,0.0,0.0,0.0,0.0,-1.8474,-1.8995,-1.943,-2.0165,-2.0575,-2.0549,-1.9966,-1.9081,-1.7902,0.0,0.0,0.0,0.0,0.0,0.0,0.0,0.0,0.0,0.0,0.0,0.0,0.0,0.0,0.0,0.0,0.0,0.0,0.0,0.0,0.0,0.0,0.0,0.0,0.0,0.0,0.0,0.0,0.0,0.0,0.0,0.0,0.0,0.0,0.0,0.0,0.0,0.0,-1.6357,-1.6091,0.0,0.0,0.0,0.0,0.0,0.0,0.0,0.0,-1.6909,0.0,0.0,0.0,0.0,0.0,0.0,0.0,0.0,0.0,0.0,0.0,0.0,0.0,0.0,0.0,0.0,0.0,0.0,0.0,0.0,0.0,0.0,0.0,0.0,0.0,0.0,0.0,0.0,0.0,0.0,0.0,0.0,0.0,0.0,0.0,0.0,0.0,0.0,0.0,0.0,0.0,0.0,0.0,0.0,0.0,0.0,0.0,0.0,0.0,0.0,0.0,0.0,0.0,0.0,0.0,0.0,-1.8446,-1.8681,-1.9318,-2.0429,-2.0597,-2.0749,-2.0885,-2.0149,-1.9541,-1.9035,0.0,0.0,0.0,0.0,0.0,0.0,0.0,0.0,0.0,0.0,0.0,0.0,0.0,0.0,0.0,0.0,0.0,0.0,0.0,0.0,0.0,0.0,0.0,0.0,0.0,0.0,0.0,0.0,0.0,0.0,0.0,0.0,0.0,0.0,0.0,0.0,0.0,0.0,0.0,-1.6533,-1.6038,0.0,0.0,0.0,0.0,0.0,0.0,0.0,0.0,-1.7721,0.0,0.0,0.0,0.0,0.0,0.0,0.0,0.0,0.0,0.0,0.0,0.0,0.0,0.0,0.0,0.0,0.0,0.0,0.0,0.0,0.0,0.0,0.0,0.0,0.0,0.0,0.0,0.0,0.0,0.0,0.0,0.0,0.0,0.0,0.0,0.0,0.0,0.0,0.0,0.0,0.0,0.0,0.0,0.0,0.0,0.0,0.0,0.0,0.0,0.0,0.0,0.0,0.0,0.0,0.0,-1.8588,-1.9396,-2.0051,-2.0623,-2.1378,-2.1557,-2.1023,-2.0861,-2.0334,0.0,0.0,0.0,0.0,0.0,0.0,0.0,0.0,0.0,0.0,0.0,0.0,0.0,0.0,0.0,0.0,0.0,0.0,0.0,0.0,0.0,0.0,0.0,0.0,0.0,0.0,0.0,0.0,0.0,0.0,0.0,0.0,0.0,0.0,0.0,0.0,0.0,0.0,0.0,0.0,-1.7239,-1.7146,-1.8182,0.0,0.0,0.0,0.0,0.0,0.0,-1.8515,-1.8497,0.0,0.0,0.0,0.0,0.0,0.0,0.0,0.0,0.0,0.0,0.0,0.0,0.0,0.0,0.0,0.0,0.0,0.0,0.0,0.0,0.0,0.0,0.0,0.0,0.0,0.0,0.0,0.0,0.0,0.0,0.0,0.0,0.0,0.0,0.0,0.0,0.0,0.0,0.0,0.0,0.0,0.0,0.0,0.0,0.0,0.0,0.0,0.0,0.0,0.0,0.0,0.0,0.0,0.0,0.0,-1.8699,-1.9908,-2.0633,-2.0906,-2.1889,-2.2098,-2.1406,-2.1242,-2.0735,0.0,0.0,0.0,0.0,0.0,0.0,0.0,0.0,0.0,0.0,0.0,0.0,0.0,0.0,0.0,0.0,0.0,0.0,0.0,0.0,0.0,0.0,0.0,0.0,0.0,0.0,0.0,0.0,0.0,0.0,0.0,0.0,0.0,0.0,0.0,0.0,0.0,0.0,0.0,0.0,0.0,-1.8343,-1.9596,-1.9156,0.0,0.0,0.0,0.0,-1.9707,-1.9572,0.0,0.0,0.0,0.0,0.0,0.0,0.0,0.0,0.0,0.0,0.0,0.0,0.0,0.0,0.0,0.0,0.0,0.0,0.0,0.0,0.0,0.0,0.0,0.0,0.0,0.0,0.0,0.0,0.0,0.0,0.0,0.0,0.0,0.0,0.0,0.0,0.0,0.0,0.0,0.0,0.0,0.0,0.0,0.0,0.0,0.0,0.0,0.0,0.0,0.0,0.0,0.0,0.0,0.0,0.0,0.0,-1.895,-1.9672,-2.062,-2.1674,-2.1395,-2.1709,-2.2708,-2.0571,-1.9873,0.0,0.0,0.0,0.0,0.0,0.0,0.0,0.0,0.0,0.0,0.0,0.0,0.0,0.0,0.0,0.0,0.0,0.0,0.0,0.0,0.0,0.0,0.0,0.0,0.0,0.0,0.0,0.0,0.0,0.0,0.0,0.0,0.0,0.0,0.0,0.0,0.0,0.0,0.0,0.0,0.0,-1.8852,-1.9621,-1.9081,-1.8644,0.0,0.0,-1.9707,-2.0065,-2.1063,0.0,0.0,0.0,0.0,0.0,0.0,0.0,0.0,0.0,0.0,0.0,0.0,0.0,0.0,0.0,0.0,0.0,0.0,0.0,0.0,0.0,0.0,0.0,0.0,0.0,0.0,0.0,0.0,0.0,0.0,0.0,0.0,0.0,0.0,0.0,0.0,0.0,0.0,0.0,0.0,0.0,0.0,0.0,0.0,0.0,0.0,0.0,0.0,0.0,0.0,0.0,0.0,0.0,0.0,0.0,-1.8734,-1.9068,-2.058,-2.1559,-2.2014,-2.2954,-2.3437,-2.3409,-2.2146,-2.1537,0.0,0.0,0.0,0.0,0.0,0.0,0.0,0.0,0.0,0.0,0.0,0.0,0.0,0.0,0.0,0.0,0.0,0.0,0.0,0.0,0.0,0.0,0.0,0.0,0.0,0.0,0.0,0.0,0.0,0.0,0.0,0.0,0.0,0.0,0.0,0.0,0.0,0.0,0.0,0.0,0.0,0.0,-2.0926,-2.0737,0.0,0.0,0.0,-2.0903,-2.0643,0.0,0.0,0.0,0.0,0.0,0.0,0.0,0.0,0.0,0.0,0.0,0.0,0.0,0.0,0.0,0.0,0.0,0.0,0.0,0.0,0.0,0.0,0.0,0.0,0.0,0.0,0.0,0.0,0.0,0.0,0.0,0.0,0.0,0.0,0.0,0.0,0.0,0.0,0.0,0.0,0.0,0.0,0.0,0.0,0.0,0.0,0.0,0.0,0.0,0.0,0.0,0.0,0.0,0.0,0.0,0.0,0.0,-1.9568,-2.148,-2.2522,-2.278,-2.4155,-2.4727,-2.4218,-2.3554,0.0,0.0,0.0,0.0,0.0,0.0,0.0,0.0,0.0,0.0,0.0,0.0,0.0,0.0,0.0,0.0,0.0,0.0,0.0,0.0,0.0,0.0,0.0,0.0,0.0,0.0,0.0,-1.5949,0.0,0.0,0.0,0.0,0.0,0.0,0.0,0.0,0.0,0.0,0.0,0.0,0.0,0.0,-2.1379,-2.1879,-2.1955,-2.1961,0.0,0.0,-2.1888,-2.1569,-2.2559,-2.2943,0.0,0.0,0.0,0.0,0.0,0.0,0.0,0.0,0.0,0.0,0.0,0.0,0.0,0.0,0.0,0.0,0.0,0.0,0.0,0.0,0.0,0.0,0.0,0.0,0.0,0.0,0.0,0.0,0.0,0.0,0.0,0.0,0.0,0.0,0.0,0.0,0.0,0.0,0.0,0.0,0.0,0.0,0.0,0.0,0.0,0.0,0.0,0.0,0.0,0.0,0.0,0.0,0.0,0.0,0.0,-2.1143,-2.2163,-2.322,-2.4362,-2.4132,-2.4515,-2.5479,-2.3928,-2.3159,0.0,0.0,0.0,0.0,0.0,0.0,0.0,0.0,0.0,0.0,0.0,0.0,0.0,0.0,0.0,0.0,0.0,0.0,0.0,0.0,0.0,0.0,0.0,0.0,0.0,0.0,0.0,0.0,0.0,0.0,0.0,0.0,0.0,0.0,0.0,0.0,0.0,0.0,0.0,0.0,0.0,-2.1777,-2.1807,-2.1768,-2.1994,0.0,0.0,-2.2176,-2.3007,-2.3875,-2.3971,-2.2705,0.0,0.0,0.0,0.0,0.0,0.0,0.0,0.0,0.0,0.0,0.0,0.0,0.0,0.0,0.0,0.0,0.0,0.0,0.0,0.0,0.0,0.0,0.0,0.0,0.0,0.0,0.0,0.0,0.0,0.0,0.0,0.0,0.0,0.0,0.0,0.0,0.0,0.0,0.0,0.0,0.0,0.0,0.0,0.0,0.0,0.0,0.0,0.0,0.0,0.0,0.0,0.0,0.0,-2.0274,-2.0497,-2.2374,-2.3685,-2.4445,-2.4899,-2.5367,-2.5934,-2.484,-2.4244,0.0,0.0,0.0,0.0,0.0,0.0,0.0,0.0,0.0,0.0,0.0,0.0,0.0,0.0,0.0,0.0,0.0,0.0,0.0,0.0,0.0,0.0,0.0,0.0,0.0,0.0,0.0,0.0,-1.7907,-1.8264,-1.8701,0.0,0.0,0.0,0.0,0.0,0.0,0.0,0.0,0.0,0.0,-2.2858,-2.3254,-2.3682,0.0,0.0,-2.4166,-2.3978,-2.3882,-2.4559,-2.4611,-2.325,-2.3072,0.0,0.0,0.0,0.0,0.0,0.0,0.0,0.0,0.0,0.0,0.0,0.0,0.0,0.0,0.0,0.0,0.0,0.0,0.0,0.0,0.0,0.0,0.0,0.0,0.0,0.0,0.0,0.0,0.0,0.0,0.0,0.0,0.0,0.0,0.0,0.0,0.0,0.0,0.0,0.0,0.0,0.0,0.0,0.0,0.0,0.0,0.0,0.0,0.0,0.0,0.0,0.0,-2.1016,-2.1059,-2.3151,-2.4445,-2.495,-2.5686,-2.6154,-2.6258,-2.5806,-2.5383,0.0,0.0,0.0,0.0,0.0,0.0,0.0,0.0,0.0,0.0,0.0,0.0,0.0,0.0,0.0,0.0,0.0,0.0,0.0,0.0,0.0,0.0,0.0,0.0,0.0,0.0,0.0,0.0,-1.8666,-1.9216,-1.9861,0.0,0.0,0.0,0.0,0.0,0.0,0.0,0.0,0.0,0.0,-2.4035,-2.4297,-2.4744,-2.5053,-2.5025,-2.4856,-2.4667,-2.4364,-2.4802,-2.4885,-2.3869,0.0,0.0,0.0,0.0,0.0,0.0,0.0,0.0,0.0,0.0,0.0,0.0,0.0,0.0,0.0,0.0,0.0,0.0,0.0,0.0,0.0,0.0,0.0,0.0,0.0,0.0,0.0,0.0,0.0,0.0,-0.9612,0.0,0.0,0.0,0.0,0.0,0.0,0.0,0.0,0.0,0.0,0.0,0.0,0.0,0.0,0.0,0.0,0.0,0.0,0.0,0.0,0.0,0.0,-2.2359,-2.3417,-2.4653,-2.5645,-2.6229,-2.6404,-2.6578,-2.6779,-2.6765,-2.6431,-2.5785,0.0,0.0,0.0,0.0,0.0,0.0,0.0,0.0,0.0,0.0,0.0,0.0,0.0,0.0,0.0,0.0,0.0,0.0,0.0,0.0,0.0,0.0,0.0,0.0,0.0,0.0,-1.7315,-1.8656,-1.9877,0.0,0.0,0.0,0.0,0.0,0.0,0.0,0.0,0.0,0.0,-2.4076,-2.5126,-2.4601,-2.4523,-2.4632,-2.4714,-2.4073,-2.384,-2.4517,-2.4601,-2.4554,0.0,0.0,0.0,0.0,0.0,0.0,0.0,0.0,0.0,0.0,0.0,0.0,0.0,0.0,0.0,0.0,0.0,0.0,0.0,0.0,0.0,0.0,0.0,0.0,0.0,0.0,0.0,-0.9351,-0.9424,0.0,0.0,0.0,0.0,0.0,0.0,0.0,0.0,0.0,0.0,0.0,-1.6654,-1.6742,0.0,0.0,0.0,0.0,0.0,0.0,0.0,0.0,0.0,0.0,0.0,0.0,-2.3336,-2.4487,-2.5588,-2.6304,-2.6611,-2.6664,-2.677,-2.6937,-2.6937,-2.6696,-2.6059,0.0,0.0,0.0,0.0,0.0,0.0,0.0,0.0,0.0,0.0,0.0,0.0,0.0,0.0,0.0,0.0,0.0,0.0,0.0,0.0,0.0,0.0,0.0,0.0,0.0,-1.8671,0.0,0.0,0.0,0.0,0.0,0.0,0.0,0.0,0.0,0.0,0.0,-2.3406,-2.3842,-2.4471,-2.4942,-2.5274,-2.5695,-2.6302,0.0,0.0,0.0,0.0,0.0,0.0,0.0,0.0,0.0,0.0,0.0,0.0,0.0,0.0,-2.5799,-2.3339,-2.3727,-2.4312,-2.3951,0.0,0.0,0.0,0.0,0.0,0.0,0.0,0.0,0.0,0.0,0.0,0.0,0.0,0.0,-1.0453,0.0,-1.11,0.0,0.0,0.0,0.0,0.0,0.0,0.0,0.0,-1.6361,-1.7368,-1.8468,-1.8409,-1.891,0.0,-2.011,-1.9451,0.0,0.0,0.0,0.0,0.0,0.0,0.0,0.0,-2.4042,-2.4833,-2.6168,-2.6992,-2.7331,-2.7384,-2.763,-2.7965,-2.781,-2.7639,-2.7482,-2.6798,-2.6079,0.0,0.0,0.0,0.0,0.0,0.0,0.0,0.0,0.0,0.0,0.0,0.0,0.0,0.0,0.0,0.0,0.0,0.0,0.0,0.0,0.0,0.0,0.0,-1.9981,0.0,0.0,0.0,0.0,0.0,0.0,0.0,0.0,0.0,-2.3014,-2.3795,-2.4585,-2.5023,-2.5493,-2.5842,-2.6076,0.0,0.0,0.0,0.0,0.0,0.0,0.0,-2.7221,-2.7028,-2.7476,-2.7997,-2.8404,-2.8607,-2.8763,-2.8842,0.0,0.0,-2.5718,-2.6025,-2.6561,-2.5984,-2.6062,-2.6372,-2.6704,-2.6952,-2.7253,0.0,0.0,0.0,0.0,0.0,0.0,0.0,0.0,-1.1249,-1.1489,0.0,-1.2251,0.0,0.0,0.0,0.0,0.0,-1.5999,0.0,0.0,-1.9043,-1.9999,-1.9969,-2.0146,-2.0475,-2.0983,-2.122,-2.1338,-2.1383,-2.1712,0.0,0.0,0.0,0.0,0.0,0.0,-2.4568,-2.4697,-2.652,-2.7773,-2.8381,-2.8554,-2.9012,-2.9704,-2.9334,-2.9236,-2.9697,-2.7976,-2.7206,-2.7705,-2.4775,0.0,0.0,0.0,0.0,0.0,0.0,0.0,0.0,0.0,0.0,0.0,0.0,0.0,0.0,0.0,0.0,0.0,0.0,0.0,0.0,-2.0331,0.0,0.0,0.0,0.0,0.0,0.0,0.0,0.0,0.0,0.0,-2.4069,-2.4977,-2.579,-2.5932,0.0,0.0,0.0,0.0,-2.7857,-2.7257,-2.7243,-2.7344,-2.755,-2.8008,-2.8646,-2.9374,0.0,0.0,-3.0291,-2.9643,-2.9249,-2.9171,-2.9974,-3.0211,-2.9312,-2.9045,-2.8871,-2.8331,-2.8663,-2.8916,-2.8455,-2.8846,-2.9366,-1.2573,0.0,0.0,0.0,0.0,-1.2407,-1.2602,-1.2846,-1.3453,-1.3648,-1.3549,-1.425,0.0,0.0,0.0,0.0,0.0,0.0,-1.7647,-1.8853,-1.9484,-2.0447,-2.1668,-2.1817,-2.2428,-2.3433,-2.3592,-2.4096,-2.5011,-2.523,-2.4273,-2.2221,0.0,0.0,0.0,0.0,-2.617,-2.7024,-2.7895,-2.8571,-2.9005,-2.9475,-2.9756,-2.9765,-3.0228,-3.0281,-2.9978,-2.9819,-2.9182,-2.784,-2.7013,0.0,0.0,0.0,0.0,0.0,0.0,0.0,0.0,0.0,0.0,0.0,0.0,0.0,0.0,0.0,0.0,0.0,0.0,0.0,-2.11,-2.1819,-2.2239,0.0,0.0,0.0,0.0,0.0,0.0,0.0,0.0,0.0,-2.7025,-2.6983,-2.6878,0.0,0.0,-2.7359,-2.7153,-2.7767,-2.8558,-2.9444,-2.9154,0.0,0.0,-3.005,-2.9906,-3.0252,-3.1182,-3.1849,-3.1715,-3.2003,-3.2193,-3.2193,-3.2504,-3.2668,-3.2344,-3.1516,-3.0879,-3.075,-3.0815,-3.0879,-3.0813,-3.0956,-3.1131,-1.4346,-1.3951,-1.338,-1.3408,-1.3711,-1.3912,-1.4159,-1.4465,-1.495,-1.5154,-1.5134,-1.5725,-1.5877,-1.5728,-1.6068,0.0,0.0,0.0,-1.9217,-2.0664,-2.0987,-2.1866,-2.3178,-2.3306,-2.3837,-2.4814,-2.5096,-2.5844,-2.6995,-2.6819,-2.6075,-2.4855,0.0,0.0,-2.5555,-2.6718,-2.7739,-2.8465,-2.9041,-2.9612,-3.0235,-3.0921,-3.1197,-3.1068,-3.1244,-3.1298,-3.125,-3.1021,-3.0446,-2.9429,-2.8614,-2.757,0.0,0.0,0.0,0.0,0.0,0.0,0.0,0.0,0.0,0.0,0.0,-2.1954,-2.1406,0.0,0.0,0.0,-2.2416,-2.2907,-2.3065,-2.3285,0.0,0.0,0.0,0.0,0.0,0.0,0.0,-2.5191,-2.639,-2.758,-2.8549,-2.8791,-2.8769,-2.8578,-2.8535,-2.8535,-2.8446,0.0,-2.9952,-3.0862,-3.0479,-3.059,-3.2015,-3.2031,-3.2079,-3.2788,-3.3478,-3.3938,-3.3934,-3.4338,-3.4699,-3.4716,-3.4804,-3.4907,-3.4891,-3.4129,-3.3208,-3.2418,-3.2802,-3.312,-3.2657,-3.3045,-3.3498,-1.5742,-1.6019,-1.4759,-1.4415,-1.4707,-1.5226,-1.5542,-1.5739,-1.6082,-1.6294,-1.648,-1.6877,-1.7049,-1.7011,-1.7313,0.0,-1.9814,-2.0369,-2.1308,-2.2542,-2.3087,-2.3775,-2.459,-2.4604,-2.4916,-2.5461,-2.611,-2.6852,-2.766,-2.7195,-2.7342,-2.8266,-2.8179,-2.7614,-2.6767,-2.8157,-2.9093,-2.9469,-3.0124,-3.0874,-3.1772,-3.2516,-3.2897,-3.2866,-3.2289,-3.231,-3.2964,-3.1701,-3.1212,-3.1675,-2.9847,-2.8682,-2.8427,0.0,0.0,0.0,0.0,0.0,0.0,0.0,0.0,0.0,0.0,0.0,0.0,0.0,0.0,0.0,-2.4806,0.0,-2.5374,-2.4722,0.0,0.0,0.0,-2.5017,-2.5875,-2.649,-2.6888,-2.699,0.0,0.0,-2.9244,-3.0419,-3.1131,-3.0969,-3.0826,-3.0669,-3.0575,-3.1182,-3.1726,-3.1871,-3.155,-3.1871,-3.3389,-3.3955,-3.4597,-3.5752,-3.634,-3.6194,-3.6178,-3.6263,-3.645,-3.6385,-3.6571,-3.6643,-3.6675,-3.6473,-3.586,-3.3512,-3.4503,-3.5364,-3.4274,-3.4908,-3.5771,-1.786,-1.81,-1.7852,-1.7539,-1.7248,-1.8087,-1.816,-1.7787,-1.8433,-1.8378,-1.7784,-1.837,-1.9226,-2.0284,-2.0575,-2.1308,-2.2385,-2.2533,-2.2964,-2.3562,-2.3803,-2.4431,-2.5293,-2.5459,-2.5988,-2.6905,-2.7594,-2.8188,-2.8834,-2.92,-2.9149,-2.8845,-2.9557,-2.9204,-2.7871,-2.8686,-2.9653,-3.0746,-3.1805,-3.2392,-3.2454,-3.2586,-3.2687,-3.2672,-3.2671,-3.2741,-3.2935,-3.2585,-3.2211,-3.1836,-3.1706,-3.0951,-2.9474,-2.8044,0.0,0.0,0.0,0.0,0.0,0.0,0.0,0.0,0.0,-2.2992,-2.2532,0.0,-2.2934,0.0,-2.4883,-2.5837,-2.611,-2.595,0.0,0.0,-2.6733,-2.7315,-2.8111,-2.9342,-2.9923,-2.941,-3.0231,-3.103,-3.1665,-3.2044,-3.2669,-3.3689,-3.2684,-3.1813,-3.1767,-3.2414,-3.3128,-3.3649,-3.3647,-3.4133,-3.5542,-3.5967,-3.6228,-3.6538,-3.6551,-3.6466,-3.6466,-3.6377,-3.6393,-3.6482,-3.6519,-3.6587,-3.6708,-3.7118,-3.7065,-3.6013,-3.5999,-3.6099,-3.5727,-3.6023,-3.6287,-1.8698,-1.8912,-1.9342,-1.9505,-1.9433,-1.9561,-1.9264,-1.8794,-1.9666,-1.9715,-1.9294,-2.0288,-2.1142,-2.193,-2.2272,-2.2694,-2.3294,-2.3724,-2.4031,-2.4409,-2.4869,-2.5687,-2.6739,-2.6909,-2.7506,-2.8561,-2.8937,-2.9531,-3.0274,-3.0314,-3.0351,-3.0459,-3.0985,-3.0627,-2.9518,-2.9678,-3.0541,-3.1913,-3.271,-3.3105,-3.2944,-3.2973,-3.2855,-3.2504,-3.252,-3.2394,-3.2081,-3.2013,-3.1774,-3.1384,-3.1934,-3.1413,-2.9673,-2.8008,-2.6994,0.0,0.0,0.0,0.0,0.0,0.0,0.0,0.0,0.0,0.0,0.0,-2.4673,-2.5277,-2.6709,-2.7614,-2.7558,-2.7858,-2.8223,-2.8697,-2.9156,-2.9763,-3.0639,-3.1402,-3.1759,-3.152,-3.2029,-3.264,-3.3176,-3.3789,-3.4515,-3.5376,-3.4949,-3.4261,-3.3545,-3.3875,-3.4497,-3.4923,-3.5444,-3.6244,-3.7531,-3.7732,-3.7679,-3.7588,-3.7588,-3.7572,-3.7481,-3.7497,-3.7497,-3.7518,-3.7572,-3.7625,-3.7695,-3.8044,-3.8175,-3.7843,-3.7535,-3.7313,-3.7052,-3.7232,-3.7481,-1.9248,-1.9463,-2.0125,-2.0799,-2.126,-2.0452,-1.9843,-1.9547,-2.0466,-2.0822,-2.0819,-2.2072,-2.2711,-2.2831,-2.3177,-2.3443,-2.3697,-2.447,-2.4987,-2.5293,-2.614,-2.7142,-2.8299,-2.8509,-2.9087,-3.0053,-3.0144,-3.0707,-3.1663,-3.101,-3.1218,-3.2199,-3.2127,-3.1762,-3.1149,-3.0803,-3.1311,-3.2616,-3.3055,-3.324,-3.3256,-3.3319,-3.297,-3.2282,-3.2084,-3.1636,-3.1024,-3.0892,-3.0791,-3.0857,-3.1299,-3.106,-2.979,-2.7458,-2.6572,0.0,-2.5922,0.0,0.0,0.0,0.0,0.0,0.0,0.0,0.0,-2.7042,-2.7434,-2.8394,-2.9291,-2.9761,-2.9473,-3.0038,-3.0746,-3.1528,-3.1737,-3.2122,-3.2923,-3.2911,-3.2961,-3.3332,-3.376,-3.4071,-3.4384,-3.5566,-3.6384,-3.6499,-3.6883,-3.6636,-3.5512,-3.5547,-3.5876,-3.5925,-3.7044,-3.8088,-3.8834,-3.9065,-3.8941,-3.8788,-3.8832,-3.9018,-3.8864,-3.8892,-3.8952,-3.8997,-3.8882,-3.899,-3.9139,-3.9127,-3.911,-3.9143,-3.8952,-3.8581,-3.8084,-3.8297,-3.8772,-2.1319,-2.1393,-2.1673,-2.1968,-2.214,-2.197,-2.174,-2.1547,-2.2006,-2.214,-2.2096,-2.2658,-2.3366,-2.4095,-2.4482,-2.4973,-2.5596,-2.587,-2.6193,-2.6634,-2.7457,-2.8113,-2.8711,-2.929,-2.9803,-3.0345,-3.0867,-3.1365,-3.1784,-3.2044,-3.2044,-3.1815,-3.1747,-3.1721,-3.1706,0.0,0.0,0.0,-3.241,-3.315,-3.3134,-3.2568,-3.2206,-3.2065,-3.1479,0.0,-3.0992,-3.0892,-3.0842,-3.0942,-3.0986,0.0,0.0,0.0,0.0,0.0,0.0,0.0,0.0,0.0,0.0,0.0,-2.8419,-2.8386,-2.8573,-2.8772,-2.9753,-3.1773,-3.1267,-3.1018,-3.1667,-3.1876,-3.2069,-3.2352,-3.2846,-3.3333,-3.3789,-3.4243,-3.4701,-3.493,-3.5585,-3.6021,-3.6194,-3.6922,-3.7412,-3.7542,-3.7515,-3.7465,-3.7326,-3.7183,-3.7353,-3.7936,-3.8687,-3.9339,-3.9606,-3.959,-3.9484,-3.9379,-3.9325,-3.9557,-3.9858,-3.9386,-3.9341,-3.9858,-3.949,-3.9308,-4.0126,-3.9847,-3.9628,-4.018,-3.9777,-3.9239,-3.8734,-3.8707,-3.886,-2.1726,0.0,-2.2575,-2.2996,0.0,-2.3368,-2.345,-2.3458,-2.3204,-2.3314,-2.3712,-2.3973,-2.4368,-2.4984,-2.5672,-2.6172,-2.6647,-2.7207,-2.7639,-2.7993,-2.8693,-2.9274,-2.9803,-3.0236,-3.08,-3.1504,-3.1836,-3.2168,-3.242,-3.2694,-3.2748,-3.2615,-3.2547,-3.2615,-3.2807,-3.2843,-3.2341,-3.1275,-3.335,-3.427,-3.3893,-3.3958,-3.3789,-3.3403,0.0,0.0,0.0,0.0,0.0,0.0,0.0,0.0,0.0,0.0,0.0,-3.1094,-3.0083,-2.9611,-2.9926,-2.9754,-2.9959,-3.0768,-3.131,-3.115,-3.0052,-3.0289,-3.1209,-3.2899,-3.2501,-3.2452,-3.3135,-3.3482,-3.3822,-3.3931,-3.423,-3.4539,-3.471,-3.5011,-3.5425,-3.6009,-3.638,-3.6734,-3.7168,-3.786,-3.8364,-3.8464,-3.8636,-3.8839,-3.8986,-3.8503,-3.8305,-3.9008,-3.9393,-3.9677,-3.9746,-3.9746,-3.9845,-3.9937,-3.9787,-3.9818,-4.0304,-3.9752,-3.9504,-4.0166,-4.0034,-4.0088,-4.079,-4.0762,-4.0584,-4.055,-4.03,-4.0051,-3.9769,-3.945,-3.9202,-2.2028,-2.2474,-2.3415,-2.3966,-2.4217,-2.454,-2.4848,-2.5088,0.0,0.0,0.0,-2.5381,-2.5688,-2.6064,-2.6849,-2.723,-2.7469,-2.8378,-2.8834,-2.8972,-2.9723,-3.0286,-3.087,-3.1158,-3.1767,-3.2633,-3.2726,-3.2913,-3.3323,-3.3323,-3.3445,-3.3641,-3.3752,-3.3921,-3.4074,-3.4782,-3.4383,-3.2966,-3.4727,-3.5479,-3.4924,-3.5444,-3.5433,-3.4803,-3.4425,-3.3731,-3.2574,-3.2297,-3.1864,-3.1247,-3.1215,-3.1265,-3.125,-3.084,-3.0954,-3.1528,-3.0609,-3.0577,-3.1851,-3.1598,-3.1919,-3.3241,-3.4054,-3.3665,-3.1709,-3.1919,-3.2514,-3.3379,-3.3498,-3.3707,-3.4126,-3.4722,-3.5135,-3.5337,-3.5337,-3.5417,-3.5706,-3.5631,-3.598,-3.6823,-3.711,-3.7287,-3.7959,-3.8783,-3.9289,-3.934,-3.9713,-4.0306,-4.0323,-3.9581,-3.9143,-3.9831,-4.005,-4.005,-4.015,-4.0083,-4.0199,-4.0545,-4.0247,-4.018,-4.0467,-4.0284,-4.0234,-4.0928,-4.0883,-4.1083,-4.1627,-4.1605,-4.146,-4.0938,-4.0738,-4.0658,-4.0528,-4.0177,-3.984,-2.3802,-2.4429,-2.4887,-2.5039,-2.5116,-2.5179,-2.5556,-2.6007,-2.4767,-2.4918,-2.6226,-2.6327,-2.7032,-2.8068,-2.821,-2.8381,-2.8494,-2.8887,-2.9153,0.0,-3.0353,-3.0958,-3.1158,-3.1763,-3.2305,-3.2827,-3.2874,-3.3302,-3.406,-3.4178,-3.4194,-3.4295,-3.4833,-3.5189,-3.5363,-3.6166,-3.6517,-3.6277,-3.5863,-3.5561,-3.5482,-3.5058,-3.4755,-3.459,-3.408,-3.365,-3.3427,-3.2685,-3.2238,-3.2108,-3.2143,-3.2193,-3.226,-3.2755,-3.3125,-3.3339,-3.3147,-3.3419,-3.4222,-3.4378,-3.4565,-3.5015,-3.5281,-3.5004,-3.4088,-3.4056,-3.4218,-3.4493,-3.4478,-3.4638,-3.4908,-3.5055,-3.5248,-3.5463,-3.5446,-3.5739,-3.6644,-3.6649,-3.6903,-3.7882,-3.8486,-3.886,-3.9143,-3.9788,-4.0197,-4.0266,-4.0317,-4.0656,-4.0982,-4.0527,-4.024,-4.0797,-4.1,-4.127,-4.1574,-4.1354,-4.11,-4.0944,-4.1013,-4.1148,-4.1674,-4.1678,-4.1795,-4.249,-4.2088,-4.211,-4.2752,-4.1917,-4.1597,-4.1661,-4.1376,-4.0872,-4.0316,-4.0591,-4.0965,-2.4352,-2.4859,-2.5498,-2.5936,-2.6269,-2.6559,-2.6698,-2.6708,-2.6199,-2.6397,-2.7139,-2.7211,-2.7668,-2.834,-2.8915,-2.9246,-2.9389,-3.011,-3.0485,-3.0698,-3.143,-3.1787,-3.1958,-3.2918,-3.3466,-3.3568,-3.4203,-3.4628,-3.4889,-3.4905,-3.4976,-3.5015,-3.5498,-3.5903,-3.6342,-3.683,-3.7295,-3.7633,-3.7231,-3.707,-3.711,-3.6805,-3.666,-3.6644,-3.6284,-3.5931,-3.5616,-3.5171,-3.4697,-3.4313,-3.4318,-3.4318,-3.4386,-3.4354,-3.4358,-3.4462,-3.4108,-3.4043,-3.4433,-3.4907,-3.5451,-3.6032,-3.6235,-3.6205,-3.5926,-3.5432,-3.5136,-3.53,-3.53,-3.5398,-3.5656,-3.5704,-3.5847,-3.6173,-3.6494,-3.6992,-3.7546,-3.7614,-3.795,-3.8726,-3.9105,-3.9481,-3.9922,-4.028,-4.0583,-4.068,-4.0728,-4.0834,-4.1111,-4.0692,-4.0763,-4.1767,-4.2039,-4.2158,-4.2464,-4.2294,-4.2209,-4.2479,-4.2277,-4.2343,-4.2797,-4.2782,-4.2763,-4.3213,-4.3078,-4.3141,-4.3693,-4.3283,-4.2728,-4.2021,-4.2257,-4.1853,-4.154,-4.1985,-4.2277,-2.4956,-2.5458,-2.6271,-2.6857,-2.7309,-2.7805,-2.7858,-2.7597,-2.7797,-2.8082,-2.8347,-2.8161,-2.8322,-2.8958,-2.9624,-3.0032,-3.0337,-3.1155,-3.1682,-3.1883,-3.2318,-3.2508,-3.2585,-3.3559,-3.4022,-3.4195,-3.5225,-3.5676,-3.5688,-3.5672,-3.5864,-3.6143,-3.6197,-3.6509,-3.7102,-3.7343,-3.7673,-3.8205,-3.8237,-3.8294,-3.8391,-3.8391,-3.8391,-3.8391,-3.8262,-3.802,-3.7598,-3.7309,-3.6899,-3.6281,-3.6287,-3.6206,-3.5975,-3.5706,-3.5485,-3.5448,-3.4945,-3.4769,-3.5015,-3.582,-3.6495,-3.6976,-3.7197,-3.7217,-3.7085,-3.6621,-3.619,-3.6175,-3.6175,-3.629,-3.6502,-3.6599,-3.6743,-3.7077,-3.7628,-3.8078,-3.8487,-3.8567,-3.8841,-3.9508,-3.9679,-3.9966,-4.0412,-4.0631,-4.0728,-4.0888,-4.1056,-4.1129,-4.1099,-4.104,-4.1728,-4.2569,-4.2826,-4.2706,-4.2894,-4.2843,-4.3065,-4.3748,-4.3423,-4.3338,-4.3593,-4.3458,-4.3456,-4.3912,-4.4014,-4.4113,-4.4384,-4.4226,-4.3669,-4.2878,-4.298,-4.3203,-4.2908,-4.3268,-4.3561,-2.6424,-2.7087,-2.7617,-2.7934,-2.8038,-2.8363,-2.8693,-2.8941,-2.9392,-2.9897,-3.0187,-2.9237,-2.9651,-3.0881,-3.0734,-3.0867,-3.1159,-3.1724,-3.194,-3.2068,-3.257,-3.2843,-3.2905,-3.2958,-3.3277,-3.4156,-3.5153,-3.5985,-3.6451,-3.6508,-3.7013,-3.7769,-3.7231,-3.7118,-3.7742,-3.7822,-3.7985,-3.8221,-3.8237,-3.8294,-3.8391,-3.8391,-3.8391,-3.8391,-3.8408,-3.8375,-3.8246,-3.7663,-3.718,-3.7061,-3.7116,-3.6809,-3.6206,-3.6664,-3.6891,-3.6417,-3.6303,-3.6653,-3.7518,-3.8454,-3.8573,-3.8127,-3.8199,-3.8019,-3.7453,-3.7953,-3.7936,-3.7386,-3.7319,-3.7384,-3.7564,-3.7627,-3.777,-3.7929,-3.8235,-3.8625,-3.9166,-3.935,-3.9671,-4.0329,-4.0556,-4.0819,-4.0853,-4.0935,-4.1047,-4.1093,-4.1445,-4.1825,-4.2077,-4.2379,-4.2888,-4.3629,-4.2962,-4.2552,-4.3373,-4.3167,-4.3356,-4.3852,-4.3868,-4.3938,-4.4074,-4.4451,-4.479,-4.4568,-4.479,-4.4787,-4.4702,-4.4463,-4.3985,-4.3659,-4.3659,-4.385,-4.3923,-4.4078,-4.3992,-2.7168,-2.7469,-2.7881,-2.8341,-2.8716,-2.9135,-2.9387,-2.9512,-2.9851,-3.0542,-3.1289,-3.0466,-3.0454,-3.1176,-3.1219,-3.1263,-3.1452,-3.191,-3.2094,-3.2181,-3.2884,-3.3293,-3.3552,-3.4312,-3.4925,-3.5502,-3.6258,-3.6848,-3.7123,-3.7197,-3.7588,-3.8116,-3.7817,-3.7833,-3.8148,-3.8221,-3.8221,-3.8335,-3.8351,-3.8335,-3.8391,-3.8391,-3.8448,-3.852,-3.8448,-3.8464,-3.8488,-3.8156,-3.7882,-3.7842,-3.7898,-3.7809,-3.7462,-3.7426,-3.734,-3.7085,-3.68,-3.7003,-3.783,-3.8229,-3.8533,-3.8808,-3.8894,-3.885,-3.8789,-3.9109,-3.921,-3.8858,-3.8455,-3.8154,-3.8254,-3.8286,-3.8385,-3.8647,-3.9146,-3.9682,-4.0069,-4.0264,-4.0466,-4.0741,-4.0918,-4.1029,-4.1029,-4.1169,-4.1261,-4.1261,-4.1528,-4.194,-4.2434,-4.2641,-4.3013,-4.3554,-4.3093,-4.3373,-4.4388,-4.4594,-4.4491,-4.468,-4.48,-4.48,-4.4782,-4.4989,-4.5177,-4.5123,-4.5123,-4.514,-4.5106,-4.4827,-4.4502,-4.4281,-4.4182,-4.4285,-4.4872,-4.4993,-4.4958,-2.7536,-2.7683,-2.8239,-2.8831,-2.9361,-2.9883,-3.0207,-3.0472,-3.0673,-3.1366,-3.2298,-3.187,-3.1605,-3.156,-3.1584,-3.161,-3.1754,-3.2262,-3.2578,-3.2767,-3.3553,-3.4104,-3.4397,-3.5488,-3.6142,-3.6474,-3.7101,-3.7508,-3.7642,-3.7817,-3.7992,-3.8237,-3.8237,-3.8294,-3.8408,-3.8391,-3.8391,-3.8391,-3.8391,-3.8391,-3.8391,-3.8391,-3.8448,-3.8504,-3.8504,-3.8504,-3.8576,-3.852,-3.8448,-3.8448,-3.8408,-3.8391,-3.8375,-3.804,-3.7856,-3.7861,-3.7666,-3.7653,-3.8196,-3.8282,-3.8603,-3.9189,-3.9379,-3.9484,-3.9677,-3.9849,-3.9901,-3.9868,-3.9345,-3.8992,-3.8992,-3.9043,-3.916,-3.9393,-4.0016,-4.0502,-4.0631,-4.0793,-4.0871,-4.0888,-4.1224,-4.1603,-4.1806,-4.2079,-4.2223,-4.2205,-4.217,-4.2269,-4.2812,-4.2964,-4.3067,-4.3715,-4.3823,-4.4091,-4.4941,-4.4941,-4.5147,-4.5423,-4.5319,-4.5302,-4.5441,-4.5423,-4.5353,-4.5247,-4.53,-4.5283,-4.5353,-4.5178,-4.5127,-4.4768,-4.4665,-4.4888,-4.539,-4.5632,-4.5649,-2.759,-2.7934,-2.8985,-2.9586,-2.9983,-3.0588,-3.125,-3.1833,-3.2197,-3.2713,-3.3223,-3.3456,-3.3231,-3.263,-3.2131,-3.1883,-3.2242,-3.2977,-3.3496,-3.3839,-3.4776,-3.5291,-3.5379,-3.5837,-3.6216,-3.6548,-3.7133,-3.761,-3.7886,-3.8205,-3.8391,-3.8391,-3.8391,-3.8391,-3.8391,-3.8391,-3.8391,-3.8391,-3.8391,-3.8391,-3.8391,-3.8391,-3.8408,-3.8391,-3.8504,-3.856,-3.8632,-3.8616,-3.8576,-3.856,-3.8464,-3.8408,-3.8391,-3.8511,-3.8629,-3.8887,-3.9139,-3.9246,-3.9209,-3.9368,-3.9454,-3.9379,-3.952,-3.9677,-3.9729,-3.9833,-3.9935,-4.007,-3.9986,-3.9952,-3.9952,-3.9952,-4.0052,-4.0186,-4.0468,-4.0634,-4.0585,-4.0965,-4.0858,-4.1047,-4.1825,-4.2549,-4.346,-4.3799,-4.3605,-4.3553,-4.3687,-4.3775,-4.392,-4.3834,-4.409,-4.4686,-4.4785,-4.4622,-4.4457,-4.4734,-4.4958,-4.5165,-4.5441,-4.5441,-4.5441,-4.5441,-4.5371,-4.5423,-4.5476,-4.5528,-4.5581,-4.5615,-4.5649,-4.5527,-4.5493,-4.57,-4.587,-4.5803,-4.5821,-2.8118,-2.8563,-2.9539,-3.0179,-3.0572,-3.1344,-3.2019,-3.2483,-3.2723,-3.3273,-3.3946,-3.3756,-3.3895,-3.4453,-3.3765,-3.3288,-3.3111,-3.3882,-3.4364,-3.4613,-3.5483,-3.5912,-3.5975,-3.6585,-3.7033,-3.7234,-3.7381,-3.7626,-3.7844,-3.8033,-3.8221,-3.8408,-3.852,-3.8504,-3.8504,-3.8504,-3.852,-3.852,-3.8464,-3.8391,-3.8424,-3.8391,-3.8391,-3.8391,-3.852,-3.8616,-3.8694,-3.8766,-3.8711,-3.8766,-3.8616,-3.856,-3.8655,-3.8766,-3.8931,-3.9164,-3.9325,-3.9325,-3.9325,-3.9395,-3.9468,-3.9573,-3.9625,-3.9781,-3.9918,-3.9986,-4.0087,-4.0188,-4.0238,-4.0238,-4.0337,-4.0221,-4.0188,-4.0406,-4.0945,-4.1381,-4.1584,-4.2137,-4.261,-4.2632,-4.3084,-4.339,-4.3441,-4.3772,-4.3923,-4.3535,-4.3862,-4.4392,-4.4834,-4.4894,-4.5112,-4.5668,-4.5782,-4.5586,-4.5436,-4.5319,-4.5389,-4.5425,-4.5528,-4.5476,-4.5476,-4.5423,-4.5423,-4.5563,-4.5632,-4.5718,-4.5821,-4.5871,-4.5972,-4.6055,-4.6005,-4.6055,-4.6253,-4.6154,-4.6055,-2.8806,-2.9371,-3.0508,-3.1237,-3.1697,-3.2558,-3.3158,-3.348,-3.3672,-3.4178,-3.4715,-3.4448,-3.4728,-3.5309,-3.5199,-3.4855,-3.4388,-3.4891,-3.5194,-3.5472,-3.6232,-3.6621,-3.6699,-3.7212,-3.761,-3.7743,-3.7833,-3.7934,-3.8107,-3.8107,-3.8164,-3.8408,-3.8504,-3.8632,-3.8632,-3.8616,-3.8737,-3.8933,-3.8634,-3.8545,-3.8724,-3.8521,-3.8391,-3.8391,-3.856,-3.8655,-3.8766,-3.875,-3.8805,-3.8805,-3.8711,-3.8766,-3.8914,-3.9143,-3.9305,-3.9395,-3.9432,-3.9432,-3.9379,-3.9432,-3.959,-3.9677,-3.9781,-3.9918,-4.0087,-4.0121,-4.0238,-4.0337,-4.0387,-4.0485,-4.0534,-4.0436,-4.0387,-4.0504,-4.1094,-4.1581,-4.1695,-4.2319,-4.2857,-4.3156,-4.3384,-4.3585,-4.3845,-4.4359,-4.4564,-4.4263,-4.4822,-4.5417,-4.5815,-4.5928,-4.6017,-4.6418,-4.6376,-4.6213,-4.613,-4.5996,-4.5765,-4.5735,-4.5736,-4.5632,-4.5615,-4.5563,-4.5563,-4.5718,-4.5803,-4.5905,-4.6023,-4.6122,-4.6221,-4.6301,-4.6301,-4.635,-4.6398,-4.6447,-4.635,-2.9706,-3.0187,-3.1755,-3.2582,-3.3105,-3.3897,-3.4528,-3.4787,-3.5014,-3.523,-3.5552,-3.5788,-3.555,-3.5523,-3.6091,-3.6335,-3.5985,-3.5954,-3.6146,-3.6443,-3.7054,-3.7354,-3.746,-3.761,-3.7743,-3.7902,-3.8205,-3.8408,-3.852,-3.8391,-3.8335,-3.8391,-3.8504,-3.8632,-3.8632,-3.8727,-3.9149,-3.9437,-3.8974,-3.9023,-3.9495,-3.8869,-3.8505,-3.8529,-3.8688,-3.8711,-3.8616,-3.875,-3.886,-3.886,-3.8805,-3.8985,-3.9288,-3.9598,-3.9721,-3.9618,-3.9726,-3.9726,-3.9654,-3.9878,-4.0033,-4.0033,-4.0053,-4.029,-4.0443,-4.0425,-4.0457,-4.0671,-4.0683,-4.0697,-4.0728,-4.0776,-4.0776,-4.0762,-4.1013,-4.1259,-4.1301,-4.1284,-4.1696,-4.2763,-4.3313,-4.389,-4.5017,-4.5551,-4.5711,-4.613,-4.6478,-4.6631,-4.6646,-4.6618,-4.6724,-4.676,-4.6637,-4.6525,-4.6542,-4.6542,-4.6253,-4.6005,-4.5922,-4.5871,-4.5854,-4.5854,-4.5854,-4.5938,-4.6087,-4.6235,-4.6301,-4.6398,-4.6447,-4.6495,-4.6542,-4.6542,-4.659,-4.6637,-4.659,-3.0363,-3.094,-3.2221,-3.303,-3.358,-3.4287,-3.4935,-3.5444,-3.5509,-3.5703,-3.5894,-3.5988,-3.6041,-3.6121,-3.6461,-3.6722,-3.6939,-3.688,-3.6955,-3.718,-3.7472,-3.7626,-3.77,-3.7934,-3.7992,-3.7976,-3.8164,-3.8294,-3.8351,-3.8294,-3.8294,-3.8391,-3.8504,-3.8632,-3.8632,-3.8711,-3.8923,-3.9056,-3.9276,-3.9495,-3.9752,-3.9363,-3.9136,-3.9088,-3.8837,-3.8655,-3.875,-3.8985,-3.9164,-3.9164,-3.9164,-3.9218,-3.9548,-4.0124,-4.0445,-4.0478,-4.0933,-4.1184,-4.1184,-4.1221,-4.1241,-4.1328,-4.1435,-4.1557,-4.1681,-4.1359,-4.1287,-4.1398,-4.1216,-4.0982,-4.1041,-4.1071,-4.1059,-4.1,-4.162,-4.2004,-4.216,-4.2752,-4.3427,-4.38,-4.4395,-4.4839,-4.5071,-4.5596,-4.6364,-4.6274,-4.6676,-4.698,-4.6934,-4.6934,-4.6934,-4.6934,-4.6824,-4.6731,-4.6731,-4.6731,-4.659,-4.635,-4.6301,-4.6221,-4.6253,-4.6204,-4.6186,-4.6235,-4.6381,-4.6477,-4.6572,-4.659,-4.6637,-4.6637,-4.6655,-4.6749,-4.6842,-4.6842,-4.6749,-3.1078,-3.1712,-3.2897,-3.3723,-3.4164,-3.4736,-3.5264,-3.5688,-3.5767,-3.5894,-3.6037,-3.6085,-3.6289,-3.6554,-3.6723,-3.7013,-3.7342,-3.7373,-3.7449,-3.7658,-3.7642,-3.77,-3.7833,-3.8107,-3.8221,-3.8164,-3.8294,-3.8335,-3.8335,-3.8294,-3.8335,-3.8408,-3.852,-3.8632,-3.8632,-3.8727,-3.889,-3.9146,-3.9243,-3.9503,-3.9771,-3.9764,-3.9577,-3.9202,-3.9161,-3.9135,-3.9175,-3.9737,-3.9934,-3.9806,-3.9823,-4.0064,-4.0461,-4.0903,-4.1157,-4.1359,-4.1732,-4.2001,-4.198,-4.195,-4.2126,-4.2233,-4.2303,-4.2223,-4.2193,-4.1851,-4.1862,-4.1905,-4.1708,-4.1539,-4.1615,-4.1736,-4.1632,-4.1353,-4.181,-4.2279,-4.2519,-4.3076,-4.3572,-4.3828,-4.4432,-4.4831,-4.5303,-4.5749,-4.6579,-4.632,-4.6722,-4.7043,-4.7043,-4.6998,-4.6998,-4.6998,-4.6952,-4.6888,-4.687,-4.687,-4.687,-4.6778,-4.6684,-4.6637,-4.6637,-4.6607,-4.659,-4.6542,-4.6637,-4.6619,-4.6731,-4.6684,-4.6702,-4.6749,-4.6795,-4.6842,-4.6952,-4.6934,-4.6888,-3.1829,-3.2472,-3.3825,-3.4558,-3.4876,-3.5279,-3.5539,-3.5767,-3.5894,-3.6085,-3.6211,-3.6258,-3.6399,-3.6708,-3.6968,-3.7194,-3.7433,-3.7492,-3.7685,-3.7817,-3.7759,-3.7759,-3.7992,-3.8237,-3.8335,-3.8391,-3.8504,-3.856,-3.852,-3.8408,-3.8391,-3.8391,-3.852,-3.8576,-3.8649,-3.8743,-3.9159,-3.9478,-3.9243,-3.9471,-4.0091,-4.0172,-3.9926,-3.9105,-3.9722,-4.0008,-4.005,-4.0842,-4.1061,-4.0569,-4.0707,-4.1159,-4.1833,-4.1839,-4.1836,-4.2139,-4.2334,-4.2449,-4.2328,-4.2469,-4.2509,-4.2615,-4.272,-4.2552,-4.2294,-4.2343,-4.2423,-4.2437,-4.2375,-4.2367,-4.2492,-4.266,-4.2482,-4.1965,-4.1912,-4.1921,-4.2023,-4.2257,-4.285,-4.3373,-4.3786,-4.4436,-4.565,-4.6042,-4.6471,-4.6802,-4.708,-4.707,-4.7088,-4.7043,-4.7043,-4.6998,-4.7043,-4.7025,-4.7007,-4.7053,-4.7053,-4.7116,-4.7007,-4.7007,-4.698,-4.6934,-4.6934,-4.6916,-4.687,-4.687,-4.687,-4.687,-4.6888,-4.6934,-4.698,-4.6998,-4.698,-4.698,-4.6934,-3.2925,-3.345,-3.4283,-3.4817,-3.5148,-3.5374,-3.5748,-3.6022,-3.6148,-3.6274,-3.6399,-3.6538,-3.6585,-3.6708,-3.6984,-3.715,-3.7373,-3.7373,-3.7567,-3.7817,-3.7759,-3.7934,-3.8164,-3.8237,-3.8278,-3.8391,-3.8391,-3.8448,-3.8464,-3.8391,-3.8408,-3.8391,-3.8529,-3.8497,-3.8497,-3.9137,-3.9227,-3.9284,-4.0294,-4.0834,-4.1154,-4.1278,-4.1327,-4.1245,-4.1025,-4.0934,-4.104,-4.1879,-4.2116,-4.1488,-4.1133,-4.1398,-4.2247,-4.2534,-4.2804,-4.3078,-4.3623,-4.3927,-4.3809,-4.3457,-4.3277,-4.3314,-4.3473,-4.3544,-4.3529,-4.358,-4.3783,-4.3846,-4.361,-4.3418,-4.3605,-4.3663,-4.3429,-4.2951,-4.2455,-4.2143,-4.2323,-4.2798,-4.3286,-4.3584,-4.4664,-4.5495,-4.604,-4.6542,-4.6918,-4.7115,-4.7205,-4.7178,-4.7133,-4.7133,-4.7133,-4.7151,-4.7133,-4.716,-4.7187,-4.7232,-4.7276,-4.7381,-4.7338,-4.7294,-4.7276,-4.7187,-4.7187,-4.7187,-4.7098,-4.7098,-4.7143,-4.7187,-4.7205,-4.7116,-4.7133,-4.7133,-4.7025,-4.698,-4.6998,-3.346,-3.3993,-3.4566,-3.5001,-3.5394,-3.5604,-3.591,-3.6211,-3.6336,-3.6461,-3.66,-3.6739,-3.6846,-3.6952,-3.7089,-3.7329,-3.7492,-3.7508,-3.7626,-3.7865,-3.8062,-3.8147,-3.8187,-3.8107,-3.8123,-3.8221,-3.8294,-3.8335,-3.8351,-3.8351,-3.8553,-3.8829,-3.8861,-3.8861,-3.8967,-3.9332,-3.9332,-3.8991,-4.0196,-4.1304,-4.1922,-4.2063,-4.1922,-4.1997,-4.1832,-4.2086,-4.2468,-4.2808,-4.2808,-4.2445,-4.2351,-4.2557,-4.3052,-4.3483,-4.3809,-4.3965,-4.4461,-4.4546,-4.4385,-4.4167,-4.3914,-4.361,-4.3886,-4.413,-4.3924,-4.4026,-4.4283,-4.4518,-4.4216,-4.4253,-4.4437,-4.4364,-4.4139,-4.3853,-4.3451,-4.3041,-4.2876,-4.3215,-4.3846,-4.4539,-4.5369,-4.6201,-4.6582,-4.6998,-4.7204,-4.7276,-4.7276,-4.7249,-4.7249,-4.7249,-4.7267,-4.7267,-4.7267,-4.7276,-4.732,-4.7363,-4.7407,-4.7511,-4.7572,-4.7554,-4.7468,-4.7407,-4.7363,-4.7363,-4.732,-4.732,-4.732,-4.732,-4.7276,-4.7249,-4.7267,-4.7223,-4.7116,-4.707,-4.707,-3.3725,-3.4352,-3.475,-3.5249,-3.5638,-3.591,-3.61,-3.6274,-3.6538,-3.6662,-3.68,-3.6938,-3.7138,-3.7304,-3.7566,-3.7698,-3.7927,-3.7987,-3.7918,-3.8141,-3.8416,-3.8635,-3.8312,-3.8355,-3.8398,-3.8424,-3.838,-3.8502,-3.8647,-3.8666,-3.8949,-3.9395,-3.9509,-3.9518,-3.9478,-3.9634,-3.9235,-3.8926,-4.0099,-4.113,-4.1837,-4.2176,-4.2292,-4.2102,-4.2682,-4.3213,-4.3548,-4.3604,-4.3322,-4.3126,-4.3729,-4.3887,-4.4175,-4.4412,-4.4372,-4.4504,-4.447,-4.4426,-4.4141,-4.4414,-4.4384,-4.3649,-4.4422,-4.4699,-4.4006,-4.4125,-4.4557,-4.4983,-4.4756,-4.497,-4.5211,-4.5025,-4.4867,-4.4803,-4.4696,-4.4392,-4.3946,-4.375,-4.4346,-4.5745,-4.6058,-4.6568,-4.705,-4.732,-4.732,-4.7407,-4.7381,-4.7338,-4.7381,-4.7381,-4.7381,-4.732,-4.7363,-4.7407,-4.7407,-4.745,-4.7511,-4.7554,-4.7657,-4.7699,-4.7615,-4.7554,-4.7554,-4.7511,-4.7468,-4.745,-4.7407,-4.7407,-4.7363,-4.732,-4.7338,-4.7294,-4.7205,-4.7205,-4.7205,-3.4875,-3.5005,-3.5285,-3.5424,-3.5554,-3.5861,-3.6163,-3.6429,-3.6492,-3.6677,-3.6877,-3.7015,-3.7433,-3.801,-3.8164,-3.8509,-3.8747,-3.8523,-3.8347,-3.8442,-3.9027,-3.9265,-3.9184,-3.9306,-3.9428,-3.9409,-3.9534,-3.9578,-3.953,-3.9516,-3.993,-4.0022,-3.9787,-3.965,-3.965,-3.9854,-3.9558,-3.9303,-4.0701,-4.1421,-4.1483,-4.2311,-4.2769,-4.2752,-4.3347,-4.3764,-4.3989,-4.3881,-4.3798,-4.3855,-4.3772,-4.397,-4.4271,-4.3758,-4.3647,-4.3977,-4.4119,-4.4107,-4.4023,-4.4214,-4.425,-4.4061,-4.4405,-4.4593,-4.457,-4.497,-4.5403,-4.5711,-4.5793,-4.595,-4.6218,-4.6433,-4.6123,-4.5783,-4.5684,-4.5674,-4.5592,-4.5459,-4.5602,-4.6144,-4.6751,-4.727,-4.7536,-4.7468,-4.7511,-4.7554,-4.7554,-4.7468,-4.7511,-4.7554,-4.7536,-4.7536,-4.756,-4.7603,-4.7621,-4.7639,-4.7657,-4.7699,-4.7741,-4.7824,-4.7741,-4.7699,-4.7681,-4.7657,-4.7657,-4.7597,-4.7554,-4.7554,-4.7572,-4.7511,-4.745,-4.7407,-4.7381,-4.7338,-4.7338,-3.5133,-3.5374,-3.5439,-3.5569,-3.5733,-3.5973,-3.6211,-3.6352,-3.6538,-3.6739,-3.7093,-3.7388,-3.7855,-3.8277,-3.8669,-3.9047,-3.9078,-3.8999,-3.8746,-3.8823,-3.9471,-3.9993,-4.0135,-4.0262,-4.0325,-3.9513,-3.8953,-3.895,-3.9054,-3.9403,-3.9515,-4.0027,-3.9886,-3.9822,-3.9903,-4.0287,-4.0261,-4.0209,-4.1481,-4.2355,-4.2641,-4.3082,-4.3654,-4.3738,-4.4011,-4.4172,-4.4384,-4.4212,-4.4212,-4.4259,-4.4051,-4.4074,-4.4451,-4.4143,-4.4031,-4.4312,-4.4434,-4.437,-4.4337,-4.4509,-4.4612,-4.4121,-4.4742,-4.498,-4.518,-4.5632,-4.6067,-4.6235,-4.6381,-4.6542,-4.6795,-4.698,-4.6847,-4.6713,-4.6578,-4.6621,-4.6611,-4.6378,-4.6342,-4.6697,-4.7198,-4.7464,-4.7615,-4.7615,-4.7615,-4.7657,-4.7554,-4.7511,-4.7717,-4.7759,-4.7783,-4.7806,-4.7829,-4.787,-4.7847,-4.7866,-4.7842,-4.7842,-4.7842,-4.7907,-4.7888,-4.7847,-4.7806,-4.7783,-4.7699,-4.7717,-4.7717,-4.7759,-4.7759,-4.7759,-4.7699,-4.7639,-4.7597,-4.759,-4.7615,-3.5198,-3.5554,-3.5554,-3.5748,-3.5973,-3.6148,-3.6274,-3.6336,-3.66,-3.6862,-3.7201,-3.7918,-3.82,-3.8544,-3.9093,-3.9249,-3.9122,-3.9375,-3.9235,-3.9013,-4.0071,-4.069,-4.0944,-4.1119,-4.0722,-3.8978,-3.8785,-3.8619,-3.875,-3.8673,-3.9606,-3.9959,-4.0091,-4.0197,-4.032,-4.0835,-4.1097,-4.1005,-4.1932,-4.2875,-4.3637,-4.3839,-4.4176,-4.458,-4.4412,-4.448,-4.4648,-4.4592,-4.4536,-4.4814,-4.4533,-4.4461,-4.4635,-4.4923,-4.5018,-4.5005,-4.4886,-4.4716,-4.4612,-4.5077,-4.5161,-4.4183,-4.5246,-4.5817,-4.5716,-4.594,-4.6288,-4.6525,-4.6655,-4.672,-4.6842,-4.7025,-4.7178,-4.7196,-4.7302,-4.7363,-4.7281,-4.6855,-4.7012,-4.7234,-4.7482,-4.7681,-4.7699,-4.7681,-4.7681,-4.7699,-4.7639,-4.7639,-4.7842,-4.7943,-4.8006,-4.805,-4.8072,-4.8093,-4.8032,-4.802,-4.8038,-4.8134,-4.8097,-4.8043,-4.8046,-4.7992,-4.797,-4.7824,-4.7801,-4.7801,-4.7842,-4.7824,-4.7884,-4.7902,-4.7884,-4.7806,-4.7842,-4.7855,-4.7951,-3.5623,-3.5718,-3.5846,-3.5846,-3.5816,-3.6211,-3.6476,-3.6662,-3.68,-3.7121,-3.7395,-3.7856,-3.8451,-3.9031,-3.9622,-3.9526,-3.9294,-3.9642,-3.9834,-3.9643,-4.0593,-4.1324,-4.1821,-4.1755,-4.1273,-4.0924,-4.0352,-4.0162,-4.0219,-4.0381,-4.0286,-4.0956,-4.0958,-4.091,-4.0967,-4.1425,-4.1637,-4.1643,-4.2217,-4.274,-4.2997,-4.3567,-4.4118,-4.4763,-4.4631,-4.4686,-4.4923,-4.4923,-4.4978,-4.5123,-4.5142,-4.5178,-4.5249,-4.5302,-4.5061,-4.4681,-4.4734,-4.4818,-4.4833,-4.5401,-4.5813,-4.5856,-4.6143,-4.6363,-4.6383,-4.6466,-4.6566,-4.6666,-4.6795,-4.6906,-4.7088,-4.7223,-4.7356,-4.7529,-4.7639,-4.7723,-4.7793,-4.7765,-4.7575,-4.7627,-4.7741,-4.7842,-4.7866,-4.7888,-4.7911,-4.7911,-4.7911,-4.7911,-4.8068,-4.8166,-4.8187,-4.8247,-4.8363,-4.8306,-4.8267,-4.8239,-4.8269,-4.8455,-4.8477,-4.8367,-4.8334,-4.8226,-4.8151,-4.8068,-4.7947,-4.7947,-4.7947,-4.7929,-4.7988,-4.8006,-4.7988,-4.801,-4.8065,-4.8174,-4.8666,-3.5604,-3.5604,-3.5925,-3.5973,-3.5958,-3.6289,-3.6554,-3.66,-3.6677,-3.6877,-3.7186,-3.7639,-3.8122,-3.8794,-3.9716,-3.9732,-3.9628,-4.0037,-4.0151,-4.0116,-4.0796,-4.1689,-4.238,-4.2151,-4.1873,-4.1585,-4.1303,-4.1018,-4.0697,-4.0554,-4.0815,-4.1102,-4.1173,-4.1214,-4.1427,-4.1953,-4.2199,-4.2339,-4.2814,-4.3182,-4.3255,-4.3859,-4.4453,-4.4787,-4.4923,-4.5015,-4.514,-4.5194,-4.53,-4.5389,-4.539,-4.5494,-4.5666,-4.5735,-4.5511,-4.501,-4.5026,-4.5246,-4.5346,-4.593,-4.6151,-4.6477,-4.659,-4.6684,-4.6778,-4.6835,-4.6863,-4.7017,-4.708,-4.7276,-4.7493,-4.7536,-4.7723,-4.7888,-4.797,-4.8032,-4.8151,-4.819,-4.8072,-4.7911,-4.8032,-4.809,-4.8068,-4.809,-4.8151,-4.8151,-4.8132,-4.8229,-4.8343,-4.8343,-4.8381,-4.8512,-4.8661,-4.8955,-4.8881,-4.8803,-4.8669,-4.8799,-4.8799,-4.8728,-4.8746,-4.8731,-4.8491,-4.8304,-4.8187,-4.8236,-4.805,-4.801,-4.805,-4.8166,-4.8242,-4.8318,-4.8375,-4.8559,-4.9218,-3.5504,-3.5539,-3.5925,-3.6037,-3.61,-3.6429,-3.6554,-3.6554,-3.6616,-3.6677,-3.6832,-3.7483,-3.7888,-3.834,-3.9261,-3.989,-3.9724,-4.0292,-4.0388,-4.0494,-4.1045,-4.1814,-4.2393,-4.2553,-4.2434,-4.2154,-4.1951,-4.1419,-4.0906,-4.0686,-4.0831,-4.1252,-4.1378,-4.1486,-4.1823,-4.2534,-4.2841,-4.328,-4.3736,-4.4243,-4.4463,-4.4665,-4.494,-4.5177,-4.5247,-4.5283,-4.5406,-4.5511,-4.5546,-4.5649,-4.5666,-4.5784,-4.6005,-4.6192,-4.611,-4.5838,-4.5871,-4.6055,-4.6186,-4.6346,-4.6542,-4.6842,-4.687,-4.6962,-4.7007,-4.7107,-4.716,-4.7414,-4.7475,-4.7578,-4.7788,-4.7911,-4.8032,-4.8172,-4.8288,-4.8382,-4.8364,-4.842,-4.842,-4.8382,-4.842,-4.8363,-4.8304,-4.8306,-4.8364,-4.8364,-4.8364,-4.842,-4.8532,-4.8476,-4.8532,-4.8735,-4.903,-4.9566,-4.9658,-4.9528,-4.938,-4.9233,-4.9177,-4.9029,-4.9177,-4.9288,-4.9067,-4.8844,-4.8823,-4.882,-4.8464,-4.826,-4.8469,-4.862,-4.8601,-4.8879,-4.9358,-4.9781,-5.0333,-3.5539,-3.5688,-3.6006,-3.6211,-3.6274,-3.6693,-3.6816,-3.6662,-3.6816,-3.6954,-3.7002,-3.7639,-3.7982,-3.8481,-3.9464,-4.0063,-4.0258,-4.0579,-4.0848,-4.097,-4.1455,-4.2077,-4.2756,-4.299,-4.288,-4.2668,-4.2671,-4.2301,-4.1699,-4.1232,-4.1334,-4.1786,-4.2035,-4.2228,-4.2411,-4.3074,-4.3614,-4.3764,-4.4088,-4.4406,-4.4665,-4.4776,-4.494,-4.514,-4.5336,-4.5459,-4.5581,-4.5718,-4.5871,-4.5972,-4.6227,-4.6309,-4.6288,-4.6473,-4.6504,-4.6385,-4.6332,-4.6381,-4.6525,-4.6684,-4.6888,-4.707,-4.7143,-4.7232,-4.7276,-4.7381,-4.7486,-4.7637,-4.7711,-4.7806,-4.7992,-4.8032,-4.8169,-4.8363,-4.855,-4.8569,-4.8587,-4.8642,-4.8697,-4.8642,-4.8642,-4.8587,-4.8532,-4.855,-4.855,-4.855,-4.8587,-4.866,-4.8715,-4.8697,-4.8918,-4.9211,-4.936,-4.9859,-5.0359,-5.0268,-5.0138,-4.986,-4.9565,-4.9417,-4.9602,-4.9786,-4.9806,-4.9621,-4.9621,-4.951,-4.9232,-4.9103,-4.9122,-4.9214,-4.9417,-5.0027,-5.0729,-5.1117,-5.1265,-3.5638,-3.5752,-3.6196,-3.6352,-3.6414,-3.6723,-3.68,-3.6723,-3.6693,-3.6971,-3.725,-3.7544,-3.8228,-3.9152,-4.0081,-4.0497,-4.0769,-4.096,-4.1195,-4.1413,-4.1723,-4.2232,-4.2814,-4.3129,-4.319,-4.3007,-4.299,-4.2814,-4.2374,-4.215,-4.215,-4.2523,-4.2682,-4.2894,-4.3006,-4.3522,-4.3789,-4.3923,-4.4155,-4.448,-4.472,-4.4886,-4.4978,-4.5194,-4.5406,-4.5563,-4.5684,-4.5871,-4.6023,-4.6122,-4.6389,-4.6552,-4.6595,-4.6743,-4.6826,-4.6749,-4.6842,-4.6842,-4.686,-4.6952,-4.707,-4.7205,-4.732,-4.7363,-4.7511,-4.7615,-4.7819,-4.8156,-4.8065,-4.8151,-4.8344,-4.8438,-4.8587,-4.8751,-4.8822,-4.8822,-4.8839,-4.8927,-4.898,-4.8874,-4.882,-4.8787,-4.8769,-4.8768,-4.8785,-4.8839,-4.882,-4.8855,-4.8909,-4.8962,-4.9331,-4.9812,-4.9942,-5.0112,-5.065,-5.0964,-5.091,-5.0631,-5.0145,-5.0035,-5.0075,-5.0187,-5.0246,-5.0486,-5.0633,-5.0413,-5.0064,-4.9861,-4.9714,-4.9972,-5.0306,-5.0879,-5.1435,-5.138,-5.1621,-3.5816,-3.5879,-3.6352,-3.6554,-3.6569,-3.6909,-3.6987,-3.694,-3.7032,-3.7307,-3.7646,-3.7895,-3.8722,-3.9838,-4.0399,-4.0832,-4.1279,-4.1451,-4.1639,-4.184,-4.2012,-4.2349,-4.2814,-4.3129,-4.319,-4.3052,-4.3007,-4.2749,-4.2623,-4.2642,-4.2737,-4.3068,-4.3015,-4.3185,-4.3476,-4.3628,-4.3747,-4.4056,-4.4253,-4.4592,-4.4869,-4.5032,-4.5194,-4.5371,-4.5528,-4.5684,-4.5736,-4.5972,-4.6154,-4.6253,-4.6464,-4.6643,-4.6766,-4.6895,-4.7023,-4.7043,-4.7133,-4.7205,-4.716,-4.7205,-4.7232,-4.7363,-4.7475,-4.7621,-4.7765,-4.7824,-4.7984,-4.8489,-4.8418,-4.8513,-4.8732,-4.8787,-4.8892,-4.8996,-4.9116,-4.9135,-4.9101,-4.9083,-4.9049,-4.8943,-4.8909,-4.9015,-4.898,-4.8996,-4.903,-4.9064,-4.9098,-4.9079,-4.9079,-4.9131,-4.9336,-4.9762,-4.9765,-4.9937,-5.0564,-5.1046,-5.1249,-5.1211,-5.0669,-5.0449,-5.0415,-5.0605,-5.0813,-5.1106,-5.1491,-5.1348,-5.1041,-5.0674,-5.0417,-5.0954,-5.1454,-5.1658,-5.1918,-5.1881,-5.2103,-3.6133,-3.6196,-3.6523,-3.6723,-3.6708,-3.7561,-3.7779,-3.7545,-3.8018,-3.8169,-3.8296,-3.8642,-3.9082,-3.9919,-4.0464,-4.1038,-4.182,-4.2173,-4.2283,-4.2409,-4.2553,-4.2645,-4.2883,-4.2945,-4.2958,-4.2847,-4.2778,-4.239,-4.2199,-4.257,-4.2737,-4.2961,-4.308,-4.3218,-4.3432,-4.3687,-4.3906,-4.4196,-4.4463,-4.4725,-4.5015,-4.523,-4.5389,-4.5563,-4.577,-4.5972,-4.599,-4.6221,-4.635,-4.6381,-4.6655,-4.6795,-4.6906,-4.7043,-4.7151,-4.7223,-4.7356,-4.7468,-4.7511,-4.7511,-4.7615,-4.7801,-4.7907,-4.7933,-4.8053,-4.8172,-4.8399,-4.8605,-4.8624,-4.8697,-4.8839,-4.8909,-4.903,-4.9131,-4.9197,-4.9183,-4.9183,-4.9164,-4.9098,-4.8978,-4.8996,-4.9083,-4.9116,-4.9131,-4.9113,-4.9146,-4.9262,-4.9244,-4.9211,-4.923,-4.923,-4.938,-4.9361,-4.9641,-5.0268,-5.06,-5.0731,-5.0769,-5.0469,-5.0422,-5.0538,-5.0837,-5.1301,-5.1881,-5.2252,-5.209,-5.2036,-5.1912,-5.1917,-5.2252,-5.2568,-5.2698,-5.2884,-5.3051,-5.3219,-3.6646,-3.6815,-3.6952,-3.6892,-3.6739,-3.7219,-3.7328,-3.7313,-3.7499,-3.7856,-3.8227,-3.8712,-3.9167,-3.9689,-4.0435,-4.0944,-4.1486,-4.2236,-4.2443,-4.2634,-4.2696,-4.2821,-4.2945,-4.2904,-4.2895,-4.2463,-4.2294,-4.195,-4.1439,-4.2294,-4.2468,-4.266,-4.3098,-4.3416,-4.3628,-4.3906,-4.4236,-4.448,-4.4686,-4.4906,-4.5032,-4.5283,-4.5441,-4.5494,-4.5803,-4.6023,-4.6172,-4.6301,-4.6495,-4.6637,-4.6842,-4.6934,-4.7007,-4.7187,-4.7294,-4.7381,-4.7536,-4.7681,-4.7747,-4.7728,-4.7847,-4.8028,-4.809,-4.819,-4.8326,-4.842,-4.8587,-4.8715,-4.8822,-4.8925,-4.9046,-4.9079,-4.9146,-4.9211,-4.9244,-4.9262,-4.923,-4.9244,-4.9179,-4.9079,-4.9113,-4.9164,-4.9211,-4.9244,-4.9225,-4.9257,-4.934,-4.9421,-4.939,-4.934,-4.934,-4.934,-4.9358,-4.9621,-5.0234,-5.0303,-5.0266,-5.0416,-5.0491,-5.0684,-5.1007,-5.1326,-5.1828,-5.245,-5.3087,-5.3184,-5.3225,-5.3265,-5.3177,-5.2994,-5.3237,-5.359,-5.3869,-5.4037,-5.4055,-3.6907,-3.7134,-3.7178,-3.7074,-3.6923,-3.7186,-3.7357,-3.7388,-3.7592,-3.7842,-3.8356,-3.8824,-3.9232,-3.969,-4.0309,-4.1024,-4.1549,-4.2156,-4.2522,-4.2615,-4.261,-4.2684,-4.2708,-4.2692,-4.244,-4.2085,-4.2071,-4.184,-4.17,-4.2343,-4.2642,-4.2883,-4.3197,-4.368,-4.3864,-4.4293,-4.4631,-4.4814,-4.4978,-4.5103,-4.5157,-4.5406,-4.5598,-4.5649,-4.5955,-4.6204,-4.635,-4.6542,-4.6684,-4.6842,-4.7025,-4.7143,-4.7214,-4.7345,-4.745,-4.7621,-4.7747,-4.787,-4.7933,-4.7974,-4.8032,-4.8169,-4.8381,-4.8457,-4.8606,-4.8678,-4.882,-4.8943,-4.9046,-4.9113,-4.9211,-4.9211,-4.9276,-4.939,-4.9358,-4.9345,-4.9308,-4.9289,-4.9276,-4.9211,-4.9276,-4.934,-4.9371,-4.9452,-4.9434,-4.9434,-4.9495,-4.9544,-4.9544,-4.9495,-4.9495,-4.9495,-4.9464,-4.9871,-5.0266,-5.0503,-5.0842,-5.167,-5.1688,-5.1481,-5.1694,-5.2014,-5.232,-5.2883,-5.3489,-5.4183,-5.419,-5.3893,-5.3601,-5.3309,-5.3644,-5.3997,-5.4089,-5.4183,-5.4147,-3.7015,-3.6999,-3.715,-3.7194,-3.7257,-3.7885,-3.812,-3.798,-3.8404,-3.8637,-3.8716,-3.8919,-3.923,-3.9828,-4.0308,-4.1007,-4.1694,-4.2252,-4.2696,-4.2661,-4.2415,-4.2206,-4.219,-4.2193,-4.2219,-4.2301,-4.2303,-4.2319,-4.2245,-4.2966,-4.3189,-4.3287,-4.3621,-4.4039,-4.3889,-4.4259,-4.4652,-4.4961,-4.514,-4.5247,-4.5406,-4.5667,-4.5821,-4.5938,-4.6235,-4.6447,-4.659,-4.6795,-4.6934,-4.7007,-4.7232,-4.7327,-4.7306,-4.756,-4.7728,-4.7797,-4.8075,-4.8229,-4.8306,-4.8306,-4.8344,-4.8382,-4.8587,-4.8732,-4.8855,-4.8959,-4.9027,-4.9127,-4.9211,-4.9244,-4.9276,-4.9321,-4.9452,-4.9483,-4.9471,-4.9471,-4.9434,-4.9402,-4.9371,-4.9434,-4.9495,-4.9574,-4.9604,-4.9653,-4.9653,-4.9653,-4.9663,-4.9663,-4.9644,-4.9644,-4.9615,-4.9747,-4.9736,-5.0018,-5.0433,-5.0926,-5.1454,-5.2397,-5.2799,-5.2554,-5.2485,-5.2768,-5.3075,-5.3395,-5.3846,-5.4416,-5.4458,-5.4352,-5.4078,-5.3893,-5.3903,-5.4127,-5.4254,-5.4308,-5.4254,-3.7539,-3.7759,-3.7508,-3.7464,-3.7539,-3.7642,-3.7676,-3.7571,-3.7714,-3.7901,-3.8087,-3.8402,-3.8732,-3.9314,-4.0309,-4.1087,-4.1485,-4.2301,-4.2696,-4.2615,-4.2398,-4.2696,-4.26,-4.2242,-4.2137,-4.2394,-4.246,-4.2359,-4.1926,-4.3086,-4.3317,-4.3345,-4.3917,-4.4502,-4.4423,-4.4473,-4.4557,-4.525,-4.5459,-4.5511,-4.5649,-4.5905,-4.6105,-4.6119,-4.6477,-4.6731,-4.6888,-4.7088,-4.716,-4.7232,-4.745,-4.7542,-4.7614,-4.7888,-4.809,-4.8172,-4.8419,-4.8438,-4.8532,-4.8605,-4.8732,-4.8768,-4.8804,-4.8943,-4.9079,-4.9179,-4.9244,-4.9276,-4.9371,-4.9452,-4.9514,-4.9525,-4.9634,-4.9604,-4.9623,-4.9623,-4.9574,-4.9544,-4.9544,-4.9634,-4.9721,-4.975,-4.975,-4.9778,-4.9778,-4.9778,-4.9807,-4.9778,-4.9759,-4.975,-4.9769,-4.9967,-5.0118,-5.0277,-5.0579,-5.1099,-5.1714,-5.2496,-5.3164,-5.3434,-5.3472,-5.356,-5.3736,-5.4018,-5.4339,-5.4622,-5.459,-5.4557,-5.4557,-5.4472,-5.439,-5.4303,-5.4409,-5.4409,-5.4393,-3.7817,-3.8065,-3.77,-3.7658,-3.7759,-3.7658,-3.7508,-3.7389,-3.7389,-3.7449,-3.7591,-3.8046,-3.8568,-3.9229,-4.0082,-4.1244,-4.1516,-4.225,-4.245,-4.2402,-4.2199,-4.2228,-4.2242,-4.236,-4.2154,-4.2425,-4.2919,-4.2948,-4.2434,-4.3283,-4.3715,-4.391,-4.4028,-4.4394,-4.4536,-4.4644,-4.463,-4.52,-4.539,-4.5491,-4.58,-4.6122,-4.6301,-4.6477,-4.6713,-4.7007,-4.716,-4.7294,-4.7407,-4.7518,-4.7705,-4.7888,-4.8032,-4.8169,-4.8399,-4.8569,-4.8679,-4.8732,-4.882,-4.8909,-4.9012,-4.9061,-4.9061,-4.9113,-4.9244,-4.934,-4.939,-4.9452,-4.9574,-4.9634,-4.9663,-4.9721,-4.9721,-4.9721,-4.9721,-4.9721,-4.975,-4.9721,-4.9721,-4.9835,-4.989,-4.9871,-4.9898,-4.9898,-4.9925,-4.9925,-4.9925,-4.9898,-4.9843,-4.9835,-4.9835,-5.0024,-5.0241,-5.0364,-5.0761,-5.1376,-5.2,-5.2632,-5.3244,-5.3886,-5.4207,-5.4257,-5.4434,-5.4566,-5.4661,-5.4736,-5.4736,-5.4736,-5.4717,-5.4717,-5.4622,-5.459,-5.459,-5.4524,-5.451,-3.7876,-3.7876,-3.7759,-3.7759,-3.7876,-3.7759,-3.77,-3.77,-3.77,-3.7583,-3.7539,-3.7753,-3.848,-3.9575,-3.9952,-4.0793,-4.1816,-4.2248,-4.2187,-4.1896,-4.1547,-4.1502,-4.1699,-4.1993,-4.2142,-4.2585,-4.3076,-4.3474,-4.325,-4.3572,-4.4126,-4.4337,-4.3836,-4.4371,-4.4785,-4.4854,-4.4906,-4.5302,-4.5471,-4.5708,-4.6186,-4.6385,-4.6607,-4.6778,-4.7053,-4.7276,-4.745,-4.7645,-4.7752,-4.7875,-4.8032,-4.8208,-4.8324,-4.8457,-4.8643,-4.8824,-4.8943,-4.9046,-4.9113,-4.9179,-4.9276,-4.9352,-4.9352,-4.934,-4.9371,-4.9464,-4.9544,-4.9604,-4.9663,-4.975,-4.9807,-4.9807,-4.9835,-4.9835,-4.9835,-4.9843,-4.9871,-4.9898,-4.9898,-4.9978,-5.0031,-5.0057,-5.0057,-5.0082,-5.0152,-5.0057,-5.0031,-4.9986,-4.9978,-4.9843,-4.989,-4.9955,-5.0155,-5.0392,-5.0913,-5.1575,-5.2191,-5.2817,-5.3516,-5.411,-5.4519,-5.4784,-5.4765,-5.4765,-5.481,-5.4829,-5.4871,-5.4882,-5.4912,-5.4852,-5.4791,-5.4749,-5.4749,-5.4705,-5.466,-3.7817,-3.7876,-3.7642,-3.77,-3.7876,-3.7992,-3.7892,-3.7583,-3.7492,-3.7492,-3.7673,-3.836,-3.885,-3.9249,-3.9927,-4.053,-4.097,-4.1156,-4.1254,-4.1154,-4.1033,-4.1116,-4.142,-4.192,-4.2292,-4.2629,-4.3088,-4.35,-4.3284,-4.3569,-4.385,-4.406,-4.4062,-4.4699,-4.5042,-4.5072,-4.5399,-4.5621,-4.5733,-4.6139,-4.6542,-4.6784,-4.6952,-4.7116,-4.7381,-4.7597,-4.7728,-4.7893,-4.8014,-4.8172,-4.8229,-4.8344,-4.8421,-4.866,-4.8892,-4.9064,-4.9146,-4.9179,-4.9276,-4.9384,-4.9551,-4.9766,-4.9768,-4.9673,-4.9644,-4.9738,-4.9834,-4.992,-5.0109,-5.0288,-5.0229,-5.018,-5.0066,-4.9997,-4.9952,-4.9952,-5.0005,-5.0031,-5.0057,-5.0108,-5.0182,-5.0297,-5.0297,-5.0329,-5.0361,-5.0209,-5.0152,-5.0171,-5.0063,-4.9978,-4.9925,-4.999,-5.0415,-5.0757,-5.1193,-5.1866,-5.2425,-5.3014,-5.3699,-5.4286,-5.4714,-5.4952,-5.4952,-5.4971,-5.496,-5.4971,-5.5009,-5.5057,-5.5076,-5.5057,-5.5028,-5.496,-5.4871,-5.486,-5.4799,-3.8049,-3.8049,-3.795,-3.7876,-3.7934,-3.8107,-3.8008,-3.77,-3.7685,-3.7743,-3.7748,-3.8366,-3.9012,-3.9622,-4.0128,-4.0647,-4.1091,-4.1276,-4.1118,-4.0664,-4.0705,-4.0809,-4.1153,-4.161,-4.1849,-4.2261,-4.2593,-4.2831,-4.2838,-4.3134,-4.3494,-4.4716,-4.4732,-4.5109,-4.5556,-4.5737,-4.5963,-4.6129,-4.6259,-4.6589,-4.6916,-4.7205,-4.7267,-4.7443,-4.7759,-4.7888,-4.8014,-4.8151,-4.8306,-4.8458,-4.8495,-4.8587,-4.8711,-4.894,-4.9193,-4.9371,-4.9434,-4.972,-5.0,-5.0134,-5.0373,-5.0572,-5.0523,-5.0475,-5.0448,-5.0496,-5.0496,-5.0534,-5.0787,-5.0935,-5.076,-5.0583,-5.038,-5.0196,-5.0133,-5.0063,-5.0133,-5.0158,-5.0207,-5.0255,-5.0374,-5.0527,-5.0622,-5.0651,-5.0741,-5.086,-5.0765,-5.0593,-5.0373,-5.0082,-5.0031,-5.005,-5.0672,-5.123,-5.1687,-5.2125,-5.2722,-5.3229,-5.3734,-5.4315,-5.4809,-5.5038,-5.5038,-5.5066,-5.5094,-5.5121,-5.514,-5.5214,-5.5233,-5.5214,-5.5168,-5.5113,-5.5028,-5.5,-5.496,-3.852,-3.8391,-3.8408,-3.8221,-3.7976,-3.8164,-3.8164,-3.7992,-3.8164,-3.8065,-3.7876,-3.8123,-3.893,-3.9591,-3.9994,-4.0453,-4.0733,-4.089,-4.0574,-4.0061,-4.0155,-4.037,-4.07,-4.0973,-4.1533,-4.1659,-4.1885,-4.221,-4.2005,-4.2511,-4.3692,-4.5355,-4.502,-4.5271,-4.6077,-4.6323,-4.656,-4.6819,-4.6668,-4.6686,-4.7285,-4.7533,-4.7597,-4.7783,-4.7988,-4.8226,-4.8344,-4.8495,-4.8678,-4.8804,-4.8874,-4.8925,-4.9108,-4.9308,-4.9544,-4.9644,-4.9702,-5.0015,-5.0373,-5.0561,-5.1231,-5.1551,-5.1768,-5.1504,-5.1396,-5.0817,-5.0639,-5.0684,-5.0875,-5.0945,-5.0827,-5.1037,-5.0999,-5.0813,-5.0737,-5.0885,-5.1095,-5.108,-5.1051,-5.1117,-5.1216,-5.1312,-5.127,-5.1362,-5.1706,-5.1701,-5.1625,-5.1357,-5.1104,-5.0746,-5.0544,-5.0481,-5.064,-5.1318,-5.1986,-5.2463,-5.3054,-5.3563,-5.3987,-5.4398,-5.4969,-5.5121,-5.5121,-5.5168,-5.5214,-5.5222,-5.5267,-5.5313,-5.5332,-5.5332,-5.5286,-5.5248,-5.5195,-5.514,-5.5085,-3.8544,-3.8391,-3.8488,-3.8472,-3.8472,-3.8583,-3.86,-3.8472,-3.8583,-3.8432,-3.8164,-3.8383,-3.8659,-3.9088,-3.9398,-3.9691,-3.9748,-4.0238,-3.9699,-3.9632,-3.9694,-4.0171,-4.0558,-4.0929,-4.1373,-4.1798,-4.1886,-4.1679,-4.1684,-4.2337,-4.3236,-4.434,-4.4764,-4.5781,-4.6584,-4.6749,-4.7007,-4.7302,-4.7306,-4.7222,-4.7669,-4.7747,-4.7783,-4.7988,-4.8247,-4.8382,-4.8495,-4.8587,-4.882,-4.9012,-4.8993,-4.9193,-4.9525,-4.9738,-4.9854,-4.9862,-4.9944,-5.0187,-5.0456,-5.078,-5.1294,-5.1724,-5.1907,-5.2207,-5.1959,-5.1032,-5.0664,-5.0808,-5.1013,-5.1117,-5.1178,-5.1519,-5.1672,-5.1542,-5.1389,-5.1729,-5.2073,-5.2005,-5.1935,-5.2012,-5.2091,-5.2072,-5.2012,-5.2242,-5.2567,-5.266,-5.266,-5.2526,-5.2433,-5.2139,-5.1829,-5.1576,-5.0726,-5.117,-5.2088,-5.2963,-5.367,-5.4098,-5.4523,-5.4859,-5.5138,-5.5176,-5.5195,-5.5286,-5.5358,-5.5339,-5.532,-5.5358,-5.5403,-5.5384,-5.5384,-5.532,-5.532,-5.5313,-5.5214,-3.8313,-3.8215,-3.8564,-3.8655,-3.8655,-3.875,-3.875,-3.8678,-3.8733,-3.8694,-3.8488,-3.8632,-3.8818,-3.9007,-3.924,-3.9309,-3.938,-3.9605,-3.9669,-3.9634,-3.9659,-3.9964,-4.0441,-4.0832,-4.1002,-4.146,-4.1523,-4.1405,-4.1707,-4.2661,-4.3699,-4.4489,-4.547,-4.6223,-4.687,-4.7098,-4.7302,-4.7482,-4.7728,-4.7966,-4.8079,-4.8046,-4.801,-4.8229,-4.8458,-4.8605,-4.8767,-4.8837,-4.9094,-4.9308,-4.9371,-4.9488,-4.9759,-4.9955,-5.0035,-5.0101,-5.0196,-5.0354,-5.0636,-5.0932,-5.1465,-5.2219,-5.2353,-5.2759,-5.3302,-5.256,-5.2345,-5.2545,-5.3334,-5.351,-5.3037,-5.3133,-5.2869,-5.2621,-5.2444,-5.2516,-5.2519,-5.2389,-5.2508,-5.2701,-5.2759,-5.2778,-5.2873,-5.3411,-5.3659,-5.3637,-5.3637,-5.3371,-5.3332,-5.3445,-5.3157,-5.2886,-5.2171,-5.2168,-5.3242,-5.3966,-5.4475,-5.4828,-5.5027,-5.5148,-5.5294,-5.5294,-5.5313,-5.5384,-5.5409,-5.539,-5.539,-5.5409,-5.539,-5.5396,-5.5396,-5.5396,-5.5415,-5.5434,-5.5345,-3.7959,-3.8018,-3.8487,-3.8739,-3.8727,-3.8805,-3.8876,-3.886,-3.886,-3.8914,-3.886,-3.886,-3.927,-3.9558,-3.9867,-4.0018,-4.0029,-3.9873,-3.9818,-3.9811,-3.9901,-4.0222,-4.0426,-4.0557,-4.0808,-4.1034,-4.1202,-4.1824,-4.2457,-4.3395,-4.4307,-4.5346,-4.6134,-4.6863,-4.7008,-4.7309,-4.7548,-4.7593,-4.7813,-4.8231,-4.8344,-4.8344,-4.8364,-4.8476,-4.8714,-4.8978,-4.9061,-4.9225,-4.9402,-4.9615,-4.975,-4.9898,-5.0012,-5.0152,-5.0226,-5.0302,-5.0352,-5.0818,-5.1341,-5.1576,-5.2653,-5.3497,-5.3325,-5.3539,-5.4081,-5.4216,-5.3983,-5.4213,-5.5004,-5.4872,-5.4376,-5.4223,-5.386,-5.3725,-5.3551,-5.3355,-5.3184,-5.309,-5.334,-5.3572,-5.3572,-5.361,-5.3822,-5.438,-5.4611,-5.459,-5.4457,-5.4169,-5.4014,-5.4264,-5.4262,-5.426,-5.4028,-5.4257,-5.4581,-5.4537,-5.4833,-5.5174,-5.5298,-5.5383,-5.5409,-5.5396,-5.5377,-5.5371,-5.5415,-5.5421,-5.5421,-5.5421,-5.5427,-5.5408,-5.5427,-5.5427,-5.5451,-5.5451,-5.5432,-3.7802,-3.8334,-3.8432,-3.8709,-3.9115,-3.9309,-3.9325,-3.9218,-3.9325,-3.9309,-3.9202,-3.9218,-3.9226,-3.9073,-3.9417,-3.9628,-3.9744,-3.9801,-3.9823,-3.9746,-4.0003,-4.0408,-4.0663,-4.0671,-4.0779,-4.1029,-4.1377,-4.1988,-4.266,-4.3641,-4.467,-4.5508,-4.6372,-4.6802,-4.6717,-4.713,-4.7583,-4.7654,-4.8125,-4.8569,-4.8697,-4.8732,-4.866,-4.882,-4.8993,-4.9146,-4.9257,-4.9321,-4.9525,-4.9759,-5.0005,-5.0158,-5.0255,-5.0344,-5.0451,-5.067,-5.0696,-5.1217,-5.1718,-5.2068,-5.3107,-5.4166,-5.4108,-5.4476,-5.4939,-5.5324,-5.5132,-5.4978,-5.5229,-5.4439,-5.4053,-5.4516,-5.4438,-5.4688,-5.4669,-5.4554,-5.44,-5.4612,-5.4882,-5.4901,-5.4843,-5.4689,-5.4476,-5.4997,-5.5461,-5.5461,-5.5403,-5.5171,-5.5075,-5.521,-5.5249,-5.5325,-5.5401,-5.5514,-5.5453,-5.4754,-5.4863,-5.5244,-5.5527,-5.5499,-5.5495,-5.5456,-5.5456,-5.5451,-5.5451,-5.5476,-5.5476,-5.5476,-5.5476,-5.548,-5.548,-5.5499,-5.548,-5.5504,-5.5504]}]]